<?xml version="1.0" encoding="UTF-8" standalone="no" ?>
<gpx xmlns="http://www.topografix.com/GPX/1/1" xmlns:xsi="http://www.w3.org/2001/XMLSchema-instance" xsi:schemaLocation="http://www.topografix.com/GPX/1/1 http://www.topografix.com/GPX/1/1/gpx.xsd" version="1.1" creator="VisuGPX - https://www.visugpx.com">
  <metadata>
    <name>soum de l'aigle</name>
    <desc><![CDATA[description à venir
[url][/url]
[img][/img]]]></desc>
  </metadata>
  <trk>
    <name><![CDATA[28-MARS-14 16:52:09]]></name>
    <trkseg>
      <trkpt lat="42.80232" lon="0.46184">
        <ele>1613</ele>
        <time>2014-03-28T08:19:53Z</time>
      </trkpt>
      <trkpt lat="42.80232" lon="0.46187">
        <ele>1608</ele>
        <time>2014-03-28T08:19:57Z</time>
      </trkpt>
      <trkpt lat="42.80232" lon="0.46187">
        <ele>1606</ele>
        <time>2014-03-28T08:19:59Z</time>
      </trkpt>
      <trkpt lat="42.80232" lon="0.46187">
        <ele>1601</ele>
        <time>2014-03-28T08:20:02Z</time>
      </trkpt>
      <trkpt lat="42.80231" lon="0.46187">
        <ele>1597</ele>
        <time>2014-03-28T08:20:05Z</time>
      </trkpt>
      <trkpt lat="42.80231" lon="0.46188">
        <ele>1594</ele>
        <time>2014-03-28T08:20:09Z</time>
      </trkpt>
      <trkpt lat="42.8023" lon="0.46188">
        <ele>1591</ele>
        <time>2014-03-28T08:20:13Z</time>
      </trkpt>
      <trkpt lat="42.8023" lon="0.46188">
        <ele>1589</ele>
        <time>2014-03-28T08:20:15Z</time>
      </trkpt>
      <trkpt lat="42.8023" lon="0.46189">
        <ele>1587</ele>
        <time>2014-03-28T08:20:18Z</time>
      </trkpt>
      <trkpt lat="42.80229" lon="0.46187">
        <ele>1584</ele>
        <time>2014-03-28T08:20:22Z</time>
      </trkpt>
      <trkpt lat="42.80229" lon="0.46187">
        <ele>1583</ele>
        <time>2014-03-28T08:20:25Z</time>
      </trkpt>
      <trkpt lat="42.80229" lon="0.46187">
        <ele>1580</ele>
        <time>2014-03-28T08:20:32Z</time>
      </trkpt>
      <trkpt lat="42.8023" lon="0.46187">
        <ele>1578</ele>
        <time>2014-03-28T08:20:36Z</time>
      </trkpt>
      <trkpt lat="42.8023" lon="0.46187">
        <ele>1577</ele>
        <time>2014-03-28T08:20:39Z</time>
      </trkpt>
      <trkpt lat="42.80232" lon="0.46187">
        <ele>1574</ele>
        <time>2014-03-28T08:20:50Z</time>
      </trkpt>
      <trkpt lat="42.80232" lon="0.46186">
        <ele>1570</ele>
        <time>2014-03-28T08:21:03Z</time>
      </trkpt>
      <trkpt lat="42.80231" lon="0.46186">
        <ele>1569</ele>
        <time>2014-03-28T08:21:25Z</time>
      </trkpt>
      <trkpt lat="42.80231" lon="0.46187">
        <ele>1569</ele>
        <time>2014-03-28T08:21:42Z</time>
      </trkpt>
      <trkpt lat="42.80234" lon="0.46187">
        <ele>1569</ele>
        <time>2014-03-28T08:22:03Z</time>
      </trkpt>
      <trkpt lat="42.80234" lon="0.46187">
        <ele>1569</ele>
        <time>2014-03-28T08:22:26Z</time>
      </trkpt>
      <trkpt lat="42.80229" lon="0.46187">
        <ele>1569</ele>
        <time>2014-03-28T08:22:51Z</time>
      </trkpt>
      <trkpt lat="42.80232" lon="0.46186">
        <ele>1569</ele>
        <time>2014-03-28T08:23:12Z</time>
      </trkpt>
      <trkpt lat="42.80231" lon="0.46187">
        <ele>1569</ele>
        <time>2014-03-28T08:23:37Z</time>
      </trkpt>
      <trkpt lat="42.80229" lon="0.46187">
        <ele>1569</ele>
        <time>2014-03-28T08:23:59Z</time>
      </trkpt>
      <trkpt lat="42.80231" lon="0.46187">
        <ele>1569</ele>
        <time>2014-03-28T08:24:23Z</time>
      </trkpt>
      <trkpt lat="42.8023" lon="0.46189">
        <ele>1568</ele>
        <time>2014-03-28T08:24:47Z</time>
      </trkpt>
      <trkpt lat="42.80229" lon="0.46187">
        <ele>1568</ele>
        <time>2014-03-28T08:25:02Z</time>
      </trkpt>
      <trkpt lat="42.80228" lon="0.46187">
        <ele>1568</ele>
        <time>2014-03-28T08:25:24Z</time>
      </trkpt>
      <trkpt lat="42.80231" lon="0.46189">
        <ele>1568</ele>
        <time>2014-03-28T08:25:43Z</time>
      </trkpt>
      <trkpt lat="42.80232" lon="0.46188">
        <ele>1567</ele>
        <time>2014-03-28T08:25:51Z</time>
      </trkpt>
      <trkpt lat="42.80232" lon="0.4619">
        <ele>1568</ele>
        <time>2014-03-28T08:26:10Z</time>
      </trkpt>
      <trkpt lat="42.80231" lon="0.46192">
        <ele>1567</ele>
        <time>2014-03-28T08:26:38Z</time>
      </trkpt>
      <trkpt lat="42.80232" lon="0.46191">
        <ele>1566</ele>
        <time>2014-03-28T08:27:06Z</time>
      </trkpt>
      <trkpt lat="42.80229" lon="0.46191">
        <ele>1567</ele>
        <time>2014-03-28T08:27:37Z</time>
      </trkpt>
      <trkpt lat="42.80232" lon="0.46194">
        <ele>1567</ele>
        <time>2014-03-28T08:28:18Z</time>
      </trkpt>
      <trkpt lat="42.80232" lon="0.46189">
        <ele>1567</ele>
        <time>2014-03-28T08:28:37Z</time>
      </trkpt>
      <trkpt lat="42.80229" lon="0.4619">
        <ele>1567</ele>
        <time>2014-03-28T08:28:50Z</time>
      </trkpt>
      <trkpt lat="42.80229" lon="0.46189">
        <ele>1568</ele>
        <time>2014-03-28T08:29:06Z</time>
      </trkpt>
      <trkpt lat="42.8023" lon="0.46189">
        <ele>1568</ele>
        <time>2014-03-28T08:29:22Z</time>
      </trkpt>
      <trkpt lat="42.8023" lon="0.4619">
        <ele>1568</ele>
        <time>2014-03-28T08:29:46Z</time>
      </trkpt>
      <trkpt lat="42.80228" lon="0.46191">
        <ele>1569</ele>
        <time>2014-03-28T08:30:02Z</time>
      </trkpt>
      <trkpt lat="42.80228" lon="0.4619">
        <ele>1569</ele>
        <time>2014-03-28T08:30:14Z</time>
      </trkpt>
      <trkpt lat="42.80231" lon="0.46191">
        <ele>1569</ele>
        <time>2014-03-28T08:30:38Z</time>
      </trkpt>
      <trkpt lat="42.80229" lon="0.46192">
        <ele>1569</ele>
        <time>2014-03-28T08:30:54Z</time>
      </trkpt>
      <trkpt lat="42.80227" lon="0.4619">
        <ele>1569</ele>
        <time>2014-03-28T08:31:09Z</time>
      </trkpt>
      <trkpt lat="42.80227" lon="0.46193">
        <ele>1569</ele>
        <time>2014-03-28T08:31:18Z</time>
      </trkpt>
      <trkpt lat="42.80227" lon="0.46196">
        <ele>1569</ele>
        <time>2014-03-28T08:31:31Z</time>
      </trkpt>
      <trkpt lat="42.80229" lon="0.46197">
        <ele>1569</ele>
        <time>2014-03-28T08:31:42Z</time>
      </trkpt>
      <trkpt lat="42.80231" lon="0.462">
        <ele>1569</ele>
        <time>2014-03-28T08:31:47Z</time>
      </trkpt>
      <trkpt lat="42.80229" lon="0.46205">
        <ele>1569</ele>
        <time>2014-03-28T08:31:52Z</time>
      </trkpt>
      <trkpt lat="42.8023" lon="0.46216">
        <ele>1570</ele>
        <time>2014-03-28T08:32:04Z</time>
      </trkpt>
      <trkpt lat="42.80233" lon="0.46213">
        <ele>1571</ele>
        <time>2014-03-28T08:32:13Z</time>
      </trkpt>
      <trkpt lat="42.80234" lon="0.46213">
        <ele>1571</ele>
        <time>2014-03-28T08:32:31Z</time>
      </trkpt>
      <trkpt lat="42.80236" lon="0.46209">
        <ele>1572</ele>
        <time>2014-03-28T08:32:43Z</time>
      </trkpt>
      <trkpt lat="42.80238" lon="0.46203">
        <ele>1572</ele>
        <time>2014-03-28T08:32:51Z</time>
      </trkpt>
      <trkpt lat="42.80239" lon="0.46199">
        <ele>1572</ele>
        <time>2014-03-28T08:32:55Z</time>
      </trkpt>
      <trkpt lat="42.80242" lon="0.46185">
        <ele>1574</ele>
        <time>2014-03-28T08:33:10Z</time>
      </trkpt>
      <trkpt lat="42.80245" lon="0.46174">
        <ele>1576</ele>
        <time>2014-03-28T08:33:22Z</time>
      </trkpt>
      <trkpt lat="42.80248" lon="0.46157">
        <ele>1578</ele>
        <time>2014-03-28T08:33:36Z</time>
      </trkpt>
      <trkpt lat="42.80252" lon="0.46147">
        <ele>1578</ele>
        <time>2014-03-28T08:33:44Z</time>
      </trkpt>
      <trkpt lat="42.80252" lon="0.46136">
        <ele>1579</ele>
        <time>2014-03-28T08:33:57Z</time>
      </trkpt>
      <trkpt lat="42.80253" lon="0.4612">
        <ele>1581</ele>
        <time>2014-03-28T08:34:11Z</time>
      </trkpt>
      <trkpt lat="42.80256" lon="0.46105">
        <ele>1582</ele>
        <time>2014-03-28T08:34:26Z</time>
      </trkpt>
      <trkpt lat="42.80258" lon="0.46092">
        <ele>1583</ele>
        <time>2014-03-28T08:34:39Z</time>
      </trkpt>
      <trkpt lat="42.80258" lon="0.4609">
        <ele>1583</ele>
        <time>2014-03-28T08:34:40Z</time>
      </trkpt>
      <trkpt lat="42.80258" lon="0.46082">
        <ele>1584</ele>
        <time>2014-03-28T08:34:47Z</time>
      </trkpt>
      <trkpt lat="42.80257" lon="0.46077">
        <ele>1584</ele>
        <time>2014-03-28T08:34:51Z</time>
      </trkpt>
      <trkpt lat="42.80257" lon="0.4606">
        <ele>1586</ele>
        <time>2014-03-28T08:35:05Z</time>
      </trkpt>
      <trkpt lat="42.80258" lon="0.46048">
        <ele>1587</ele>
        <time>2014-03-28T08:35:17Z</time>
      </trkpt>
      <trkpt lat="42.8026" lon="0.46035">
        <ele>1588</ele>
        <time>2014-03-28T08:35:29Z</time>
      </trkpt>
      <trkpt lat="42.80262" lon="0.46022">
        <ele>1589</ele>
        <time>2014-03-28T08:35:41Z</time>
      </trkpt>
      <trkpt lat="42.80262" lon="0.46006">
        <ele>1592</ele>
        <time>2014-03-28T08:35:55Z</time>
      </trkpt>
      <trkpt lat="42.8026" lon="0.4599">
        <ele>1593</ele>
        <time>2014-03-28T08:36:09Z</time>
      </trkpt>
      <trkpt lat="42.80261" lon="0.45976">
        <ele>1593</ele>
        <time>2014-03-28T08:36:23Z</time>
      </trkpt>
      <trkpt lat="42.80265" lon="0.45963">
        <ele>1595</ele>
        <time>2014-03-28T08:36:37Z</time>
      </trkpt>
      <trkpt lat="42.80267" lon="0.45952">
        <ele>1596</ele>
        <time>2014-03-28T08:36:49Z</time>
      </trkpt>
      <trkpt lat="42.80267" lon="0.45936">
        <ele>1597</ele>
        <time>2014-03-28T08:37:02Z</time>
      </trkpt>
      <trkpt lat="42.80267" lon="0.45927">
        <ele>1598</ele>
        <time>2014-03-28T08:37:11Z</time>
      </trkpt>
      <trkpt lat="42.80267" lon="0.45922">
        <ele>1599</ele>
        <time>2014-03-28T08:37:16Z</time>
      </trkpt>
      <trkpt lat="42.80271" lon="0.4591">
        <ele>1600</ele>
        <time>2014-03-28T08:37:29Z</time>
      </trkpt>
      <trkpt lat="42.80275" lon="0.45899">
        <ele>1602</ele>
        <time>2014-03-28T08:37:42Z</time>
      </trkpt>
      <trkpt lat="42.80274" lon="0.45886">
        <ele>1603</ele>
        <time>2014-03-28T08:37:57Z</time>
      </trkpt>
      <trkpt lat="42.80274" lon="0.45878">
        <ele>1605</ele>
        <time>2014-03-28T08:38:04Z</time>
      </trkpt>
      <trkpt lat="42.80275" lon="0.45864">
        <ele>1606</ele>
        <time>2014-03-28T08:38:17Z</time>
      </trkpt>
      <trkpt lat="42.80275" lon="0.45851">
        <ele>1607</ele>
        <time>2014-03-28T08:38:29Z</time>
      </trkpt>
      <trkpt lat="42.80275" lon="0.4585">
        <ele>1607</ele>
        <time>2014-03-28T08:38:30Z</time>
      </trkpt>
      <trkpt lat="42.80276" lon="0.45842">
        <ele>1607</ele>
        <time>2014-03-28T08:38:36Z</time>
      </trkpt>
      <trkpt lat="42.80277" lon="0.45829">
        <ele>1609</ele>
        <time>2014-03-28T08:38:49Z</time>
      </trkpt>
      <trkpt lat="42.80277" lon="0.4582">
        <ele>1609</ele>
        <time>2014-03-28T08:38:58Z</time>
      </trkpt>
      <trkpt lat="42.8028" lon="0.45805">
        <ele>1610</ele>
        <time>2014-03-28T08:39:12Z</time>
      </trkpt>
      <trkpt lat="42.8028" lon="0.45804">
        <ele>1611</ele>
        <time>2014-03-28T08:39:13Z</time>
      </trkpt>
      <trkpt lat="42.80284" lon="0.45811">
        <ele>1612</ele>
        <time>2014-03-28T08:39:27Z</time>
      </trkpt>
      <trkpt lat="42.80284" lon="0.45812">
        <ele>1612</ele>
        <time>2014-03-28T08:39:28Z</time>
      </trkpt>
      <trkpt lat="42.80284" lon="0.45827">
        <ele>1614</ele>
        <time>2014-03-28T08:39:44Z</time>
      </trkpt>
      <trkpt lat="42.80285" lon="0.45841">
        <ele>1616</ele>
        <time>2014-03-28T08:39:58Z</time>
      </trkpt>
      <trkpt lat="42.80287" lon="0.45856">
        <ele>1617</ele>
        <time>2014-03-28T08:40:11Z</time>
      </trkpt>
      <trkpt lat="42.8029" lon="0.45873">
        <ele>1619</ele>
        <time>2014-03-28T08:40:25Z</time>
      </trkpt>
      <trkpt lat="42.80295" lon="0.45889">
        <ele>1621</ele>
        <time>2014-03-28T08:40:39Z</time>
      </trkpt>
      <trkpt lat="42.80304" lon="0.45905">
        <ele>1623</ele>
        <time>2014-03-28T08:40:54Z</time>
      </trkpt>
      <trkpt lat="42.80303" lon="0.45916">
        <ele>1624</ele>
        <time>2014-03-28T08:41:07Z</time>
      </trkpt>
      <trkpt lat="42.80305" lon="0.45934">
        <ele>1626</ele>
        <time>2014-03-28T08:41:22Z</time>
      </trkpt>
      <trkpt lat="42.8031" lon="0.45946">
        <ele>1628</ele>
        <time>2014-03-28T08:41:35Z</time>
      </trkpt>
      <trkpt lat="42.80316" lon="0.45956">
        <ele>1630</ele>
        <time>2014-03-28T08:41:46Z</time>
      </trkpt>
      <trkpt lat="42.80315" lon="0.45964">
        <ele>1631</ele>
        <time>2014-03-28T08:41:53Z</time>
      </trkpt>
      <trkpt lat="42.80314" lon="0.45982">
        <ele>1631</ele>
        <time>2014-03-28T08:42:08Z</time>
      </trkpt>
      <trkpt lat="42.80316" lon="0.45994">
        <ele>1633</ele>
        <time>2014-03-28T08:42:23Z</time>
      </trkpt>
      <trkpt lat="42.80321" lon="0.46008">
        <ele>1635</ele>
        <time>2014-03-28T08:42:38Z</time>
      </trkpt>
      <trkpt lat="42.80323" lon="0.4602">
        <ele>1637</ele>
        <time>2014-03-28T08:42:48Z</time>
      </trkpt>
      <trkpt lat="42.80325" lon="0.46038">
        <ele>1638</ele>
        <time>2014-03-28T08:43:02Z</time>
      </trkpt>
      <trkpt lat="42.80327" lon="0.46053">
        <ele>1640</ele>
        <time>2014-03-28T08:43:16Z</time>
      </trkpt>
      <trkpt lat="42.80328" lon="0.46067">
        <ele>1642</ele>
        <time>2014-03-28T08:43:27Z</time>
      </trkpt>
      <trkpt lat="42.80329" lon="0.46081">
        <ele>1643</ele>
        <time>2014-03-28T08:43:39Z</time>
      </trkpt>
      <trkpt lat="42.8033" lon="0.46089">
        <ele>1644</ele>
        <time>2014-03-28T08:43:47Z</time>
      </trkpt>
      <trkpt lat="42.80337" lon="0.46111">
        <ele>1646</ele>
        <time>2014-03-28T08:44:03Z</time>
      </trkpt>
      <trkpt lat="42.80338" lon="0.46125">
        <ele>1648</ele>
        <time>2014-03-28T08:44:19Z</time>
      </trkpt>
      <trkpt lat="42.80338" lon="0.46139">
        <ele>1650</ele>
        <time>2014-03-28T08:44:33Z</time>
      </trkpt>
      <trkpt lat="42.80341" lon="0.4615">
        <ele>1652</ele>
        <time>2014-03-28T08:44:48Z</time>
      </trkpt>
      <trkpt lat="42.80342" lon="0.4616">
        <ele>1653</ele>
        <time>2014-03-28T08:44:55Z</time>
      </trkpt>
      <trkpt lat="42.80343" lon="0.46181">
        <ele>1655</ele>
        <time>2014-03-28T08:45:10Z</time>
      </trkpt>
      <trkpt lat="42.80345" lon="0.46185">
        <ele>1655</ele>
        <time>2014-03-28T08:45:13Z</time>
      </trkpt>
      <trkpt lat="42.80348" lon="0.46203">
        <ele>1657</ele>
        <time>2014-03-28T08:45:26Z</time>
      </trkpt>
      <trkpt lat="42.80353" lon="0.46219">
        <ele>1659</ele>
        <time>2014-03-28T08:45:39Z</time>
      </trkpt>
      <trkpt lat="42.80359" lon="0.46233">
        <ele>1660</ele>
        <time>2014-03-28T08:45:53Z</time>
      </trkpt>
      <trkpt lat="42.80362" lon="0.46239">
        <ele>1661</ele>
        <time>2014-03-28T08:46:05Z</time>
      </trkpt>
      <trkpt lat="42.80362" lon="0.4623">
        <ele>1662</ele>
        <time>2014-03-28T08:46:18Z</time>
      </trkpt>
      <trkpt lat="42.80366" lon="0.46228">
        <ele>1662</ele>
        <time>2014-03-28T08:46:29Z</time>
      </trkpt>
      <trkpt lat="42.80365" lon="0.46227">
        <ele>1661</ele>
        <time>2014-03-28T08:46:40Z</time>
      </trkpt>
      <trkpt lat="42.80362" lon="0.46225">
        <ele>1660</ele>
        <time>2014-03-28T08:47:08Z</time>
      </trkpt>
      <trkpt lat="42.80364" lon="0.46221">
        <ele>1660</ele>
        <time>2014-03-28T08:47:30Z</time>
      </trkpt>
      <trkpt lat="42.80363" lon="0.46228">
        <ele>1660</ele>
        <time>2014-03-28T08:48:04Z</time>
      </trkpt>
      <trkpt lat="42.80362" lon="0.46229">
        <ele>1661</ele>
        <time>2014-03-28T08:48:25Z</time>
      </trkpt>
      <trkpt lat="42.80363" lon="0.46227">
        <ele>1661</ele>
        <time>2014-03-28T08:48:39Z</time>
      </trkpt>
      <trkpt lat="42.80364" lon="0.46224">
        <ele>1661</ele>
        <time>2014-03-28T08:48:49Z</time>
      </trkpt>
      <trkpt lat="42.80364" lon="0.46224">
        <ele>1661</ele>
        <time>2014-03-28T08:48:50Z</time>
      </trkpt>
      <trkpt lat="42.80365" lon="0.4621">
        <ele>1663</ele>
        <time>2014-03-28T08:49:03Z</time>
      </trkpt>
      <trkpt lat="42.80367" lon="0.46193">
        <ele>1664</ele>
        <time>2014-03-28T08:49:18Z</time>
      </trkpt>
      <trkpt lat="42.8037" lon="0.46174">
        <ele>1666</ele>
        <time>2014-03-28T08:49:35Z</time>
      </trkpt>
      <trkpt lat="42.80372" lon="0.46159">
        <ele>1667</ele>
        <time>2014-03-28T08:49:49Z</time>
      </trkpt>
      <trkpt lat="42.80372" lon="0.46147">
        <ele>1668</ele>
        <time>2014-03-28T08:49:58Z</time>
      </trkpt>
      <trkpt lat="42.80374" lon="0.4613">
        <ele>1670</ele>
        <time>2014-03-28T08:50:13Z</time>
      </trkpt>
      <trkpt lat="42.80375" lon="0.4611">
        <ele>1673</ele>
        <time>2014-03-28T08:50:29Z</time>
      </trkpt>
      <trkpt lat="42.80376" lon="0.46092">
        <ele>1675</ele>
        <time>2014-03-28T08:50:44Z</time>
      </trkpt>
      <trkpt lat="42.80377" lon="0.46079">
        <ele>1677</ele>
        <time>2014-03-28T08:50:59Z</time>
      </trkpt>
      <trkpt lat="42.80378" lon="0.46064">
        <ele>1678</ele>
        <time>2014-03-28T08:51:11Z</time>
      </trkpt>
      <trkpt lat="42.80378" lon="0.46048">
        <ele>1680</ele>
        <time>2014-03-28T08:51:25Z</time>
      </trkpt>
      <trkpt lat="42.80378" lon="0.46027">
        <ele>1681</ele>
        <time>2014-03-28T08:51:41Z</time>
      </trkpt>
      <trkpt lat="42.8038" lon="0.46012">
        <ele>1683</ele>
        <time>2014-03-28T08:51:53Z</time>
      </trkpt>
      <trkpt lat="42.8038" lon="0.46011">
        <ele>1683</ele>
        <time>2014-03-28T08:51:54Z</time>
      </trkpt>
      <trkpt lat="42.80381" lon="0.4599">
        <ele>1684</ele>
        <time>2014-03-28T08:52:09Z</time>
      </trkpt>
      <trkpt lat="42.80381" lon="0.45974">
        <ele>1684</ele>
        <time>2014-03-28T08:52:24Z</time>
      </trkpt>
      <trkpt lat="42.80382" lon="0.45957">
        <ele>1688</ele>
        <time>2014-03-28T08:52:37Z</time>
      </trkpt>
      <trkpt lat="42.80384" lon="0.45942">
        <ele>1688</ele>
        <time>2014-03-28T08:52:50Z</time>
      </trkpt>
      <trkpt lat="42.80387" lon="0.45923">
        <ele>1691</ele>
        <time>2014-03-28T08:53:04Z</time>
      </trkpt>
      <trkpt lat="42.8039" lon="0.45907">
        <ele>1693</ele>
        <time>2014-03-28T08:53:16Z</time>
      </trkpt>
      <trkpt lat="42.80391" lon="0.45888">
        <ele>1694</ele>
        <time>2014-03-28T08:53:31Z</time>
      </trkpt>
      <trkpt lat="42.80392" lon="0.45876">
        <ele>1695</ele>
        <time>2014-03-28T08:53:40Z</time>
      </trkpt>
      <trkpt lat="42.80394" lon="0.45863">
        <ele>1698</ele>
        <time>2014-03-28T08:53:50Z</time>
      </trkpt>
      <trkpt lat="42.80396" lon="0.45844">
        <ele>1699</ele>
        <time>2014-03-28T08:54:06Z</time>
      </trkpt>
      <trkpt lat="42.80395" lon="0.45831">
        <ele>1701</ele>
        <time>2014-03-28T08:54:19Z</time>
      </trkpt>
      <trkpt lat="42.80393" lon="0.4581">
        <ele>1702</ele>
        <time>2014-03-28T08:54:35Z</time>
      </trkpt>
      <trkpt lat="42.80394" lon="0.45793">
        <ele>1703</ele>
        <time>2014-03-28T08:54:48Z</time>
      </trkpt>
      <trkpt lat="42.80395" lon="0.45772">
        <ele>1706</ele>
        <time>2014-03-28T08:55:05Z</time>
      </trkpt>
      <trkpt lat="42.80394" lon="0.45754">
        <ele>1708</ele>
        <time>2014-03-28T08:55:21Z</time>
      </trkpt>
      <trkpt lat="42.80394" lon="0.4575">
        <ele>1709</ele>
        <time>2014-03-28T08:55:25Z</time>
      </trkpt>
      <trkpt lat="42.80396" lon="0.45742">
        <ele>1710</ele>
        <time>2014-03-28T08:55:32Z</time>
      </trkpt>
      <trkpt lat="42.80404" lon="0.45728">
        <ele>1711</ele>
        <time>2014-03-28T08:55:48Z</time>
      </trkpt>
      <trkpt lat="42.80411" lon="0.45717">
        <ele>1712</ele>
        <time>2014-03-28T08:56:02Z</time>
      </trkpt>
      <trkpt lat="42.80418" lon="0.45708">
        <ele>1714</ele>
        <time>2014-03-28T08:56:16Z</time>
      </trkpt>
      <trkpt lat="42.80428" lon="0.45701">
        <ele>1717</ele>
        <time>2014-03-28T08:56:30Z</time>
      </trkpt>
      <trkpt lat="42.80436" lon="0.45695">
        <ele>1718</ele>
        <time>2014-03-28T08:56:44Z</time>
      </trkpt>
      <trkpt lat="42.80445" lon="0.45685">
        <ele>1719</ele>
        <time>2014-03-28T08:56:59Z</time>
      </trkpt>
      <trkpt lat="42.80448" lon="0.45684">
        <ele>1720</ele>
        <time>2014-03-28T08:57:11Z</time>
      </trkpt>
      <trkpt lat="42.80447" lon="0.45693">
        <ele>1719</ele>
        <time>2014-03-28T08:57:25Z</time>
      </trkpt>
      <trkpt lat="42.80442" lon="0.457">
        <ele>1721</ele>
        <time>2014-03-28T08:57:40Z</time>
      </trkpt>
      <trkpt lat="42.80436" lon="0.45711">
        <ele>1723</ele>
        <time>2014-03-28T08:57:55Z</time>
      </trkpt>
      <trkpt lat="42.80432" lon="0.4572">
        <ele>1725</ele>
        <time>2014-03-28T08:58:10Z</time>
      </trkpt>
      <trkpt lat="42.8043" lon="0.45728">
        <ele>1726</ele>
        <time>2014-03-28T08:58:23Z</time>
      </trkpt>
      <trkpt lat="42.80426" lon="0.45737">
        <ele>1728</ele>
        <time>2014-03-28T08:58:39Z</time>
      </trkpt>
      <trkpt lat="42.80426" lon="0.45747">
        <ele>1729</ele>
        <time>2014-03-28T08:58:52Z</time>
      </trkpt>
      <trkpt lat="42.80426" lon="0.45752">
        <ele>1730</ele>
        <time>2014-03-28T08:59:05Z</time>
      </trkpt>
      <trkpt lat="42.80427" lon="0.45764">
        <ele>1732</ele>
        <time>2014-03-28T08:59:19Z</time>
      </trkpt>
      <trkpt lat="42.80428" lon="0.45776">
        <ele>1732</ele>
        <time>2014-03-28T08:59:32Z</time>
      </trkpt>
      <trkpt lat="42.80428" lon="0.45779">
        <ele>1732</ele>
        <time>2014-03-28T08:59:36Z</time>
      </trkpt>
      <trkpt lat="42.8043" lon="0.45791">
        <ele>1734</ele>
        <time>2014-03-28T08:59:51Z</time>
      </trkpt>
      <trkpt lat="42.80432" lon="0.45804">
        <ele>1735</ele>
        <time>2014-03-28T09:00:05Z</time>
      </trkpt>
      <trkpt lat="42.80435" lon="0.45819">
        <ele>1736</ele>
        <time>2014-03-28T09:00:21Z</time>
      </trkpt>
      <trkpt lat="42.80435" lon="0.45832">
        <ele>1736</ele>
        <time>2014-03-28T09:00:36Z</time>
      </trkpt>
      <trkpt lat="42.80434" lon="0.45835">
        <ele>1735</ele>
        <time>2014-03-28T09:00:54Z</time>
      </trkpt>
      <trkpt lat="42.80433" lon="0.4584">
        <ele>1734</ele>
        <time>2014-03-28T09:01:05Z</time>
      </trkpt>
      <trkpt lat="42.80434" lon="0.45842">
        <ele>1734</ele>
        <time>2014-03-28T09:01:18Z</time>
      </trkpt>
      <trkpt lat="42.80435" lon="0.4585">
        <ele>1734</ele>
        <time>2014-03-28T09:01:36Z</time>
      </trkpt>
      <trkpt lat="42.80433" lon="0.45858">
        <ele>1735</ele>
        <time>2014-03-28T09:01:51Z</time>
      </trkpt>
      <trkpt lat="42.80433" lon="0.45864">
        <ele>1736</ele>
        <time>2014-03-28T09:02:04Z</time>
      </trkpt>
      <trkpt lat="42.80434" lon="0.45867">
        <ele>1738</ele>
        <time>2014-03-28T09:02:17Z</time>
      </trkpt>
      <trkpt lat="42.80436" lon="0.45876">
        <ele>1738</ele>
        <time>2014-03-28T09:02:32Z</time>
      </trkpt>
      <trkpt lat="42.80435" lon="0.45884">
        <ele>1740</ele>
        <time>2014-03-28T09:02:46Z</time>
      </trkpt>
      <trkpt lat="42.80434" lon="0.45889">
        <ele>1742</ele>
        <time>2014-03-28T09:03:02Z</time>
      </trkpt>
      <trkpt lat="42.80439" lon="0.45897">
        <ele>1743</ele>
        <time>2014-03-28T09:03:18Z</time>
      </trkpt>
      <trkpt lat="42.80442" lon="0.459">
        <ele>1744</ele>
        <time>2014-03-28T09:03:33Z</time>
      </trkpt>
      <trkpt lat="42.80445" lon="0.459">
        <ele>1745</ele>
        <time>2014-03-28T09:03:45Z</time>
      </trkpt>
      <trkpt lat="42.80449" lon="0.45899">
        <ele>1747</ele>
        <time>2014-03-28T09:03:59Z</time>
      </trkpt>
      <trkpt lat="42.80451" lon="0.45897">
        <ele>1749</ele>
        <time>2014-03-28T09:04:11Z</time>
      </trkpt>
      <trkpt lat="42.80454" lon="0.45894">
        <ele>1751</ele>
        <time>2014-03-28T09:04:26Z</time>
      </trkpt>
      <trkpt lat="42.80455" lon="0.4589">
        <ele>1753</ele>
        <time>2014-03-28T09:04:39Z</time>
      </trkpt>
      <trkpt lat="42.80456" lon="0.45888">
        <ele>1753</ele>
        <time>2014-03-28T09:04:48Z</time>
      </trkpt>
      <trkpt lat="42.80457" lon="0.45884">
        <ele>1754</ele>
        <time>2014-03-28T09:04:58Z</time>
      </trkpt>
      <trkpt lat="42.80458" lon="0.45876">
        <ele>1754</ele>
        <time>2014-03-28T09:05:10Z</time>
      </trkpt>
      <trkpt lat="42.80456" lon="0.45876">
        <ele>1754</ele>
        <time>2014-03-28T09:05:25Z</time>
      </trkpt>
      <trkpt lat="42.80457" lon="0.45875">
        <ele>1754</ele>
        <time>2014-03-28T09:05:39Z</time>
      </trkpt>
      <trkpt lat="42.80459" lon="0.4587">
        <ele>1754</ele>
        <time>2014-03-28T09:05:54Z</time>
      </trkpt>
      <trkpt lat="42.80462" lon="0.45858">
        <ele>1755</ele>
        <time>2014-03-28T09:06:09Z</time>
      </trkpt>
      <trkpt lat="42.80465" lon="0.45852">
        <ele>1755</ele>
        <time>2014-03-28T09:06:22Z</time>
      </trkpt>
      <trkpt lat="42.80467" lon="0.45853">
        <ele>1756</ele>
        <time>2014-03-28T09:06:36Z</time>
      </trkpt>
      <trkpt lat="42.80468" lon="0.45853">
        <ele>1755</ele>
        <time>2014-03-28T09:06:51Z</time>
      </trkpt>
      <trkpt lat="42.80469" lon="0.45852">
        <ele>1754</ele>
        <time>2014-03-28T09:07:27Z</time>
      </trkpt>
      <trkpt lat="42.8047" lon="0.45853">
        <ele>1754</ele>
        <time>2014-03-28T09:08:03Z</time>
      </trkpt>
      <trkpt lat="42.80471" lon="0.45852">
        <ele>1753</ele>
        <time>2014-03-28T09:08:52Z</time>
      </trkpt>
      <trkpt lat="42.80471" lon="0.45852">
        <ele>1753</ele>
        <time>2014-03-28T09:09:35Z</time>
      </trkpt>
      <trkpt lat="42.80471" lon="0.45852">
        <ele>1753</ele>
        <time>2014-03-28T09:10:18Z</time>
      </trkpt>
      <trkpt lat="42.8047" lon="0.45852">
        <ele>1754</ele>
        <time>2014-03-28T09:10:42Z</time>
      </trkpt>
      <trkpt lat="42.8047" lon="0.45851">
        <ele>1755</ele>
        <time>2014-03-28T09:11:27Z</time>
      </trkpt>
      <trkpt lat="42.8047" lon="0.45852">
        <ele>1754</ele>
        <time>2014-03-28T09:11:59Z</time>
      </trkpt>
      <trkpt lat="42.80471" lon="0.45852">
        <ele>1755</ele>
        <time>2014-03-28T09:12:40Z</time>
      </trkpt>
      <trkpt lat="42.80471" lon="0.45852">
        <ele>1754</ele>
        <time>2014-03-28T09:12:42Z</time>
      </trkpt>
      <trkpt lat="42.80471" lon="0.45851">
        <ele>1755</ele>
        <time>2014-03-28T09:13:21Z</time>
      </trkpt>
      <trkpt lat="42.80469" lon="0.45852">
        <ele>1755</ele>
        <time>2014-03-28T09:13:50Z</time>
      </trkpt>
      <trkpt lat="42.8047" lon="0.45851">
        <ele>1754</ele>
        <time>2014-03-28T09:14:30Z</time>
      </trkpt>
      <trkpt lat="42.80468" lon="0.45848">
        <ele>1754</ele>
        <time>2014-03-28T09:14:53Z</time>
      </trkpt>
      <trkpt lat="42.80468" lon="0.45849">
        <ele>1755</ele>
        <time>2014-03-28T09:15:10Z</time>
      </trkpt>
      <trkpt lat="42.80468" lon="0.45849">
        <ele>1755</ele>
        <time>2014-03-28T09:15:29Z</time>
      </trkpt>
      <trkpt lat="42.8047" lon="0.4585">
        <ele>1755</ele>
        <time>2014-03-28T09:15:42Z</time>
      </trkpt>
      <trkpt lat="42.80473" lon="0.45859">
        <ele>1756</ele>
        <time>2014-03-28T09:15:54Z</time>
      </trkpt>
      <trkpt lat="42.80476" lon="0.45866">
        <ele>1758</ele>
        <time>2014-03-28T09:16:04Z</time>
      </trkpt>
      <trkpt lat="42.80482" lon="0.45877">
        <ele>1759</ele>
        <time>2014-03-28T09:16:17Z</time>
      </trkpt>
      <trkpt lat="42.80484" lon="0.45885">
        <ele>1761</ele>
        <time>2014-03-28T09:16:29Z</time>
      </trkpt>
      <trkpt lat="42.8049" lon="0.45893">
        <ele>1763</ele>
        <time>2014-03-28T09:16:48Z</time>
      </trkpt>
      <trkpt lat="42.80496" lon="0.45898">
        <ele>1764</ele>
        <time>2014-03-28T09:16:59Z</time>
      </trkpt>
      <trkpt lat="42.805" lon="0.45903">
        <ele>1766</ele>
        <time>2014-03-28T09:17:09Z</time>
      </trkpt>
      <trkpt lat="42.80508" lon="0.45911">
        <ele>1767</ele>
        <time>2014-03-28T09:17:23Z</time>
      </trkpt>
      <trkpt lat="42.8051" lon="0.45912">
        <ele>1768</ele>
        <time>2014-03-28T09:17:27Z</time>
      </trkpt>
      <trkpt lat="42.80519" lon="0.45915">
        <ele>1769</ele>
        <time>2014-03-28T09:17:40Z</time>
      </trkpt>
      <trkpt lat="42.80525" lon="0.45918">
        <ele>1771</ele>
        <time>2014-03-28T09:17:54Z</time>
      </trkpt>
      <trkpt lat="42.8053" lon="0.4592">
        <ele>1773</ele>
        <time>2014-03-28T09:18:05Z</time>
      </trkpt>
      <trkpt lat="42.80534" lon="0.45922">
        <ele>1776</ele>
        <time>2014-03-28T09:18:15Z</time>
      </trkpt>
      <trkpt lat="42.80541" lon="0.45924">
        <ele>1777</ele>
        <time>2014-03-28T09:18:27Z</time>
      </trkpt>
      <trkpt lat="42.80546" lon="0.45926">
        <ele>1779</ele>
        <time>2014-03-28T09:18:41Z</time>
      </trkpt>
      <trkpt lat="42.80552" lon="0.45928">
        <ele>1781</ele>
        <time>2014-03-28T09:18:52Z</time>
      </trkpt>
      <trkpt lat="42.80555" lon="0.45927">
        <ele>1784</ele>
        <time>2014-03-28T09:19:06Z</time>
      </trkpt>
      <trkpt lat="42.80557" lon="0.45927">
        <ele>1786</ele>
        <time>2014-03-28T09:19:10Z</time>
      </trkpt>
      <trkpt lat="42.80562" lon="0.45926">
        <ele>1788</ele>
        <time>2014-03-28T09:19:23Z</time>
      </trkpt>
      <trkpt lat="42.80566" lon="0.45924">
        <ele>1790</ele>
        <time>2014-03-28T09:19:36Z</time>
      </trkpt>
      <trkpt lat="42.80568" lon="0.45923">
        <ele>1791</ele>
        <time>2014-03-28T09:19:39Z</time>
      </trkpt>
      <trkpt lat="42.80574" lon="0.45921">
        <ele>1793</ele>
        <time>2014-03-28T09:19:54Z</time>
      </trkpt>
      <trkpt lat="42.80577" lon="0.45918">
        <ele>1795</ele>
        <time>2014-03-28T09:20:05Z</time>
      </trkpt>
      <trkpt lat="42.80581" lon="0.4592">
        <ele>1796</ele>
        <time>2014-03-28T09:20:16Z</time>
      </trkpt>
      <trkpt lat="42.80588" lon="0.45922">
        <ele>1797</ele>
        <time>2014-03-28T09:20:30Z</time>
      </trkpt>
      <trkpt lat="42.80595" lon="0.4592">
        <ele>1801</ele>
        <time>2014-03-28T09:20:38Z</time>
      </trkpt>
      <trkpt lat="42.80597" lon="0.45919">
        <ele>1798</ele>
        <time>2014-03-28T09:20:40Z</time>
      </trkpt>
      <trkpt lat="42.80602" lon="0.45917">
        <ele>1798</ele>
        <time>2014-03-28T09:20:46Z</time>
      </trkpt>
      <trkpt lat="42.80604" lon="0.45916">
        <ele>1798</ele>
        <time>2014-03-28T09:20:48Z</time>
      </trkpt>
      <trkpt lat="42.80611" lon="0.45915">
        <ele>1798</ele>
        <time>2014-03-28T09:20:57Z</time>
      </trkpt>
      <trkpt lat="42.80623" lon="0.4591">
        <ele>1797</ele>
        <time>2014-03-28T09:21:11Z</time>
      </trkpt>
      <trkpt lat="42.80632" lon="0.45908">
        <ele>1798</ele>
        <time>2014-03-28T09:21:24Z</time>
      </trkpt>
      <trkpt lat="42.80633" lon="0.45907">
        <ele>1798</ele>
        <time>2014-03-28T09:21:25Z</time>
      </trkpt>
      <trkpt lat="42.80644" lon="0.45906">
        <ele>1797</ele>
        <time>2014-03-28T09:21:38Z</time>
      </trkpt>
      <trkpt lat="42.80645" lon="0.45906">
        <ele>1797</ele>
        <time>2014-03-28T09:21:40Z</time>
      </trkpt>
      <trkpt lat="42.80654" lon="0.45904">
        <ele>1797</ele>
        <time>2014-03-28T09:21:53Z</time>
      </trkpt>
      <trkpt lat="42.80656" lon="0.45903">
        <ele>1797</ele>
        <time>2014-03-28T09:22:05Z</time>
      </trkpt>
      <trkpt lat="42.80662" lon="0.45901">
        <ele>1799</ele>
        <time>2014-03-28T09:22:27Z</time>
      </trkpt>
      <trkpt lat="42.80669" lon="0.45897">
        <ele>1801</ele>
        <time>2014-03-28T09:22:40Z</time>
      </trkpt>
      <trkpt lat="42.80674" lon="0.45894">
        <ele>1802</ele>
        <time>2014-03-28T09:22:52Z</time>
      </trkpt>
      <trkpt lat="42.80678" lon="0.45889">
        <ele>1805</ele>
        <time>2014-03-28T09:23:01Z</time>
      </trkpt>
      <trkpt lat="42.80685" lon="0.45884">
        <ele>1806</ele>
        <time>2014-03-28T09:23:12Z</time>
      </trkpt>
      <trkpt lat="42.80687" lon="0.45882">
        <ele>1807</ele>
        <time>2014-03-28T09:23:16Z</time>
      </trkpt>
      <trkpt lat="42.80696" lon="0.45873">
        <ele>1809</ele>
        <time>2014-03-28T09:23:30Z</time>
      </trkpt>
      <trkpt lat="42.80698" lon="0.45867">
        <ele>1808</ele>
        <time>2014-03-28T09:23:36Z</time>
      </trkpt>
      <trkpt lat="42.80706" lon="0.45855">
        <ele>1807</ele>
        <time>2014-03-28T09:23:53Z</time>
      </trkpt>
      <trkpt lat="42.80709" lon="0.45848">
        <ele>1805</ele>
        <time>2014-03-28T09:24:06Z</time>
      </trkpt>
      <trkpt lat="42.80714" lon="0.45838">
        <ele>1804</ele>
        <time>2014-03-28T09:24:18Z</time>
      </trkpt>
      <trkpt lat="42.80718" lon="0.45828">
        <ele>1801</ele>
        <time>2014-03-28T09:24:33Z</time>
      </trkpt>
      <trkpt lat="42.80722" lon="0.4582">
        <ele>1798</ele>
        <time>2014-03-28T09:24:45Z</time>
      </trkpt>
      <trkpt lat="42.80727" lon="0.45814">
        <ele>1796</ele>
        <time>2014-03-28T09:24:54Z</time>
      </trkpt>
      <trkpt lat="42.80728" lon="0.45812">
        <ele>1794</ele>
        <time>2014-03-28T09:24:58Z</time>
      </trkpt>
      <trkpt lat="42.80734" lon="0.45806">
        <ele>1792</ele>
        <time>2014-03-28T09:25:12Z</time>
      </trkpt>
      <trkpt lat="42.8074" lon="0.45799">
        <ele>1789</ele>
        <time>2014-03-28T09:25:28Z</time>
      </trkpt>
      <trkpt lat="42.80744" lon="0.45798">
        <ele>1785</ele>
        <time>2014-03-28T09:25:35Z</time>
      </trkpt>
      <trkpt lat="42.80745" lon="0.45798">
        <ele>1785</ele>
        <time>2014-03-28T09:25:36Z</time>
      </trkpt>
      <trkpt lat="42.80749" lon="0.45799">
        <ele>1783</ele>
        <time>2014-03-28T09:25:49Z</time>
      </trkpt>
      <trkpt lat="42.80753" lon="0.45794">
        <ele>1780</ele>
        <time>2014-03-28T09:26:02Z</time>
      </trkpt>
      <trkpt lat="42.80759" lon="0.45789">
        <ele>1778</ele>
        <time>2014-03-28T09:26:12Z</time>
      </trkpt>
      <trkpt lat="42.80769" lon="0.45783">
        <ele>1776</ele>
        <time>2014-03-28T09:26:25Z</time>
      </trkpt>
      <trkpt lat="42.80781" lon="0.45777">
        <ele>1775</ele>
        <time>2014-03-28T09:26:39Z</time>
      </trkpt>
      <trkpt lat="42.80791" lon="0.45771">
        <ele>1774</ele>
        <time>2014-03-28T09:26:52Z</time>
      </trkpt>
      <trkpt lat="42.80799" lon="0.45766">
        <ele>1774</ele>
        <time>2014-03-28T09:27:03Z</time>
      </trkpt>
      <trkpt lat="42.80807" lon="0.45761">
        <ele>1777</ele>
        <time>2014-03-28T09:27:18Z</time>
      </trkpt>
      <trkpt lat="42.80813" lon="0.45756">
        <ele>1778</ele>
        <time>2014-03-28T09:27:29Z</time>
      </trkpt>
      <trkpt lat="42.80819" lon="0.45753">
        <ele>1780</ele>
        <time>2014-03-28T09:27:42Z</time>
      </trkpt>
      <trkpt lat="42.80824" lon="0.45751">
        <ele>1782</ele>
        <time>2014-03-28T09:27:53Z</time>
      </trkpt>
      <trkpt lat="42.80828" lon="0.45747">
        <ele>1784</ele>
        <time>2014-03-28T09:28:05Z</time>
      </trkpt>
      <trkpt lat="42.80833" lon="0.45742">
        <ele>1785</ele>
        <time>2014-03-28T09:28:17Z</time>
      </trkpt>
      <trkpt lat="42.80839" lon="0.45737">
        <ele>1787</ele>
        <time>2014-03-28T09:28:29Z</time>
      </trkpt>
      <trkpt lat="42.80843" lon="0.45732">
        <ele>1788</ele>
        <time>2014-03-28T09:28:39Z</time>
      </trkpt>
      <trkpt lat="42.80848" lon="0.45726">
        <ele>1790</ele>
        <time>2014-03-28T09:28:51Z</time>
      </trkpt>
      <trkpt lat="42.80854" lon="0.45721">
        <ele>1792</ele>
        <time>2014-03-28T09:29:04Z</time>
      </trkpt>
      <trkpt lat="42.80859" lon="0.45717">
        <ele>1793</ele>
        <time>2014-03-28T09:29:17Z</time>
      </trkpt>
      <trkpt lat="42.80863" lon="0.45714">
        <ele>1794</ele>
        <time>2014-03-28T09:29:25Z</time>
      </trkpt>
      <trkpt lat="42.80866" lon="0.45711">
        <ele>1796</ele>
        <time>2014-03-28T09:29:36Z</time>
      </trkpt>
      <trkpt lat="42.80871" lon="0.45708">
        <ele>1798</ele>
        <time>2014-03-28T09:29:50Z</time>
      </trkpt>
      <trkpt lat="42.80875" lon="0.45705">
        <ele>1800</ele>
        <time>2014-03-28T09:30:03Z</time>
      </trkpt>
      <trkpt lat="42.80877" lon="0.45701">
        <ele>1803</ele>
        <time>2014-03-28T09:30:16Z</time>
      </trkpt>
      <trkpt lat="42.80881" lon="0.45698">
        <ele>1805</ele>
        <time>2014-03-28T09:30:27Z</time>
      </trkpt>
      <trkpt lat="42.80884" lon="0.45695">
        <ele>1807</ele>
        <time>2014-03-28T09:30:42Z</time>
      </trkpt>
      <trkpt lat="42.80889" lon="0.45692">
        <ele>1808</ele>
        <time>2014-03-28T09:30:54Z</time>
      </trkpt>
      <trkpt lat="42.80892" lon="0.45689">
        <ele>1810</ele>
        <time>2014-03-28T09:31:05Z</time>
      </trkpt>
      <trkpt lat="42.80896" lon="0.45686">
        <ele>1812</ele>
        <time>2014-03-28T09:31:18Z</time>
      </trkpt>
      <trkpt lat="42.80898" lon="0.45684">
        <ele>1815</ele>
        <time>2014-03-28T09:31:29Z</time>
      </trkpt>
      <trkpt lat="42.80901" lon="0.45681">
        <ele>1817</ele>
        <time>2014-03-28T09:31:40Z</time>
      </trkpt>
      <trkpt lat="42.80906" lon="0.45679">
        <ele>1818</ele>
        <time>2014-03-28T09:31:52Z</time>
      </trkpt>
      <trkpt lat="42.8091" lon="0.45677">
        <ele>1819</ele>
        <time>2014-03-28T09:32:03Z</time>
      </trkpt>
      <trkpt lat="42.80916" lon="0.45674">
        <ele>1822</ele>
        <time>2014-03-28T09:32:16Z</time>
      </trkpt>
      <trkpt lat="42.80918" lon="0.45673">
        <ele>1823</ele>
        <time>2014-03-28T09:32:28Z</time>
      </trkpt>
      <trkpt lat="42.80918" lon="0.45671">
        <ele>1823</ele>
        <time>2014-03-28T09:32:55Z</time>
      </trkpt>
      <trkpt lat="42.80922" lon="0.45672">
        <ele>1824</ele>
        <time>2014-03-28T09:33:10Z</time>
      </trkpt>
      <trkpt lat="42.80928" lon="0.45673">
        <ele>1827</ele>
        <time>2014-03-28T09:33:23Z</time>
      </trkpt>
      <trkpt lat="42.80933" lon="0.45673">
        <ele>1829</ele>
        <time>2014-03-28T09:33:36Z</time>
      </trkpt>
      <trkpt lat="42.80939" lon="0.45671">
        <ele>1830</ele>
        <time>2014-03-28T09:33:49Z</time>
      </trkpt>
      <trkpt lat="42.80944" lon="0.4567">
        <ele>1833</ele>
        <time>2014-03-28T09:34:03Z</time>
      </trkpt>
      <trkpt lat="42.8095" lon="0.45669">
        <ele>1835</ele>
        <time>2014-03-28T09:34:17Z</time>
      </trkpt>
      <trkpt lat="42.80956" lon="0.45669">
        <ele>1837</ele>
        <time>2014-03-28T09:34:29Z</time>
      </trkpt>
      <trkpt lat="42.80961" lon="0.45669">
        <ele>1839</ele>
        <time>2014-03-28T09:34:42Z</time>
      </trkpt>
      <trkpt lat="42.80967" lon="0.45666">
        <ele>1841</ele>
        <time>2014-03-28T09:34:55Z</time>
      </trkpt>
      <trkpt lat="42.80971" lon="0.45663">
        <ele>1843</ele>
        <time>2014-03-28T09:35:08Z</time>
      </trkpt>
      <trkpt lat="42.80976" lon="0.45662">
        <ele>1845</ele>
        <time>2014-03-28T09:35:21Z</time>
      </trkpt>
      <trkpt lat="42.80979" lon="0.45661">
        <ele>1847</ele>
        <time>2014-03-28T09:35:33Z</time>
      </trkpt>
      <trkpt lat="42.80984" lon="0.45659">
        <ele>1848</ele>
        <time>2014-03-28T09:35:45Z</time>
      </trkpt>
      <trkpt lat="42.80989" lon="0.45656">
        <ele>1850</ele>
        <time>2014-03-28T09:35:56Z</time>
      </trkpt>
      <trkpt lat="42.80996" lon="0.45652">
        <ele>1853</ele>
        <time>2014-03-28T09:36:09Z</time>
      </trkpt>
      <trkpt lat="42.80997" lon="0.4565">
        <ele>1852</ele>
        <time>2014-03-28T09:36:21Z</time>
      </trkpt>
      <trkpt lat="42.81003" lon="0.45644">
        <ele>1853</ele>
        <time>2014-03-28T09:36:34Z</time>
      </trkpt>
      <trkpt lat="42.81004" lon="0.45644">
        <ele>1853</ele>
        <time>2014-03-28T09:36:49Z</time>
      </trkpt>
      <trkpt lat="42.81005" lon="0.45644">
        <ele>1853</ele>
        <time>2014-03-28T09:37:15Z</time>
      </trkpt>
      <trkpt lat="42.81004" lon="0.45643">
        <ele>1853</ele>
        <time>2014-03-28T09:37:37Z</time>
      </trkpt>
      <trkpt lat="42.81004" lon="0.45643">
        <ele>1853</ele>
        <time>2014-03-28T09:38:04Z</time>
      </trkpt>
      <trkpt lat="42.81005" lon="0.45643">
        <ele>1854</ele>
        <time>2014-03-28T09:38:24Z</time>
      </trkpt>
      <trkpt lat="42.81007" lon="0.45645">
        <ele>1854</ele>
        <time>2014-03-28T09:38:53Z</time>
      </trkpt>
      <trkpt lat="42.81007" lon="0.45645">
        <ele>1855</ele>
        <time>2014-03-28T09:39:22Z</time>
      </trkpt>
      <trkpt lat="42.81004" lon="0.45643">
        <ele>1854</ele>
        <time>2014-03-28T09:39:44Z</time>
      </trkpt>
      <trkpt lat="42.81003" lon="0.45643">
        <ele>1855</ele>
        <time>2014-03-28T09:40:07Z</time>
      </trkpt>
      <trkpt lat="42.81006" lon="0.45643">
        <ele>1854</ele>
        <time>2014-03-28T09:40:24Z</time>
      </trkpt>
      <trkpt lat="42.81013" lon="0.45635">
        <ele>1852</ele>
        <time>2014-03-28T09:40:35Z</time>
      </trkpt>
      <trkpt lat="42.8102" lon="0.45629">
        <ele>1851</ele>
        <time>2014-03-28T09:40:47Z</time>
      </trkpt>
      <trkpt lat="42.81026" lon="0.45622">
        <ele>1849</ele>
        <time>2014-03-28T09:40:59Z</time>
      </trkpt>
      <trkpt lat="42.81029" lon="0.4562">
        <ele>1847</ele>
        <time>2014-03-28T09:41:11Z</time>
      </trkpt>
      <trkpt lat="42.8103" lon="0.45621">
        <ele>1847</ele>
        <time>2014-03-28T09:41:21Z</time>
      </trkpt>
      <trkpt lat="42.8103" lon="0.45621">
        <ele>1847</ele>
        <time>2014-03-28T09:41:23Z</time>
      </trkpt>
      <trkpt lat="42.81034" lon="0.45617">
        <ele>1846</ele>
        <time>2014-03-28T09:41:33Z</time>
      </trkpt>
      <trkpt lat="42.81038" lon="0.45613">
        <ele>1845</ele>
        <time>2014-03-28T09:41:44Z</time>
      </trkpt>
      <trkpt lat="42.81044" lon="0.45607">
        <ele>1842</ele>
        <time>2014-03-28T09:41:55Z</time>
      </trkpt>
      <trkpt lat="42.81051" lon="0.45603">
        <ele>1839</ele>
        <time>2014-03-28T09:42:06Z</time>
      </trkpt>
      <trkpt lat="42.81054" lon="0.456">
        <ele>1837</ele>
        <time>2014-03-28T09:42:11Z</time>
      </trkpt>
      <trkpt lat="42.8106" lon="0.45598">
        <ele>1834</ele>
        <time>2014-03-28T09:42:20Z</time>
      </trkpt>
      <trkpt lat="42.81066" lon="0.45593">
        <ele>1830</ele>
        <time>2014-03-28T09:42:31Z</time>
      </trkpt>
      <trkpt lat="42.81072" lon="0.45589">
        <ele>1828</ele>
        <time>2014-03-28T09:42:40Z</time>
      </trkpt>
      <trkpt lat="42.81078" lon="0.45591">
        <ele>1824</ele>
        <time>2014-03-28T09:42:50Z</time>
      </trkpt>
      <trkpt lat="42.81079" lon="0.45592">
        <ele>1824</ele>
        <time>2014-03-28T09:42:51Z</time>
      </trkpt>
      <trkpt lat="42.81089" lon="0.45594">
        <ele>1821</ele>
        <time>2014-03-28T09:43:04Z</time>
      </trkpt>
      <trkpt lat="42.81099" lon="0.45597">
        <ele>1819</ele>
        <time>2014-03-28T09:43:17Z</time>
      </trkpt>
      <trkpt lat="42.811" lon="0.45597">
        <ele>1819</ele>
        <time>2014-03-28T09:43:18Z</time>
      </trkpt>
      <trkpt lat="42.81105" lon="0.45599">
        <ele>1816</ele>
        <time>2014-03-28T09:43:26Z</time>
      </trkpt>
      <trkpt lat="42.81113" lon="0.45602">
        <ele>1814</ele>
        <time>2014-03-28T09:43:36Z</time>
      </trkpt>
      <trkpt lat="42.81124" lon="0.45607">
        <ele>1813</ele>
        <time>2014-03-28T09:43:48Z</time>
      </trkpt>
      <trkpt lat="42.81134" lon="0.45609">
        <ele>1811</ele>
        <time>2014-03-28T09:43:59Z</time>
      </trkpt>
      <trkpt lat="42.81135" lon="0.45609">
        <ele>1811</ele>
        <time>2014-03-28T09:44:00Z</time>
      </trkpt>
      <trkpt lat="42.8114" lon="0.45608">
        <ele>1811</ele>
        <time>2014-03-28T09:44:06Z</time>
      </trkpt>
      <trkpt lat="42.81143" lon="0.45608">
        <ele>1811</ele>
        <time>2014-03-28T09:44:09Z</time>
      </trkpt>
      <trkpt lat="42.81155" lon="0.45605">
        <ele>1809</ele>
        <time>2014-03-28T09:44:22Z</time>
      </trkpt>
      <trkpt lat="42.81157" lon="0.45605">
        <ele>1808</ele>
        <time>2014-03-28T09:44:24Z</time>
      </trkpt>
      <trkpt lat="42.81167" lon="0.45601">
        <ele>1808</ele>
        <time>2014-03-28T09:44:37Z</time>
      </trkpt>
      <trkpt lat="42.81175" lon="0.45598">
        <ele>1809</ele>
        <time>2014-03-28T09:44:45Z</time>
      </trkpt>
      <trkpt lat="42.81183" lon="0.45596">
        <ele>1808</ele>
        <time>2014-03-28T09:44:54Z</time>
      </trkpt>
      <trkpt lat="42.81192" lon="0.45594">
        <ele>1809</ele>
        <time>2014-03-28T09:45:06Z</time>
      </trkpt>
      <trkpt lat="42.81193" lon="0.45592">
        <ele>1810</ele>
        <time>2014-03-28T09:45:19Z</time>
      </trkpt>
      <trkpt lat="42.81193" lon="0.45592">
        <ele>1810</ele>
        <time>2014-03-28T09:45:28Z</time>
      </trkpt>
      <trkpt lat="42.81193" lon="0.45591">
        <ele>1810</ele>
        <time>2014-03-28T09:45:30Z</time>
      </trkpt>
      <trkpt lat="42.81193" lon="0.45594">
        <ele>1811</ele>
        <time>2014-03-28T09:45:40Z</time>
      </trkpt>
      <trkpt lat="42.81194" lon="0.45592">
        <ele>1811</ele>
        <time>2014-03-28T09:45:42Z</time>
      </trkpt>
      <trkpt lat="42.81203" lon="0.45591">
        <ele>1812</ele>
        <time>2014-03-28T09:45:55Z</time>
      </trkpt>
      <trkpt lat="42.81208" lon="0.45589">
        <ele>1816</ele>
        <time>2014-03-28T09:46:07Z</time>
      </trkpt>
      <trkpt lat="42.81215" lon="0.45587">
        <ele>1817</ele>
        <time>2014-03-28T09:46:22Z</time>
      </trkpt>
      <trkpt lat="42.81221" lon="0.45585">
        <ele>1819</ele>
        <time>2014-03-28T09:46:34Z</time>
      </trkpt>
      <trkpt lat="42.81227" lon="0.45582">
        <ele>1821</ele>
        <time>2014-03-28T09:46:45Z</time>
      </trkpt>
      <trkpt lat="42.81233" lon="0.45581">
        <ele>1822</ele>
        <time>2014-03-28T09:46:58Z</time>
      </trkpt>
      <trkpt lat="42.81241" lon="0.45578">
        <ele>1824</ele>
        <time>2014-03-28T09:47:12Z</time>
      </trkpt>
      <trkpt lat="42.81242" lon="0.45578">
        <ele>1825</ele>
        <time>2014-03-28T09:47:15Z</time>
      </trkpt>
      <trkpt lat="42.81248" lon="0.45577">
        <ele>1827</ele>
        <time>2014-03-28T09:47:26Z</time>
      </trkpt>
      <trkpt lat="42.81253" lon="0.45575">
        <ele>1829</ele>
        <time>2014-03-28T09:47:37Z</time>
      </trkpt>
      <trkpt lat="42.8126" lon="0.45572">
        <ele>1829</ele>
        <time>2014-03-28T09:47:51Z</time>
      </trkpt>
      <trkpt lat="42.81265" lon="0.4557">
        <ele>1831</ele>
        <time>2014-03-28T09:48:03Z</time>
      </trkpt>
      <trkpt lat="42.81273" lon="0.45567">
        <ele>1832</ele>
        <time>2014-03-28T09:48:15Z</time>
      </trkpt>
      <trkpt lat="42.81278" lon="0.45566">
        <ele>1834</ele>
        <time>2014-03-28T09:48:26Z</time>
      </trkpt>
      <trkpt lat="42.81287" lon="0.45563">
        <ele>1836</ele>
        <time>2014-03-28T09:48:43Z</time>
      </trkpt>
      <trkpt lat="42.81293" lon="0.45561">
        <ele>1837</ele>
        <time>2014-03-28T09:48:54Z</time>
      </trkpt>
      <trkpt lat="42.81294" lon="0.45561">
        <ele>1836</ele>
        <time>2014-03-28T09:48:55Z</time>
      </trkpt>
      <trkpt lat="42.81302" lon="0.45561">
        <ele>1837</ele>
        <time>2014-03-28T09:49:08Z</time>
      </trkpt>
      <trkpt lat="42.8131" lon="0.4556">
        <ele>1839</ele>
        <time>2014-03-28T09:49:21Z</time>
      </trkpt>
      <trkpt lat="42.81317" lon="0.45561">
        <ele>1841</ele>
        <time>2014-03-28T09:49:34Z</time>
      </trkpt>
      <trkpt lat="42.8132" lon="0.45563">
        <ele>1843</ele>
        <time>2014-03-28T09:49:47Z</time>
      </trkpt>
      <trkpt lat="42.81324" lon="0.45563">
        <ele>1844</ele>
        <time>2014-03-28T09:49:58Z</time>
      </trkpt>
      <trkpt lat="42.81327" lon="0.45565">
        <ele>1847</ele>
        <time>2014-03-28T09:50:09Z</time>
      </trkpt>
      <trkpt lat="42.81331" lon="0.45567">
        <ele>1849</ele>
        <time>2014-03-28T09:50:20Z</time>
      </trkpt>
      <trkpt lat="42.81334" lon="0.45568">
        <ele>1851</ele>
        <time>2014-03-28T09:50:32Z</time>
      </trkpt>
      <trkpt lat="42.81337" lon="0.4557">
        <ele>1853</ele>
        <time>2014-03-28T09:50:44Z</time>
      </trkpt>
      <trkpt lat="42.81342" lon="0.45571">
        <ele>1855</ele>
        <time>2014-03-28T09:50:56Z</time>
      </trkpt>
      <trkpt lat="42.8134" lon="0.45569">
        <ele>1853</ele>
        <time>2014-03-28T09:51:08Z</time>
      </trkpt>
      <trkpt lat="42.8134" lon="0.45568">
        <ele>1854</ele>
        <time>2014-03-28T09:51:37Z</time>
      </trkpt>
      <trkpt lat="42.81344" lon="0.4557">
        <ele>1855</ele>
        <time>2014-03-28T09:51:47Z</time>
      </trkpt>
      <trkpt lat="42.8135" lon="0.45569">
        <ele>1857</ele>
        <time>2014-03-28T09:52:01Z</time>
      </trkpt>
      <trkpt lat="42.81355" lon="0.45569">
        <ele>1859</ele>
        <time>2014-03-28T09:52:13Z</time>
      </trkpt>
      <trkpt lat="42.81359" lon="0.45568">
        <ele>1860</ele>
        <time>2014-03-28T09:52:28Z</time>
      </trkpt>
      <trkpt lat="42.81364" lon="0.4557">
        <ele>1863</ele>
        <time>2014-03-28T09:52:40Z</time>
      </trkpt>
      <trkpt lat="42.8137" lon="0.45572">
        <ele>1864</ele>
        <time>2014-03-28T09:52:53Z</time>
      </trkpt>
      <trkpt lat="42.81378" lon="0.45574">
        <ele>1865</ele>
        <time>2014-03-28T09:53:02Z</time>
      </trkpt>
      <trkpt lat="42.81382" lon="0.45576">
        <ele>1866</ele>
        <time>2014-03-28T09:53:16Z</time>
      </trkpt>
      <trkpt lat="42.81383" lon="0.4558">
        <ele>1866</ele>
        <time>2014-03-28T09:53:35Z</time>
      </trkpt>
      <trkpt lat="42.81383" lon="0.45578">
        <ele>1866</ele>
        <time>2014-03-28T09:53:52Z</time>
      </trkpt>
      <trkpt lat="42.81384" lon="0.45578">
        <ele>1866</ele>
        <time>2014-03-28T09:54:25Z</time>
      </trkpt>
      <trkpt lat="42.81384" lon="0.45578">
        <ele>1865</ele>
        <time>2014-03-28T09:54:53Z</time>
      </trkpt>
      <trkpt lat="42.81383" lon="0.45578">
        <ele>1866</ele>
        <time>2014-03-28T09:55:15Z</time>
      </trkpt>
      <trkpt lat="42.81388" lon="0.45581">
        <ele>1866</ele>
        <time>2014-03-28T09:55:30Z</time>
      </trkpt>
      <trkpt lat="42.81398" lon="0.45588">
        <ele>1867</ele>
        <time>2014-03-28T09:55:44Z</time>
      </trkpt>
      <trkpt lat="42.81402" lon="0.4559">
        <ele>1867</ele>
        <time>2014-03-28T09:55:49Z</time>
      </trkpt>
      <trkpt lat="42.81406" lon="0.45591">
        <ele>1867</ele>
        <time>2014-03-28T09:55:53Z</time>
      </trkpt>
      <trkpt lat="42.81414" lon="0.45597">
        <ele>1867</ele>
        <time>2014-03-28T09:56:07Z</time>
      </trkpt>
      <trkpt lat="42.81423" lon="0.45603">
        <ele>1869</ele>
        <time>2014-03-28T09:56:20Z</time>
      </trkpt>
      <trkpt lat="42.81431" lon="0.45608">
        <ele>1870</ele>
        <time>2014-03-28T09:56:34Z</time>
      </trkpt>
      <trkpt lat="42.81441" lon="0.45611">
        <ele>1871</ele>
        <time>2014-03-28T09:56:48Z</time>
      </trkpt>
      <trkpt lat="42.81446" lon="0.45613">
        <ele>1873</ele>
        <time>2014-03-28T09:56:59Z</time>
      </trkpt>
      <trkpt lat="42.81454" lon="0.45615">
        <ele>1874</ele>
        <time>2014-03-28T09:57:10Z</time>
      </trkpt>
      <trkpt lat="42.81465" lon="0.45617">
        <ele>1876</ele>
        <time>2014-03-28T09:57:23Z</time>
      </trkpt>
      <trkpt lat="42.81471" lon="0.45618">
        <ele>1877</ele>
        <time>2014-03-28T09:57:34Z</time>
      </trkpt>
      <trkpt lat="42.81477" lon="0.4562">
        <ele>1879</ele>
        <time>2014-03-28T09:57:48Z</time>
      </trkpt>
      <trkpt lat="42.81483" lon="0.4562">
        <ele>1881</ele>
        <time>2014-03-28T09:57:59Z</time>
      </trkpt>
      <trkpt lat="42.81489" lon="0.4562">
        <ele>1882</ele>
        <time>2014-03-28T09:58:10Z</time>
      </trkpt>
      <trkpt lat="42.815" lon="0.45621">
        <ele>1885</ele>
        <time>2014-03-28T09:58:27Z</time>
      </trkpt>
      <trkpt lat="42.81507" lon="0.4562">
        <ele>1887</ele>
        <time>2014-03-28T09:58:39Z</time>
      </trkpt>
      <trkpt lat="42.81513" lon="0.45617">
        <ele>1888</ele>
        <time>2014-03-28T09:58:49Z</time>
      </trkpt>
      <trkpt lat="42.81519" lon="0.45614">
        <ele>1890</ele>
        <time>2014-03-28T09:59:00Z</time>
      </trkpt>
      <trkpt lat="42.8152" lon="0.45613">
        <ele>1891</ele>
        <time>2014-03-28T09:59:02Z</time>
      </trkpt>
      <trkpt lat="42.81522" lon="0.45611">
        <ele>1891</ele>
        <time>2014-03-28T09:59:06Z</time>
      </trkpt>
      <trkpt lat="42.81531" lon="0.4561">
        <ele>1891</ele>
        <time>2014-03-28T09:59:21Z</time>
      </trkpt>
      <trkpt lat="42.81541" lon="0.4561">
        <ele>1892</ele>
        <time>2014-03-28T09:59:35Z</time>
      </trkpt>
      <trkpt lat="42.81544" lon="0.4561">
        <ele>1892</ele>
        <time>2014-03-28T09:59:39Z</time>
      </trkpt>
      <trkpt lat="42.81554" lon="0.45609">
        <ele>1894</ele>
        <time>2014-03-28T09:59:52Z</time>
      </trkpt>
      <trkpt lat="42.8156" lon="0.45606">
        <ele>1894</ele>
        <time>2014-03-28T10:00:02Z</time>
      </trkpt>
      <trkpt lat="42.81566" lon="0.45605">
        <ele>1894</ele>
        <time>2014-03-28T10:00:09Z</time>
      </trkpt>
      <trkpt lat="42.8158" lon="0.45604">
        <ele>1894</ele>
        <time>2014-03-28T10:00:25Z</time>
      </trkpt>
      <trkpt lat="42.81588" lon="0.45602">
        <ele>1894</ele>
        <time>2014-03-28T10:00:37Z</time>
      </trkpt>
      <trkpt lat="42.81596" lon="0.45602">
        <ele>1896</ele>
        <time>2014-03-28T10:00:50Z</time>
      </trkpt>
      <trkpt lat="42.81601" lon="0.45603">
        <ele>1896</ele>
        <time>2014-03-28T10:00:57Z</time>
      </trkpt>
      <trkpt lat="42.8161" lon="0.45604">
        <ele>1898</ele>
        <time>2014-03-28T10:01:12Z</time>
      </trkpt>
      <trkpt lat="42.8162" lon="0.45605">
        <ele>1900</ele>
        <time>2014-03-28T10:01:28Z</time>
      </trkpt>
      <trkpt lat="42.81623" lon="0.45603">
        <ele>1899</ele>
        <time>2014-03-28T10:01:40Z</time>
      </trkpt>
      <trkpt lat="42.81622" lon="0.45603">
        <ele>1899</ele>
        <time>2014-03-28T10:01:52Z</time>
      </trkpt>
      <trkpt lat="42.81624" lon="0.45605">
        <ele>1899</ele>
        <time>2014-03-28T10:02:01Z</time>
      </trkpt>
      <trkpt lat="42.8163" lon="0.45608">
        <ele>1901</ele>
        <time>2014-03-28T10:02:13Z</time>
      </trkpt>
      <trkpt lat="42.81638" lon="0.45607">
        <ele>1902</ele>
        <time>2014-03-28T10:02:27Z</time>
      </trkpt>
      <trkpt lat="42.81642" lon="0.45605">
        <ele>1903</ele>
        <time>2014-03-28T10:02:34Z</time>
      </trkpt>
      <trkpt lat="42.8165" lon="0.45602">
        <ele>1904</ele>
        <time>2014-03-28T10:02:46Z</time>
      </trkpt>
      <trkpt lat="42.81656" lon="0.45599">
        <ele>1906</ele>
        <time>2014-03-28T10:02:58Z</time>
      </trkpt>
      <trkpt lat="42.81663" lon="0.45597">
        <ele>1909</ele>
        <time>2014-03-28T10:03:11Z</time>
      </trkpt>
      <trkpt lat="42.8167" lon="0.45594">
        <ele>1911</ele>
        <time>2014-03-28T10:03:25Z</time>
      </trkpt>
      <trkpt lat="42.81677" lon="0.45591">
        <ele>1912</ele>
        <time>2014-03-28T10:03:38Z</time>
      </trkpt>
      <trkpt lat="42.81683" lon="0.45587">
        <ele>1911</ele>
        <time>2014-03-28T10:03:51Z</time>
      </trkpt>
      <trkpt lat="42.81685" lon="0.45582">
        <ele>1913</ele>
        <time>2014-03-28T10:04:06Z</time>
      </trkpt>
      <trkpt lat="42.81686" lon="0.45578">
        <ele>1913</ele>
        <time>2014-03-28T10:04:14Z</time>
      </trkpt>
      <trkpt lat="42.81687" lon="0.45576">
        <ele>1914</ele>
        <time>2014-03-28T10:04:16Z</time>
      </trkpt>
      <trkpt lat="42.81689" lon="0.45568">
        <ele>1914</ele>
        <time>2014-03-28T10:04:26Z</time>
      </trkpt>
      <trkpt lat="42.81691" lon="0.45554">
        <ele>1915</ele>
        <time>2014-03-28T10:04:38Z</time>
      </trkpt>
      <trkpt lat="42.81693" lon="0.45541">
        <ele>1915</ele>
        <time>2014-03-28T10:04:50Z</time>
      </trkpt>
      <trkpt lat="42.81694" lon="0.4554">
        <ele>1916</ele>
        <time>2014-03-28T10:04:51Z</time>
      </trkpt>
      <trkpt lat="42.81695" lon="0.45532">
        <ele>1915</ele>
        <time>2014-03-28T10:05:04Z</time>
      </trkpt>
      <trkpt lat="42.81694" lon="0.45531">
        <ele>1914</ele>
        <time>2014-03-28T10:05:14Z</time>
      </trkpt>
      <trkpt lat="42.81695" lon="0.4553">
        <ele>1915</ele>
        <time>2014-03-28T10:05:21Z</time>
      </trkpt>
      <trkpt lat="42.81696" lon="0.45527">
        <ele>1915</ele>
        <time>2014-03-28T10:05:37Z</time>
      </trkpt>
      <trkpt lat="42.81696" lon="0.45524">
        <ele>1915</ele>
        <time>2014-03-28T10:05:47Z</time>
      </trkpt>
      <trkpt lat="42.817" lon="0.45522">
        <ele>1912</ele>
        <time>2014-03-28T10:06:01Z</time>
      </trkpt>
      <trkpt lat="42.81705" lon="0.45523">
        <ele>1910</ele>
        <time>2014-03-28T10:06:12Z</time>
      </trkpt>
      <trkpt lat="42.8171" lon="0.45527">
        <ele>1906</ele>
        <time>2014-03-28T10:06:23Z</time>
      </trkpt>
      <trkpt lat="42.81713" lon="0.45534">
        <ele>1904</ele>
        <time>2014-03-28T10:06:34Z</time>
      </trkpt>
      <trkpt lat="42.81715" lon="0.45536">
        <ele>1902</ele>
        <time>2014-03-28T10:06:40Z</time>
      </trkpt>
      <trkpt lat="42.8172" lon="0.45539">
        <ele>1898</ele>
        <time>2014-03-28T10:06:51Z</time>
      </trkpt>
      <trkpt lat="42.81721" lon="0.4554">
        <ele>1897</ele>
        <time>2014-03-28T10:06:53Z</time>
      </trkpt>
      <trkpt lat="42.81725" lon="0.45544">
        <ele>1896</ele>
        <time>2014-03-28T10:06:58Z</time>
      </trkpt>
      <trkpt lat="42.81727" lon="0.45546">
        <ele>1894</ele>
        <time>2014-03-28T10:07:01Z</time>
      </trkpt>
      <trkpt lat="42.8173" lon="0.45548">
        <ele>1893</ele>
        <time>2014-03-28T10:07:04Z</time>
      </trkpt>
      <trkpt lat="42.81734" lon="0.45551">
        <ele>1892</ele>
        <time>2014-03-28T10:07:08Z</time>
      </trkpt>
      <trkpt lat="42.8174" lon="0.45554">
        <ele>1890</ele>
        <time>2014-03-28T10:07:14Z</time>
      </trkpt>
      <trkpt lat="42.81743" lon="0.45556">
        <ele>1890</ele>
        <time>2014-03-28T10:07:17Z</time>
      </trkpt>
      <trkpt lat="42.81749" lon="0.45561">
        <ele>1888</ele>
        <time>2014-03-28T10:07:28Z</time>
      </trkpt>
      <trkpt lat="42.81753" lon="0.45553">
        <ele>1887</ele>
        <time>2014-03-28T10:07:41Z</time>
      </trkpt>
      <trkpt lat="42.81757" lon="0.45541">
        <ele>1885</ele>
        <time>2014-03-28T10:07:53Z</time>
      </trkpt>
      <trkpt lat="42.81763" lon="0.45539">
        <ele>1882</ele>
        <time>2014-03-28T10:08:03Z</time>
      </trkpt>
      <trkpt lat="42.81769" lon="0.45543">
        <ele>1879</ele>
        <time>2014-03-28T10:08:15Z</time>
      </trkpt>
      <trkpt lat="42.81773" lon="0.45546">
        <ele>1876</ele>
        <time>2014-03-28T10:08:26Z</time>
      </trkpt>
      <trkpt lat="42.81777" lon="0.4555">
        <ele>1874</ele>
        <time>2014-03-28T10:08:38Z</time>
      </trkpt>
      <trkpt lat="42.81784" lon="0.45556">
        <ele>1870</ele>
        <time>2014-03-28T10:08:52Z</time>
      </trkpt>
      <trkpt lat="42.8179" lon="0.45564">
        <ele>1868</ele>
        <time>2014-03-28T10:09:03Z</time>
      </trkpt>
      <trkpt lat="42.81797" lon="0.45571">
        <ele>1865</ele>
        <time>2014-03-28T10:09:14Z</time>
      </trkpt>
      <trkpt lat="42.81803" lon="0.45576">
        <ele>1864</ele>
        <time>2014-03-28T10:09:23Z</time>
      </trkpt>
      <trkpt lat="42.8181" lon="0.4558">
        <ele>1861</ele>
        <time>2014-03-28T10:09:35Z</time>
      </trkpt>
      <trkpt lat="42.81809" lon="0.45579">
        <ele>1861</ele>
        <time>2014-03-28T10:09:48Z</time>
      </trkpt>
      <trkpt lat="42.81815" lon="0.45585">
        <ele>1860</ele>
        <time>2014-03-28T10:09:59Z</time>
      </trkpt>
      <trkpt lat="42.81817" lon="0.45586">
        <ele>1859</ele>
        <time>2014-03-28T10:10:01Z</time>
      </trkpt>
      <trkpt lat="42.81822" lon="0.45589">
        <ele>1857</ele>
        <time>2014-03-28T10:10:07Z</time>
      </trkpt>
      <trkpt lat="42.81829" lon="0.45592">
        <ele>1856</ele>
        <time>2014-03-28T10:10:16Z</time>
      </trkpt>
      <trkpt lat="42.81839" lon="0.45597">
        <ele>1855</ele>
        <time>2014-03-28T10:10:28Z</time>
      </trkpt>
      <trkpt lat="42.81841" lon="0.45597">
        <ele>1855</ele>
        <time>2014-03-28T10:10:30Z</time>
      </trkpt>
      <trkpt lat="42.81844" lon="0.45599">
        <ele>1854</ele>
        <time>2014-03-28T10:10:33Z</time>
      </trkpt>
      <trkpt lat="42.81851" lon="0.45603">
        <ele>1854</ele>
        <time>2014-03-28T10:10:41Z</time>
      </trkpt>
      <trkpt lat="42.81855" lon="0.45607">
        <ele>1853</ele>
        <time>2014-03-28T10:10:46Z</time>
      </trkpt>
      <trkpt lat="42.81863" lon="0.45611">
        <ele>1853</ele>
        <time>2014-03-28T10:10:55Z</time>
      </trkpt>
      <trkpt lat="42.81867" lon="0.45614">
        <ele>1851</ele>
        <time>2014-03-28T10:11:00Z</time>
      </trkpt>
      <trkpt lat="42.81875" lon="0.45618">
        <ele>1849</ele>
        <time>2014-03-28T10:11:09Z</time>
      </trkpt>
      <trkpt lat="42.81877" lon="0.4562">
        <ele>1850</ele>
        <time>2014-03-28T10:11:12Z</time>
      </trkpt>
      <trkpt lat="42.81886" lon="0.45628">
        <ele>1849</ele>
        <time>2014-03-28T10:11:24Z</time>
      </trkpt>
      <trkpt lat="42.8189" lon="0.4563">
        <ele>1848</ele>
        <time>2014-03-28T10:11:29Z</time>
      </trkpt>
      <trkpt lat="42.81901" lon="0.45635">
        <ele>1848</ele>
        <time>2014-03-28T10:11:42Z</time>
      </trkpt>
      <trkpt lat="42.81905" lon="0.45638">
        <ele>1847</ele>
        <time>2014-03-28T10:11:48Z</time>
      </trkpt>
      <trkpt lat="42.8191" lon="0.4564">
        <ele>1847</ele>
        <time>2014-03-28T10:11:54Z</time>
      </trkpt>
      <trkpt lat="42.81916" lon="0.45644">
        <ele>1847</ele>
        <time>2014-03-28T10:12:02Z</time>
      </trkpt>
      <trkpt lat="42.81923" lon="0.45648">
        <ele>1847</ele>
        <time>2014-03-28T10:12:10Z</time>
      </trkpt>
      <trkpt lat="42.81932" lon="0.45653">
        <ele>1849</ele>
        <time>2014-03-28T10:12:23Z</time>
      </trkpt>
      <trkpt lat="42.81934" lon="0.4565">
        <ele>1850</ele>
        <time>2014-03-28T10:12:34Z</time>
      </trkpt>
      <trkpt lat="42.81932" lon="0.4565">
        <ele>1850</ele>
        <time>2014-03-28T10:12:46Z</time>
      </trkpt>
      <trkpt lat="42.81934" lon="0.45652">
        <ele>1848</ele>
        <time>2014-03-28T10:12:57Z</time>
      </trkpt>
      <trkpt lat="42.81935" lon="0.45651">
        <ele>1847</ele>
        <time>2014-03-28T10:13:26Z</time>
      </trkpt>
      <trkpt lat="42.81934" lon="0.45654">
        <ele>1846</ele>
        <time>2014-03-28T10:13:50Z</time>
      </trkpt>
      <trkpt lat="42.81934" lon="0.45653">
        <ele>1848</ele>
        <time>2014-03-28T10:14:10Z</time>
      </trkpt>
      <trkpt lat="42.81935" lon="0.45652">
        <ele>1849</ele>
        <time>2014-03-28T10:14:35Z</time>
      </trkpt>
      <trkpt lat="42.81935" lon="0.45652">
        <ele>1849</ele>
        <time>2014-03-28T10:14:49Z</time>
      </trkpt>
      <trkpt lat="42.81936" lon="0.45652">
        <ele>1848</ele>
        <time>2014-03-28T10:15:12Z</time>
      </trkpt>
      <trkpt lat="42.81936" lon="0.45652">
        <ele>1849</ele>
        <time>2014-03-28T10:15:22Z</time>
      </trkpt>
      <trkpt lat="42.81938" lon="0.45655">
        <ele>1849</ele>
        <time>2014-03-28T10:15:46Z</time>
      </trkpt>
      <trkpt lat="42.81947" lon="0.45657">
        <ele>1849</ele>
        <time>2014-03-28T10:15:57Z</time>
      </trkpt>
      <trkpt lat="42.81955" lon="0.45662">
        <ele>1852</ele>
        <time>2014-03-28T10:16:11Z</time>
      </trkpt>
      <trkpt lat="42.81963" lon="0.45665">
        <ele>1854</ele>
        <time>2014-03-28T10:16:24Z</time>
      </trkpt>
      <trkpt lat="42.81975" lon="0.45669">
        <ele>1855</ele>
        <time>2014-03-28T10:16:39Z</time>
      </trkpt>
      <trkpt lat="42.81981" lon="0.4567">
        <ele>1856</ele>
        <time>2014-03-28T10:16:49Z</time>
      </trkpt>
      <trkpt lat="42.81982" lon="0.4567">
        <ele>1858</ele>
        <time>2014-03-28T10:16:51Z</time>
      </trkpt>
      <trkpt lat="42.81988" lon="0.45671">
        <ele>1858</ele>
        <time>2014-03-28T10:17:07Z</time>
      </trkpt>
      <trkpt lat="42.81995" lon="0.45672">
        <ele>1859</ele>
        <time>2014-03-28T10:17:18Z</time>
      </trkpt>
      <trkpt lat="42.82002" lon="0.45672">
        <ele>1861</ele>
        <time>2014-03-28T10:17:32Z</time>
      </trkpt>
      <trkpt lat="42.82004" lon="0.45672">
        <ele>1860</ele>
        <time>2014-03-28T10:17:53Z</time>
      </trkpt>
      <trkpt lat="42.82009" lon="0.45673">
        <ele>1862</ele>
        <time>2014-03-28T10:18:04Z</time>
      </trkpt>
      <trkpt lat="42.82017" lon="0.45674">
        <ele>1863</ele>
        <time>2014-03-28T10:18:16Z</time>
      </trkpt>
      <trkpt lat="42.82026" lon="0.45673">
        <ele>1866</ele>
        <time>2014-03-28T10:18:31Z</time>
      </trkpt>
      <trkpt lat="42.82035" lon="0.45676">
        <ele>1866</ele>
        <time>2014-03-28T10:18:47Z</time>
      </trkpt>
      <trkpt lat="42.82044" lon="0.4568">
        <ele>1868</ele>
        <time>2014-03-28T10:18:59Z</time>
      </trkpt>
      <trkpt lat="42.82051" lon="0.45686">
        <ele>1869</ele>
        <time>2014-03-28T10:19:11Z</time>
      </trkpt>
      <trkpt lat="42.82057" lon="0.4569">
        <ele>1869</ele>
        <time>2014-03-28T10:19:19Z</time>
      </trkpt>
      <trkpt lat="42.82068" lon="0.45696">
        <ele>1869</ele>
        <time>2014-03-28T10:19:32Z</time>
      </trkpt>
      <trkpt lat="42.82076" lon="0.457">
        <ele>1868</ele>
        <time>2014-03-28T10:19:44Z</time>
      </trkpt>
      <trkpt lat="42.82085" lon="0.45706">
        <ele>1868</ele>
        <time>2014-03-28T10:19:59Z</time>
      </trkpt>
      <trkpt lat="42.82095" lon="0.45713">
        <ele>1869</ele>
        <time>2014-03-28T10:20:14Z</time>
      </trkpt>
      <trkpt lat="42.82103" lon="0.45717">
        <ele>1870</ele>
        <time>2014-03-28T10:20:25Z</time>
      </trkpt>
      <trkpt lat="42.82111" lon="0.45723">
        <ele>1870</ele>
        <time>2014-03-28T10:20:39Z</time>
      </trkpt>
      <trkpt lat="42.82119" lon="0.45726">
        <ele>1870</ele>
        <time>2014-03-28T10:20:58Z</time>
      </trkpt>
      <trkpt lat="42.82126" lon="0.4573">
        <ele>1871</ele>
        <time>2014-03-28T10:21:08Z</time>
      </trkpt>
      <trkpt lat="42.82131" lon="0.45735">
        <ele>1872</ele>
        <time>2014-03-28T10:21:19Z</time>
      </trkpt>
      <trkpt lat="42.82139" lon="0.4574">
        <ele>1874</ele>
        <time>2014-03-28T10:21:34Z</time>
      </trkpt>
      <trkpt lat="42.82149" lon="0.45746">
        <ele>1875</ele>
        <time>2014-03-28T10:21:47Z</time>
      </trkpt>
      <trkpt lat="42.82157" lon="0.45752">
        <ele>1876</ele>
        <time>2014-03-28T10:22:00Z</time>
      </trkpt>
      <trkpt lat="42.82164" lon="0.45758">
        <ele>1877</ele>
        <time>2014-03-28T10:22:12Z</time>
      </trkpt>
      <trkpt lat="42.82171" lon="0.45764">
        <ele>1878</ele>
        <time>2014-03-28T10:22:24Z</time>
      </trkpt>
      <trkpt lat="42.82175" lon="0.45765">
        <ele>1879</ele>
        <time>2014-03-28T10:22:40Z</time>
      </trkpt>
      <trkpt lat="42.82181" lon="0.45767">
        <ele>1880</ele>
        <time>2014-03-28T10:22:50Z</time>
      </trkpt>
      <trkpt lat="42.8219" lon="0.45769">
        <ele>1881</ele>
        <time>2014-03-28T10:23:08Z</time>
      </trkpt>
      <trkpt lat="42.82197" lon="0.4577">
        <ele>1882</ele>
        <time>2014-03-28T10:23:19Z</time>
      </trkpt>
      <trkpt lat="42.82201" lon="0.45771">
        <ele>1883</ele>
        <time>2014-03-28T10:23:30Z</time>
      </trkpt>
      <trkpt lat="42.82201" lon="0.45772">
        <ele>1883</ele>
        <time>2014-03-28T10:23:44Z</time>
      </trkpt>
      <trkpt lat="42.822" lon="0.45771">
        <ele>1884</ele>
        <time>2014-03-28T10:23:53Z</time>
      </trkpt>
      <trkpt lat="42.82201" lon="0.45772">
        <ele>1884</ele>
        <time>2014-03-28T10:24:06Z</time>
      </trkpt>
      <trkpt lat="42.82199" lon="0.45774">
        <ele>1884</ele>
        <time>2014-03-28T10:24:27Z</time>
      </trkpt>
      <trkpt lat="42.822" lon="0.45772">
        <ele>1884</ele>
        <time>2014-03-28T10:24:51Z</time>
      </trkpt>
      <trkpt lat="42.82206" lon="0.45774">
        <ele>1885</ele>
        <time>2014-03-28T10:25:04Z</time>
      </trkpt>
      <trkpt lat="42.82215" lon="0.45777">
        <ele>1887</ele>
        <time>2014-03-28T10:25:18Z</time>
      </trkpt>
      <trkpt lat="42.82222" lon="0.45779">
        <ele>1889</ele>
        <time>2014-03-28T10:25:33Z</time>
      </trkpt>
      <trkpt lat="42.82228" lon="0.45779">
        <ele>1891</ele>
        <time>2014-03-28T10:25:46Z</time>
      </trkpt>
      <trkpt lat="42.82236" lon="0.45782">
        <ele>1893</ele>
        <time>2014-03-28T10:26:01Z</time>
      </trkpt>
      <trkpt lat="42.82234" lon="0.4578">
        <ele>1894</ele>
        <time>2014-03-28T10:26:30Z</time>
      </trkpt>
      <trkpt lat="42.82236" lon="0.45782">
        <ele>1894</ele>
        <time>2014-03-28T10:27:02Z</time>
      </trkpt>
      <trkpt lat="42.82237" lon="0.45781">
        <ele>1894</ele>
        <time>2014-03-28T10:27:28Z</time>
      </trkpt>
      <trkpt lat="42.82241" lon="0.45784">
        <ele>1897</ele>
        <time>2014-03-28T10:27:41Z</time>
      </trkpt>
      <trkpt lat="42.82246" lon="0.45786">
        <ele>1898</ele>
        <time>2014-03-28T10:27:52Z</time>
      </trkpt>
      <trkpt lat="42.82249" lon="0.45788">
        <ele>1901</ele>
        <time>2014-03-28T10:28:03Z</time>
      </trkpt>
      <trkpt lat="42.82253" lon="0.45789">
        <ele>1904</ele>
        <time>2014-03-28T10:28:19Z</time>
      </trkpt>
      <trkpt lat="42.82258" lon="0.4579">
        <ele>1906</ele>
        <time>2014-03-28T10:28:34Z</time>
      </trkpt>
      <trkpt lat="42.82266" lon="0.45792">
        <ele>1908</ele>
        <time>2014-03-28T10:28:48Z</time>
      </trkpt>
      <trkpt lat="42.82266" lon="0.45789">
        <ele>1911</ele>
        <time>2014-03-28T10:29:03Z</time>
      </trkpt>
      <trkpt lat="42.8227" lon="0.45787">
        <ele>1913</ele>
        <time>2014-03-28T10:29:14Z</time>
      </trkpt>
      <trkpt lat="42.82267" lon="0.45789">
        <ele>1912</ele>
        <time>2014-03-28T10:29:38Z</time>
      </trkpt>
      <trkpt lat="42.82273" lon="0.45787">
        <ele>1914</ele>
        <time>2014-03-28T10:29:56Z</time>
      </trkpt>
      <trkpt lat="42.82279" lon="0.45782">
        <ele>1916</ele>
        <time>2014-03-28T10:30:09Z</time>
      </trkpt>
      <trkpt lat="42.82285" lon="0.45778">
        <ele>1918</ele>
        <time>2014-03-28T10:30:26Z</time>
      </trkpt>
      <trkpt lat="42.82291" lon="0.45776">
        <ele>1920</ele>
        <time>2014-03-28T10:30:38Z</time>
      </trkpt>
      <trkpt lat="42.82293" lon="0.45775">
        <ele>1921</ele>
        <time>2014-03-28T10:30:49Z</time>
      </trkpt>
      <trkpt lat="42.82293" lon="0.45776">
        <ele>1922</ele>
        <time>2014-03-28T10:31:05Z</time>
      </trkpt>
      <trkpt lat="42.82292" lon="0.45775">
        <ele>1921</ele>
        <time>2014-03-28T10:31:26Z</time>
      </trkpt>
      <trkpt lat="42.82292" lon="0.45776">
        <ele>1921</ele>
        <time>2014-03-28T10:31:51Z</time>
      </trkpt>
      <trkpt lat="42.82296" lon="0.4578">
        <ele>1922</ele>
        <time>2014-03-28T10:32:02Z</time>
      </trkpt>
      <trkpt lat="42.82301" lon="0.45787">
        <ele>1924</ele>
        <time>2014-03-28T10:32:14Z</time>
      </trkpt>
      <trkpt lat="42.82306" lon="0.45795">
        <ele>1926</ele>
        <time>2014-03-28T10:32:31Z</time>
      </trkpt>
      <trkpt lat="42.82311" lon="0.45803">
        <ele>1928</ele>
        <time>2014-03-28T10:32:47Z</time>
      </trkpt>
      <trkpt lat="42.82314" lon="0.45807">
        <ele>1930</ele>
        <time>2014-03-28T10:33:06Z</time>
      </trkpt>
      <trkpt lat="42.82314" lon="0.45808">
        <ele>1930</ele>
        <time>2014-03-28T10:33:35Z</time>
      </trkpt>
      <trkpt lat="42.82315" lon="0.45809">
        <ele>1930</ele>
        <time>2014-03-28T10:33:58Z</time>
      </trkpt>
      <trkpt lat="42.82317" lon="0.45809">
        <ele>1930</ele>
        <time>2014-03-28T10:34:18Z</time>
      </trkpt>
      <trkpt lat="42.82322" lon="0.45806">
        <ele>1931</ele>
        <time>2014-03-28T10:34:36Z</time>
      </trkpt>
      <trkpt lat="42.82328" lon="0.458">
        <ele>1935</ele>
        <time>2014-03-28T10:34:54Z</time>
      </trkpt>
      <trkpt lat="42.82336" lon="0.45794">
        <ele>1937</ele>
        <time>2014-03-28T10:35:07Z</time>
      </trkpt>
      <trkpt lat="42.82343" lon="0.4579">
        <ele>1938</ele>
        <time>2014-03-28T10:35:22Z</time>
      </trkpt>
      <trkpt lat="42.82349" lon="0.45787">
        <ele>1940</ele>
        <time>2014-03-28T10:35:38Z</time>
      </trkpt>
      <trkpt lat="42.82343" lon="0.45789">
        <ele>1940</ele>
        <time>2014-03-28T10:36:01Z</time>
      </trkpt>
      <trkpt lat="42.82343" lon="0.45788">
        <ele>1940</ele>
        <time>2014-03-28T10:36:24Z</time>
      </trkpt>
      <trkpt lat="42.82343" lon="0.45789">
        <ele>1940</ele>
        <time>2014-03-28T10:36:46Z</time>
      </trkpt>
      <trkpt lat="42.82347" lon="0.4579">
        <ele>1941</ele>
        <time>2014-03-28T10:37:01Z</time>
      </trkpt>
      <trkpt lat="42.82352" lon="0.45796">
        <ele>1943</ele>
        <time>2014-03-28T10:37:16Z</time>
      </trkpt>
      <trkpt lat="42.82355" lon="0.45801">
        <ele>1945</ele>
        <time>2014-03-28T10:37:27Z</time>
      </trkpt>
      <trkpt lat="42.82359" lon="0.45808">
        <ele>1947</ele>
        <time>2014-03-28T10:37:39Z</time>
      </trkpt>
      <trkpt lat="42.82363" lon="0.45812">
        <ele>1949</ele>
        <time>2014-03-28T10:37:50Z</time>
      </trkpt>
      <trkpt lat="42.82367" lon="0.45818">
        <ele>1950</ele>
        <time>2014-03-28T10:38:05Z</time>
      </trkpt>
      <trkpt lat="42.82366" lon="0.45817">
        <ele>1950</ele>
        <time>2014-03-28T10:38:27Z</time>
      </trkpt>
      <trkpt lat="42.82367" lon="0.45817">
        <ele>1950</ele>
        <time>2014-03-28T10:38:41Z</time>
      </trkpt>
      <trkpt lat="42.82371" lon="0.45818">
        <ele>1951</ele>
        <time>2014-03-28T10:38:57Z</time>
      </trkpt>
      <trkpt lat="42.82375" lon="0.45816">
        <ele>1953</ele>
        <time>2014-03-28T10:39:04Z</time>
      </trkpt>
      <trkpt lat="42.82381" lon="0.45811">
        <ele>1955</ele>
        <time>2014-03-28T10:39:17Z</time>
      </trkpt>
      <trkpt lat="42.82387" lon="0.45808">
        <ele>1957</ele>
        <time>2014-03-28T10:39:30Z</time>
      </trkpt>
      <trkpt lat="42.82391" lon="0.45812">
        <ele>1960</ele>
        <time>2014-03-28T10:39:43Z</time>
      </trkpt>
      <trkpt lat="42.82394" lon="0.45817">
        <ele>1961</ele>
        <time>2014-03-28T10:39:55Z</time>
      </trkpt>
      <trkpt lat="42.82394" lon="0.45817">
        <ele>1961</ele>
        <time>2014-03-28T10:40:22Z</time>
      </trkpt>
      <trkpt lat="42.82394" lon="0.45817">
        <ele>1961</ele>
        <time>2014-03-28T10:41:02Z</time>
      </trkpt>
      <trkpt lat="42.82393" lon="0.45819">
        <ele>1961</ele>
        <time>2014-03-28T10:41:42Z</time>
      </trkpt>
      <trkpt lat="42.82396" lon="0.45826">
        <ele>1962</ele>
        <time>2014-03-28T10:41:54Z</time>
      </trkpt>
      <trkpt lat="42.824" lon="0.45835">
        <ele>1964</ele>
        <time>2014-03-28T10:42:08Z</time>
      </trkpt>
      <trkpt lat="42.82405" lon="0.45844">
        <ele>1966</ele>
        <time>2014-03-28T10:42:22Z</time>
      </trkpt>
      <trkpt lat="42.82411" lon="0.4585">
        <ele>1968</ele>
        <time>2014-03-28T10:42:35Z</time>
      </trkpt>
      <trkpt lat="42.82416" lon="0.45856">
        <ele>1970</ele>
        <time>2014-03-28T10:42:47Z</time>
      </trkpt>
      <trkpt lat="42.82421" lon="0.45863">
        <ele>1972</ele>
        <time>2014-03-28T10:43:00Z</time>
      </trkpt>
      <trkpt lat="42.82427" lon="0.45871">
        <ele>1974</ele>
        <time>2014-03-28T10:43:15Z</time>
      </trkpt>
      <trkpt lat="42.82435" lon="0.45878">
        <ele>1975</ele>
        <time>2014-03-28T10:43:31Z</time>
      </trkpt>
      <trkpt lat="42.82435" lon="0.45881">
        <ele>1975</ele>
        <time>2014-03-28T10:43:53Z</time>
      </trkpt>
      <trkpt lat="42.82436" lon="0.45881">
        <ele>1975</ele>
        <time>2014-03-28T10:44:07Z</time>
      </trkpt>
      <trkpt lat="42.82437" lon="0.45881">
        <ele>1976</ele>
        <time>2014-03-28T10:44:38Z</time>
      </trkpt>
      <trkpt lat="42.82437" lon="0.4588">
        <ele>1976</ele>
        <time>2014-03-28T10:45:05Z</time>
      </trkpt>
      <trkpt lat="42.82437" lon="0.45881">
        <ele>1975</ele>
        <time>2014-03-28T10:45:23Z</time>
      </trkpt>
      <trkpt lat="42.82437" lon="0.45881">
        <ele>1976</ele>
        <time>2014-03-28T10:45:53Z</time>
      </trkpt>
      <trkpt lat="42.82436" lon="0.45881">
        <ele>1976</ele>
        <time>2014-03-28T10:46:19Z</time>
      </trkpt>
      <trkpt lat="42.82437" lon="0.45881">
        <ele>1976</ele>
        <time>2014-03-28T10:46:45Z</time>
      </trkpt>
      <trkpt lat="42.82436" lon="0.45881">
        <ele>1977</ele>
        <time>2014-03-28T10:47:17Z</time>
      </trkpt>
      <trkpt lat="42.82436" lon="0.45881">
        <ele>1976</ele>
        <time>2014-03-28T10:47:40Z</time>
      </trkpt>
      <trkpt lat="42.82437" lon="0.45878">
        <ele>1976</ele>
        <time>2014-03-28T10:47:56Z</time>
      </trkpt>
      <trkpt lat="42.82436" lon="0.45879">
        <ele>1976</ele>
        <time>2014-03-28T10:48:27Z</time>
      </trkpt>
      <trkpt lat="42.82444" lon="0.45877">
        <ele>1977</ele>
        <time>2014-03-28T10:48:45Z</time>
      </trkpt>
      <trkpt lat="42.82454" lon="0.45877">
        <ele>1978</ele>
        <time>2014-03-28T10:48:59Z</time>
      </trkpt>
      <trkpt lat="42.8246" lon="0.45877">
        <ele>1979</ele>
        <time>2014-03-28T10:49:11Z</time>
      </trkpt>
      <trkpt lat="42.82462" lon="0.45877">
        <ele>1979</ele>
        <time>2014-03-28T10:49:14Z</time>
      </trkpt>
      <trkpt lat="42.82472" lon="0.45874">
        <ele>1980</ele>
        <time>2014-03-28T10:49:27Z</time>
      </trkpt>
      <trkpt lat="42.82479" lon="0.4587">
        <ele>1980</ele>
        <time>2014-03-28T10:49:42Z</time>
      </trkpt>
      <trkpt lat="42.82485" lon="0.45868">
        <ele>1979</ele>
        <time>2014-03-28T10:49:49Z</time>
      </trkpt>
      <trkpt lat="42.8249" lon="0.45868">
        <ele>1979</ele>
        <time>2014-03-28T10:49:54Z</time>
      </trkpt>
      <trkpt lat="42.82501" lon="0.45869">
        <ele>1978</ele>
        <time>2014-03-28T10:50:08Z</time>
      </trkpt>
      <trkpt lat="42.82512" lon="0.45872">
        <ele>1978</ele>
        <time>2014-03-28T10:50:22Z</time>
      </trkpt>
      <trkpt lat="42.8252" lon="0.45874">
        <ele>1979</ele>
        <time>2014-03-28T10:50:35Z</time>
      </trkpt>
      <trkpt lat="42.82527" lon="0.45878">
        <ele>1981</ele>
        <time>2014-03-28T10:50:49Z</time>
      </trkpt>
      <trkpt lat="42.82534" lon="0.4588">
        <ele>1983</ele>
        <time>2014-03-28T10:51:01Z</time>
      </trkpt>
      <trkpt lat="42.8254" lon="0.45882">
        <ele>1984</ele>
        <time>2014-03-28T10:51:14Z</time>
      </trkpt>
      <trkpt lat="42.82545" lon="0.45886">
        <ele>1987</ele>
        <time>2014-03-28T10:51:26Z</time>
      </trkpt>
      <trkpt lat="42.82552" lon="0.45886">
        <ele>1989</ele>
        <time>2014-03-28T10:51:39Z</time>
      </trkpt>
      <trkpt lat="42.82554" lon="0.45887">
        <ele>1990</ele>
        <time>2014-03-28T10:51:51Z</time>
      </trkpt>
      <trkpt lat="42.82553" lon="0.45888">
        <ele>1990</ele>
        <time>2014-03-28T10:52:19Z</time>
      </trkpt>
      <trkpt lat="42.82554" lon="0.45886">
        <ele>1990</ele>
        <time>2014-03-28T10:52:34Z</time>
      </trkpt>
      <trkpt lat="42.82558" lon="0.45885">
        <ele>1991</ele>
        <time>2014-03-28T10:52:47Z</time>
      </trkpt>
      <trkpt lat="42.82564" lon="0.45884">
        <ele>1991</ele>
        <time>2014-03-28T10:52:59Z</time>
      </trkpt>
      <trkpt lat="42.8257" lon="0.45884">
        <ele>1993</ele>
        <time>2014-03-28T10:53:14Z</time>
      </trkpt>
      <trkpt lat="42.8257" lon="0.45884">
        <ele>1994</ele>
        <time>2014-03-28T10:53:44Z</time>
      </trkpt>
      <trkpt lat="42.82575" lon="0.45881">
        <ele>1995</ele>
        <time>2014-03-28T10:54:03Z</time>
      </trkpt>
      <trkpt lat="42.82584" lon="0.45877">
        <ele>1999</ele>
        <time>2014-03-28T10:54:19Z</time>
      </trkpt>
      <trkpt lat="42.82593" lon="0.45873">
        <ele>2000</ele>
        <time>2014-03-28T10:54:33Z</time>
      </trkpt>
      <trkpt lat="42.82603" lon="0.45871">
        <ele>2001</ele>
        <time>2014-03-28T10:54:47Z</time>
      </trkpt>
      <trkpt lat="42.82613" lon="0.4587">
        <ele>2002</ele>
        <time>2014-03-28T10:55:01Z</time>
      </trkpt>
      <trkpt lat="42.82622" lon="0.4587">
        <ele>2003</ele>
        <time>2014-03-28T10:55:14Z</time>
      </trkpt>
      <trkpt lat="42.82632" lon="0.4587">
        <ele>2003</ele>
        <time>2014-03-28T10:55:28Z</time>
      </trkpt>
      <trkpt lat="42.82643" lon="0.45869">
        <ele>2003</ele>
        <time>2014-03-28T10:55:42Z</time>
      </trkpt>
      <trkpt lat="42.82647" lon="0.4587">
        <ele>2003</ele>
        <time>2014-03-28T10:55:47Z</time>
      </trkpt>
      <trkpt lat="42.82651" lon="0.45869">
        <ele>2003</ele>
        <time>2014-03-28T10:56:01Z</time>
      </trkpt>
      <trkpt lat="42.82657" lon="0.45868">
        <ele>2003</ele>
        <time>2014-03-28T10:56:35Z</time>
      </trkpt>
      <trkpt lat="42.82664" lon="0.45866">
        <ele>2004</ele>
        <time>2014-03-28T10:56:47Z</time>
      </trkpt>
      <trkpt lat="42.82675" lon="0.45864">
        <ele>2004</ele>
        <time>2014-03-28T10:57:02Z</time>
      </trkpt>
      <trkpt lat="42.82685" lon="0.45862">
        <ele>2005</ele>
        <time>2014-03-28T10:57:17Z</time>
      </trkpt>
      <trkpt lat="42.82693" lon="0.45862">
        <ele>2006</ele>
        <time>2014-03-28T10:57:30Z</time>
      </trkpt>
      <trkpt lat="42.82697" lon="0.45862">
        <ele>2007</ele>
        <time>2014-03-28T10:57:40Z</time>
      </trkpt>
      <trkpt lat="42.82703" lon="0.45863">
        <ele>2009</ele>
        <time>2014-03-28T10:57:53Z</time>
      </trkpt>
      <trkpt lat="42.82707" lon="0.45862">
        <ele>2009</ele>
        <time>2014-03-28T10:58:10Z</time>
      </trkpt>
      <trkpt lat="42.82708" lon="0.45861">
        <ele>2010</ele>
        <time>2014-03-28T10:58:34Z</time>
      </trkpt>
      <trkpt lat="42.82708" lon="0.45861">
        <ele>2010</ele>
        <time>2014-03-28T10:59:00Z</time>
      </trkpt>
      <trkpt lat="42.82707" lon="0.45861">
        <ele>2010</ele>
        <time>2014-03-28T10:59:28Z</time>
      </trkpt>
      <trkpt lat="42.82709" lon="0.45864">
        <ele>2010</ele>
        <time>2014-03-28T10:59:53Z</time>
      </trkpt>
      <trkpt lat="42.82708" lon="0.45864">
        <ele>2011</ele>
        <time>2014-03-28T11:00:27Z</time>
      </trkpt>
      <trkpt lat="42.82708" lon="0.45862">
        <ele>2010</ele>
        <time>2014-03-28T11:00:42Z</time>
      </trkpt>
      <trkpt lat="42.82708" lon="0.45861">
        <ele>2010</ele>
        <time>2014-03-28T11:01:06Z</time>
      </trkpt>
      <trkpt lat="42.82709" lon="0.4586">
        <ele>2011</ele>
        <time>2014-03-28T11:01:40Z</time>
      </trkpt>
      <trkpt lat="42.82708" lon="0.45862">
        <ele>2011</ele>
        <time>2014-03-28T11:01:55Z</time>
      </trkpt>
      <trkpt lat="42.82712" lon="0.45859">
        <ele>2011</ele>
        <time>2014-03-28T11:02:08Z</time>
      </trkpt>
      <trkpt lat="42.82719" lon="0.45854">
        <ele>2013</ele>
        <time>2014-03-28T11:02:20Z</time>
      </trkpt>
      <trkpt lat="42.82723" lon="0.45849">
        <ele>2014</ele>
        <time>2014-03-28T11:02:34Z</time>
      </trkpt>
      <trkpt lat="42.82731" lon="0.4585">
        <ele>2016</ele>
        <time>2014-03-28T11:02:52Z</time>
      </trkpt>
      <trkpt lat="42.82736" lon="0.45854">
        <ele>2018</ele>
        <time>2014-03-28T11:03:05Z</time>
      </trkpt>
      <trkpt lat="42.82741" lon="0.45857">
        <ele>2019</ele>
        <time>2014-03-28T11:03:18Z</time>
      </trkpt>
      <trkpt lat="42.82745" lon="0.4586">
        <ele>2022</ele>
        <time>2014-03-28T11:03:28Z</time>
      </trkpt>
      <trkpt lat="42.82751" lon="0.45861">
        <ele>2024</ele>
        <time>2014-03-28T11:03:47Z</time>
      </trkpt>
      <trkpt lat="42.82752" lon="0.4586">
        <ele>2025</ele>
        <time>2014-03-28T11:04:00Z</time>
      </trkpt>
      <trkpt lat="42.82752" lon="0.45861">
        <ele>2024</ele>
        <time>2014-03-28T11:04:13Z</time>
      </trkpt>
      <trkpt lat="42.82755" lon="0.45862">
        <ele>2025</ele>
        <time>2014-03-28T11:04:32Z</time>
      </trkpt>
      <trkpt lat="42.82759" lon="0.45863">
        <ele>2027</ele>
        <time>2014-03-28T11:04:44Z</time>
      </trkpt>
      <trkpt lat="42.82767" lon="0.45862">
        <ele>2029</ele>
        <time>2014-03-28T11:04:59Z</time>
      </trkpt>
      <trkpt lat="42.82772" lon="0.45859">
        <ele>2032</ele>
        <time>2014-03-28T11:05:11Z</time>
      </trkpt>
      <trkpt lat="42.8278" lon="0.45855">
        <ele>2034</ele>
        <time>2014-03-28T11:05:27Z</time>
      </trkpt>
      <trkpt lat="42.82786" lon="0.45853">
        <ele>2035</ele>
        <time>2014-03-28T11:05:38Z</time>
      </trkpt>
      <trkpt lat="42.82786" lon="0.45851">
        <ele>2035</ele>
        <time>2014-03-28T11:05:54Z</time>
      </trkpt>
      <trkpt lat="42.82789" lon="0.45853">
        <ele>2037</ele>
        <time>2014-03-28T11:06:16Z</time>
      </trkpt>
      <trkpt lat="42.82795" lon="0.45855">
        <ele>2038</ele>
        <time>2014-03-28T11:06:30Z</time>
      </trkpt>
      <trkpt lat="42.82801" lon="0.45854">
        <ele>2040</ele>
        <time>2014-03-28T11:06:42Z</time>
      </trkpt>
      <trkpt lat="42.82808" lon="0.45853">
        <ele>2041</ele>
        <time>2014-03-28T11:06:54Z</time>
      </trkpt>
      <trkpt lat="42.82815" lon="0.45853">
        <ele>2042</ele>
        <time>2014-03-28T11:07:08Z</time>
      </trkpt>
      <trkpt lat="42.82817" lon="0.45854">
        <ele>2043</ele>
        <time>2014-03-28T11:07:21Z</time>
      </trkpt>
      <trkpt lat="42.8282" lon="0.45852">
        <ele>2044</ele>
        <time>2014-03-28T11:07:49Z</time>
      </trkpt>
      <trkpt lat="42.82828" lon="0.45852">
        <ele>2046</ele>
        <time>2014-03-28T11:08:04Z</time>
      </trkpt>
      <trkpt lat="42.82836" lon="0.45853">
        <ele>2048</ele>
        <time>2014-03-28T11:08:18Z</time>
      </trkpt>
      <trkpt lat="42.82844" lon="0.45853">
        <ele>2050</ele>
        <time>2014-03-28T11:08:32Z</time>
      </trkpt>
      <trkpt lat="42.82851" lon="0.45853">
        <ele>2050</ele>
        <time>2014-03-28T11:08:45Z</time>
      </trkpt>
      <trkpt lat="42.82853" lon="0.45853">
        <ele>2051</ele>
        <time>2014-03-28T11:09:04Z</time>
      </trkpt>
      <trkpt lat="42.8286" lon="0.45856">
        <ele>2053</ele>
        <time>2014-03-28T11:09:16Z</time>
      </trkpt>
      <trkpt lat="42.82869" lon="0.45859">
        <ele>2054</ele>
        <time>2014-03-28T11:09:31Z</time>
      </trkpt>
      <trkpt lat="42.8287" lon="0.45859">
        <ele>2055</ele>
        <time>2014-03-28T11:09:45Z</time>
      </trkpt>
      <trkpt lat="42.82875" lon="0.45858">
        <ele>2054</ele>
        <time>2014-03-28T11:10:10Z</time>
      </trkpt>
      <trkpt lat="42.82879" lon="0.45858">
        <ele>2056</ele>
        <time>2014-03-28T11:10:18Z</time>
      </trkpt>
      <trkpt lat="42.82889" lon="0.45859">
        <ele>2057</ele>
        <time>2014-03-28T11:10:30Z</time>
      </trkpt>
      <trkpt lat="42.82896" lon="0.4586">
        <ele>2059</ele>
        <time>2014-03-28T11:10:43Z</time>
      </trkpt>
      <trkpt lat="42.82904" lon="0.45859">
        <ele>2059</ele>
        <time>2014-03-28T11:10:55Z</time>
      </trkpt>
      <trkpt lat="42.82913" lon="0.4586">
        <ele>2060</ele>
        <time>2014-03-28T11:11:08Z</time>
      </trkpt>
      <trkpt lat="42.82921" lon="0.45861">
        <ele>2061</ele>
        <time>2014-03-28T11:11:23Z</time>
      </trkpt>
      <trkpt lat="42.82936" lon="0.45862">
        <ele>2062</ele>
        <time>2014-03-28T11:11:40Z</time>
      </trkpt>
      <trkpt lat="42.82945" lon="0.45862">
        <ele>2063</ele>
        <time>2014-03-28T11:11:55Z</time>
      </trkpt>
      <trkpt lat="42.82953" lon="0.4586">
        <ele>2063</ele>
        <time>2014-03-28T11:12:10Z</time>
      </trkpt>
      <trkpt lat="42.8296" lon="0.4586">
        <ele>2064</ele>
        <time>2014-03-28T11:12:25Z</time>
      </trkpt>
      <trkpt lat="42.82961" lon="0.45861">
        <ele>2064</ele>
        <time>2014-03-28T11:12:51Z</time>
      </trkpt>
      <trkpt lat="42.82961" lon="0.45861">
        <ele>2065</ele>
        <time>2014-03-28T11:13:18Z</time>
      </trkpt>
      <trkpt lat="42.82961" lon="0.45862">
        <ele>2064</ele>
        <time>2014-03-28T11:13:54Z</time>
      </trkpt>
      <trkpt lat="42.82962" lon="0.45862">
        <ele>2063</ele>
        <time>2014-03-28T11:14:28Z</time>
      </trkpt>
      <trkpt lat="42.82963" lon="0.45862">
        <ele>2064</ele>
        <time>2014-03-28T11:14:29Z</time>
      </trkpt>
      <trkpt lat="42.82973" lon="0.45866">
        <ele>2065</ele>
        <time>2014-03-28T11:14:42Z</time>
      </trkpt>
      <trkpt lat="42.82981" lon="0.45871">
        <ele>2066</ele>
        <time>2014-03-28T11:14:56Z</time>
      </trkpt>
      <trkpt lat="42.82991" lon="0.45876">
        <ele>2067</ele>
        <time>2014-03-28T11:15:09Z</time>
      </trkpt>
      <trkpt lat="42.82994" lon="0.45875">
        <ele>2067</ele>
        <time>2014-03-28T11:15:21Z</time>
      </trkpt>
      <trkpt lat="42.82995" lon="0.45876">
        <ele>2067</ele>
        <time>2014-03-28T11:15:28Z</time>
      </trkpt>
      <trkpt lat="42.83001" lon="0.45877">
        <ele>2067</ele>
        <time>2014-03-28T11:15:41Z</time>
      </trkpt>
      <trkpt lat="42.83004" lon="0.45877">
        <ele>2066</ele>
        <time>2014-03-28T11:15:50Z</time>
      </trkpt>
      <trkpt lat="42.83015" lon="0.45877">
        <ele>2066</ele>
        <time>2014-03-28T11:16:04Z</time>
      </trkpt>
      <trkpt lat="42.83026" lon="0.45878">
        <ele>2067</ele>
        <time>2014-03-28T11:16:16Z</time>
      </trkpt>
      <trkpt lat="42.8303" lon="0.45878">
        <ele>2066</ele>
        <time>2014-03-28T11:16:20Z</time>
      </trkpt>
      <trkpt lat="42.83033" lon="0.45879">
        <ele>2067</ele>
        <time>2014-03-28T11:16:23Z</time>
      </trkpt>
      <trkpt lat="42.83042" lon="0.45883">
        <ele>2066</ele>
        <time>2014-03-28T11:16:35Z</time>
      </trkpt>
      <trkpt lat="42.83046" lon="0.45884">
        <ele>2066</ele>
        <time>2014-03-28T11:16:39Z</time>
      </trkpt>
      <trkpt lat="42.83058" lon="0.4589">
        <ele>2066</ele>
        <time>2014-03-28T11:16:53Z</time>
      </trkpt>
      <trkpt lat="42.8306" lon="0.45891">
        <ele>2066</ele>
        <time>2014-03-28T11:16:55Z</time>
      </trkpt>
      <trkpt lat="42.83066" lon="0.45892">
        <ele>2067</ele>
        <time>2014-03-28T11:17:02Z</time>
      </trkpt>
      <trkpt lat="42.83077" lon="0.45897">
        <ele>2066</ele>
        <time>2014-03-28T11:17:16Z</time>
      </trkpt>
      <trkpt lat="42.83087" lon="0.459">
        <ele>2065</ele>
        <time>2014-03-28T11:17:28Z</time>
      </trkpt>
      <trkpt lat="42.83098" lon="0.45904">
        <ele>2065</ele>
        <time>2014-03-28T11:17:41Z</time>
      </trkpt>
      <trkpt lat="42.83108" lon="0.45908">
        <ele>2064</ele>
        <time>2014-03-28T11:17:54Z</time>
      </trkpt>
      <trkpt lat="42.8312" lon="0.45913">
        <ele>2063</ele>
        <time>2014-03-28T11:18:07Z</time>
      </trkpt>
      <trkpt lat="42.83123" lon="0.45914">
        <ele>2063</ele>
        <time>2014-03-28T11:18:12Z</time>
      </trkpt>
      <trkpt lat="42.83133" lon="0.45919">
        <ele>2061</ele>
        <time>2014-03-28T11:18:25Z</time>
      </trkpt>
      <trkpt lat="42.83144" lon="0.45926">
        <ele>2058</ele>
        <time>2014-03-28T11:18:40Z</time>
      </trkpt>
      <trkpt lat="42.83155" lon="0.45928">
        <ele>2055</ele>
        <time>2014-03-28T11:18:54Z</time>
      </trkpt>
      <trkpt lat="42.83166" lon="0.45933">
        <ele>2053</ele>
        <time>2014-03-28T11:19:07Z</time>
      </trkpt>
      <trkpt lat="42.83179" lon="0.45937">
        <ele>2052</ele>
        <time>2014-03-28T11:19:21Z</time>
      </trkpt>
      <trkpt lat="42.83189" lon="0.4594">
        <ele>2049</ele>
        <time>2014-03-28T11:19:34Z</time>
      </trkpt>
      <trkpt lat="42.83198" lon="0.45941">
        <ele>2048</ele>
        <time>2014-03-28T11:19:47Z</time>
      </trkpt>
      <trkpt lat="42.83204" lon="0.45941">
        <ele>2047</ele>
        <time>2014-03-28T11:19:57Z</time>
      </trkpt>
      <trkpt lat="42.83215" lon="0.45943">
        <ele>2044</ele>
        <time>2014-03-28T11:20:10Z</time>
      </trkpt>
      <trkpt lat="42.83226" lon="0.45947">
        <ele>2041</ele>
        <time>2014-03-28T11:20:24Z</time>
      </trkpt>
      <trkpt lat="42.83236" lon="0.45953">
        <ele>2040</ele>
        <time>2014-03-28T11:20:38Z</time>
      </trkpt>
      <trkpt lat="42.83237" lon="0.45954">
        <ele>2038</ele>
        <time>2014-03-28T11:20:40Z</time>
      </trkpt>
      <trkpt lat="42.83239" lon="0.45956">
        <ele>2038</ele>
        <time>2014-03-28T11:20:51Z</time>
      </trkpt>
      <trkpt lat="42.8324" lon="0.45957">
        <ele>2037</ele>
        <time>2014-03-28T11:21:13Z</time>
      </trkpt>
      <trkpt lat="42.8325" lon="0.45963">
        <ele>2034</ele>
        <time>2014-03-28T11:21:26Z</time>
      </trkpt>
      <trkpt lat="42.83254" lon="0.45967">
        <ele>2033</ele>
        <time>2014-03-28T11:21:31Z</time>
      </trkpt>
      <trkpt lat="42.83266" lon="0.45973">
        <ele>2029</ele>
        <time>2014-03-28T11:21:45Z</time>
      </trkpt>
      <trkpt lat="42.83277" lon="0.4598">
        <ele>2028</ele>
        <time>2014-03-28T11:21:58Z</time>
      </trkpt>
      <trkpt lat="42.83281" lon="0.45983">
        <ele>2027</ele>
        <time>2014-03-28T11:22:03Z</time>
      </trkpt>
      <trkpt lat="42.83292" lon="0.45989">
        <ele>2025</ele>
        <time>2014-03-28T11:22:16Z</time>
      </trkpt>
      <trkpt lat="42.83305" lon="0.45997">
        <ele>2023</ele>
        <time>2014-03-28T11:22:30Z</time>
      </trkpt>
      <trkpt lat="42.83317" lon="0.46003">
        <ele>2021</ele>
        <time>2014-03-28T11:22:44Z</time>
      </trkpt>
      <trkpt lat="42.8333" lon="0.4601">
        <ele>2019</ele>
        <time>2014-03-28T11:22:59Z</time>
      </trkpt>
      <trkpt lat="42.83343" lon="0.46016">
        <ele>2019</ele>
        <time>2014-03-28T11:23:13Z</time>
      </trkpt>
      <trkpt lat="42.83354" lon="0.46022">
        <ele>2019</ele>
        <time>2014-03-28T11:23:26Z</time>
      </trkpt>
      <trkpt lat="42.83363" lon="0.46028">
        <ele>2019</ele>
        <time>2014-03-28T11:23:39Z</time>
      </trkpt>
      <trkpt lat="42.83372" lon="0.46032">
        <ele>2019</ele>
        <time>2014-03-28T11:23:51Z</time>
      </trkpt>
      <trkpt lat="42.83382" lon="0.46038">
        <ele>2019</ele>
        <time>2014-03-28T11:24:04Z</time>
      </trkpt>
      <trkpt lat="42.83393" lon="0.46043">
        <ele>2019</ele>
        <time>2014-03-28T11:24:18Z</time>
      </trkpt>
      <trkpt lat="42.83403" lon="0.46048">
        <ele>2020</ele>
        <time>2014-03-28T11:24:31Z</time>
      </trkpt>
      <trkpt lat="42.83414" lon="0.46053">
        <ele>2020</ele>
        <time>2014-03-28T11:24:45Z</time>
      </trkpt>
      <trkpt lat="42.83419" lon="0.46057">
        <ele>2020</ele>
        <time>2014-03-28T11:24:52Z</time>
      </trkpt>
      <trkpt lat="42.83426" lon="0.46059">
        <ele>2021</ele>
        <time>2014-03-28T11:25:01Z</time>
      </trkpt>
      <trkpt lat="42.8343" lon="0.4606">
        <ele>2021</ele>
        <time>2014-03-28T11:25:05Z</time>
      </trkpt>
      <trkpt lat="42.83441" lon="0.46063">
        <ele>2022</ele>
        <time>2014-03-28T11:25:19Z</time>
      </trkpt>
      <trkpt lat="42.8345" lon="0.46064">
        <ele>2022</ele>
        <time>2014-03-28T11:25:32Z</time>
      </trkpt>
      <trkpt lat="42.83455" lon="0.46064">
        <ele>2023</ele>
        <time>2014-03-28T11:25:39Z</time>
      </trkpt>
      <trkpt lat="42.83469" lon="0.46064">
        <ele>2023</ele>
        <time>2014-03-28T11:25:54Z</time>
      </trkpt>
      <trkpt lat="42.83476" lon="0.46063">
        <ele>2024</ele>
        <time>2014-03-28T11:26:01Z</time>
      </trkpt>
      <trkpt lat="42.83481" lon="0.46063">
        <ele>2024</ele>
        <time>2014-03-28T11:26:06Z</time>
      </trkpt>
      <trkpt lat="42.83491" lon="0.46061">
        <ele>2024</ele>
        <time>2014-03-28T11:26:19Z</time>
      </trkpt>
      <trkpt lat="42.83501" lon="0.46062">
        <ele>2022</ele>
        <time>2014-03-28T11:26:31Z</time>
      </trkpt>
      <trkpt lat="42.83513" lon="0.4607">
        <ele>2022</ele>
        <time>2014-03-28T11:26:46Z</time>
      </trkpt>
      <trkpt lat="42.83523" lon="0.46075">
        <ele>2022</ele>
        <time>2014-03-28T11:26:59Z</time>
      </trkpt>
      <trkpt lat="42.83531" lon="0.4608">
        <ele>2023</ele>
        <time>2014-03-28T11:27:13Z</time>
      </trkpt>
      <trkpt lat="42.83531" lon="0.46081">
        <ele>2023</ele>
        <time>2014-03-28T11:27:40Z</time>
      </trkpt>
      <trkpt lat="42.83531" lon="0.4608">
        <ele>2023</ele>
        <time>2014-03-28T11:28:04Z</time>
      </trkpt>
      <trkpt lat="42.83534" lon="0.46082">
        <ele>2023</ele>
        <time>2014-03-28T11:28:19Z</time>
      </trkpt>
      <trkpt lat="42.83544" lon="0.46089">
        <ele>2023</ele>
        <time>2014-03-28T11:28:33Z</time>
      </trkpt>
      <trkpt lat="42.83552" lon="0.46096">
        <ele>2024</ele>
        <time>2014-03-28T11:28:46Z</time>
      </trkpt>
      <trkpt lat="42.83562" lon="0.46102">
        <ele>2027</ele>
        <time>2014-03-28T11:28:59Z</time>
      </trkpt>
      <trkpt lat="42.83572" lon="0.4611">
        <ele>2027</ele>
        <time>2014-03-28T11:29:14Z</time>
      </trkpt>
      <trkpt lat="42.83576" lon="0.46114">
        <ele>2028</ele>
        <time>2014-03-28T11:29:21Z</time>
      </trkpt>
      <trkpt lat="42.83579" lon="0.46117">
        <ele>2029</ele>
        <time>2014-03-28T11:29:36Z</time>
      </trkpt>
      <trkpt lat="42.83579" lon="0.46118">
        <ele>2029</ele>
        <time>2014-03-28T11:29:55Z</time>
      </trkpt>
      <trkpt lat="42.83578" lon="0.46117">
        <ele>2029</ele>
        <time>2014-03-28T11:30:16Z</time>
      </trkpt>
      <trkpt lat="42.8358" lon="0.46117">
        <ele>2029</ele>
        <time>2014-03-28T11:30:40Z</time>
      </trkpt>
      <trkpt lat="42.83586" lon="0.46123">
        <ele>2029</ele>
        <time>2014-03-28T11:30:57Z</time>
      </trkpt>
      <trkpt lat="42.83592" lon="0.46128">
        <ele>2029</ele>
        <time>2014-03-28T11:31:09Z</time>
      </trkpt>
      <trkpt lat="42.836" lon="0.46137">
        <ele>2031</ele>
        <time>2014-03-28T11:31:24Z</time>
      </trkpt>
      <trkpt lat="42.83607" lon="0.46144">
        <ele>2031</ele>
        <time>2014-03-28T11:31:37Z</time>
      </trkpt>
      <trkpt lat="42.83614" lon="0.46152">
        <ele>2032</ele>
        <time>2014-03-28T11:31:51Z</time>
      </trkpt>
      <trkpt lat="42.83623" lon="0.46159">
        <ele>2032</ele>
        <time>2014-03-28T11:32:04Z</time>
      </trkpt>
      <trkpt lat="42.83629" lon="0.46162">
        <ele>2035</ele>
        <time>2014-03-28T11:32:17Z</time>
      </trkpt>
      <trkpt lat="42.83636" lon="0.46166">
        <ele>2036</ele>
        <time>2014-03-28T11:32:30Z</time>
      </trkpt>
      <trkpt lat="42.83635" lon="0.46165">
        <ele>2036</ele>
        <time>2014-03-28T11:33:04Z</time>
      </trkpt>
      <trkpt lat="42.83637" lon="0.46167">
        <ele>2036</ele>
        <time>2014-03-28T11:33:26Z</time>
      </trkpt>
      <trkpt lat="42.83638" lon="0.46166">
        <ele>2037</ele>
        <time>2014-03-28T11:33:50Z</time>
      </trkpt>
      <trkpt lat="42.83637" lon="0.46165">
        <ele>2036</ele>
        <time>2014-03-28T11:34:27Z</time>
      </trkpt>
      <trkpt lat="42.83638" lon="0.46166">
        <ele>2036</ele>
        <time>2014-03-28T11:34:44Z</time>
      </trkpt>
      <trkpt lat="42.83638" lon="0.46166">
        <ele>2037</ele>
        <time>2014-03-28T11:34:59Z</time>
      </trkpt>
      <trkpt lat="42.83638" lon="0.46165">
        <ele>2037</ele>
        <time>2014-03-28T11:35:27Z</time>
      </trkpt>
      <trkpt lat="42.83642" lon="0.46165">
        <ele>2037</ele>
        <time>2014-03-28T11:35:46Z</time>
      </trkpt>
      <trkpt lat="42.83652" lon="0.46168">
        <ele>2037</ele>
        <time>2014-03-28T11:35:58Z</time>
      </trkpt>
      <trkpt lat="42.83662" lon="0.4617">
        <ele>2038</ele>
        <time>2014-03-28T11:36:11Z</time>
      </trkpt>
      <trkpt lat="42.83674" lon="0.46173">
        <ele>2038</ele>
        <time>2014-03-28T11:36:25Z</time>
      </trkpt>
      <trkpt lat="42.83685" lon="0.46177">
        <ele>2038</ele>
        <time>2014-03-28T11:36:38Z</time>
      </trkpt>
      <trkpt lat="42.83697" lon="0.4618">
        <ele>2039</ele>
        <time>2014-03-28T11:36:54Z</time>
      </trkpt>
      <trkpt lat="42.83704" lon="0.4619">
        <ele>2040</ele>
        <time>2014-03-28T11:37:07Z</time>
      </trkpt>
      <trkpt lat="42.83705" lon="0.46192">
        <ele>2041</ele>
        <time>2014-03-28T11:37:10Z</time>
      </trkpt>
      <trkpt lat="42.83712" lon="0.46198">
        <ele>2041</ele>
        <time>2014-03-28T11:37:24Z</time>
      </trkpt>
      <trkpt lat="42.83719" lon="0.46203">
        <ele>2042</ele>
        <time>2014-03-28T11:37:34Z</time>
      </trkpt>
      <trkpt lat="42.83729" lon="0.46211">
        <ele>2042</ele>
        <time>2014-03-28T11:37:48Z</time>
      </trkpt>
      <trkpt lat="42.83731" lon="0.46212">
        <ele>2043</ele>
        <time>2014-03-28T11:37:51Z</time>
      </trkpt>
      <trkpt lat="42.83739" lon="0.4622">
        <ele>2044</ele>
        <time>2014-03-28T11:38:04Z</time>
      </trkpt>
      <trkpt lat="42.83746" lon="0.4623">
        <ele>2044</ele>
        <time>2014-03-28T11:38:17Z</time>
      </trkpt>
      <trkpt lat="42.83752" lon="0.46237">
        <ele>2045</ele>
        <time>2014-03-28T11:38:29Z</time>
      </trkpt>
      <trkpt lat="42.83757" lon="0.46242">
        <ele>2047</ele>
        <time>2014-03-28T11:38:43Z</time>
      </trkpt>
      <trkpt lat="42.83763" lon="0.4625">
        <ele>2047</ele>
        <time>2014-03-28T11:38:59Z</time>
      </trkpt>
      <trkpt lat="42.83769" lon="0.46258">
        <ele>2049</ele>
        <time>2014-03-28T11:39:11Z</time>
      </trkpt>
      <trkpt lat="42.83777" lon="0.46267">
        <ele>2051</ele>
        <time>2014-03-28T11:39:27Z</time>
      </trkpt>
      <trkpt lat="42.83783" lon="0.46275">
        <ele>2053</ele>
        <time>2014-03-28T11:39:40Z</time>
      </trkpt>
      <trkpt lat="42.83792" lon="0.46286">
        <ele>2054</ele>
        <time>2014-03-28T11:39:56Z</time>
      </trkpt>
      <trkpt lat="42.838" lon="0.46295">
        <ele>2055</ele>
        <time>2014-03-28T11:40:08Z</time>
      </trkpt>
      <trkpt lat="42.83804" lon="0.46299">
        <ele>2056</ele>
        <time>2014-03-28T11:40:19Z</time>
      </trkpt>
      <trkpt lat="42.83811" lon="0.46306">
        <ele>2058</ele>
        <time>2014-03-28T11:40:33Z</time>
      </trkpt>
      <trkpt lat="42.8382" lon="0.46312">
        <ele>2058</ele>
        <time>2014-03-28T11:40:47Z</time>
      </trkpt>
      <trkpt lat="42.8383" lon="0.4632">
        <ele>2060</ele>
        <time>2014-03-28T11:41:01Z</time>
      </trkpt>
      <trkpt lat="42.83832" lon="0.46323">
        <ele>2060</ele>
        <time>2014-03-28T11:41:06Z</time>
      </trkpt>
      <trkpt lat="42.83841" lon="0.4633">
        <ele>2062</ele>
        <time>2014-03-28T11:41:20Z</time>
      </trkpt>
      <trkpt lat="42.8385" lon="0.46338">
        <ele>2063</ele>
        <time>2014-03-28T11:41:35Z</time>
      </trkpt>
      <trkpt lat="42.83858" lon="0.46343">
        <ele>2064</ele>
        <time>2014-03-28T11:41:48Z</time>
      </trkpt>
      <trkpt lat="42.83857" lon="0.46342">
        <ele>2064</ele>
        <time>2014-03-28T11:42:16Z</time>
      </trkpt>
      <trkpt lat="42.83859" lon="0.46344">
        <ele>2064</ele>
        <time>2014-03-28T11:42:39Z</time>
      </trkpt>
      <trkpt lat="42.83867" lon="0.46348">
        <ele>2064</ele>
        <time>2014-03-28T11:42:50Z</time>
      </trkpt>
      <trkpt lat="42.83873" lon="0.46352">
        <ele>2066</ele>
        <time>2014-03-28T11:43:02Z</time>
      </trkpt>
      <trkpt lat="42.83883" lon="0.46358">
        <ele>2067</ele>
        <time>2014-03-28T11:43:18Z</time>
      </trkpt>
      <trkpt lat="42.83891" lon="0.46365">
        <ele>2068</ele>
        <time>2014-03-28T11:43:31Z</time>
      </trkpt>
      <trkpt lat="42.83899" lon="0.46371">
        <ele>2070</ele>
        <time>2014-03-28T11:43:44Z</time>
      </trkpt>
      <trkpt lat="42.83904" lon="0.46374">
        <ele>2070</ele>
        <time>2014-03-28T11:43:57Z</time>
      </trkpt>
      <trkpt lat="42.83903" lon="0.46373">
        <ele>2070</ele>
        <time>2014-03-28T11:44:17Z</time>
      </trkpt>
      <trkpt lat="42.83907" lon="0.46376">
        <ele>2071</ele>
        <time>2014-03-28T11:44:35Z</time>
      </trkpt>
      <trkpt lat="42.83915" lon="0.4638">
        <ele>2073</ele>
        <time>2014-03-28T11:44:48Z</time>
      </trkpt>
      <trkpt lat="42.83916" lon="0.4638">
        <ele>2074</ele>
        <time>2014-03-28T11:44:50Z</time>
      </trkpt>
      <trkpt lat="42.83924" lon="0.46382">
        <ele>2075</ele>
        <time>2014-03-28T11:45:03Z</time>
      </trkpt>
      <trkpt lat="42.83932" lon="0.46385">
        <ele>2076</ele>
        <time>2014-03-28T11:45:16Z</time>
      </trkpt>
      <trkpt lat="42.8394" lon="0.46387">
        <ele>2078</ele>
        <time>2014-03-28T11:45:28Z</time>
      </trkpt>
      <trkpt lat="42.83949" lon="0.4639">
        <ele>2079</ele>
        <time>2014-03-28T11:45:41Z</time>
      </trkpt>
      <trkpt lat="42.83957" lon="0.46394">
        <ele>2081</ele>
        <time>2014-03-28T11:45:55Z</time>
      </trkpt>
      <trkpt lat="42.83964" lon="0.46398">
        <ele>2084</ele>
        <time>2014-03-28T11:46:08Z</time>
      </trkpt>
      <trkpt lat="42.83972" lon="0.46403">
        <ele>2086</ele>
        <time>2014-03-28T11:46:21Z</time>
      </trkpt>
      <trkpt lat="42.8398" lon="0.46408">
        <ele>2087</ele>
        <time>2014-03-28T11:46:36Z</time>
      </trkpt>
      <trkpt lat="42.83988" lon="0.46413">
        <ele>2086</ele>
        <time>2014-03-28T11:46:47Z</time>
      </trkpt>
      <trkpt lat="42.83999" lon="0.46419">
        <ele>2087</ele>
        <time>2014-03-28T11:47:02Z</time>
      </trkpt>
      <trkpt lat="42.84009" lon="0.46423">
        <ele>2088</ele>
        <time>2014-03-28T11:47:15Z</time>
      </trkpt>
      <trkpt lat="42.84019" lon="0.46429">
        <ele>2088</ele>
        <time>2014-03-28T11:47:28Z</time>
      </trkpt>
      <trkpt lat="42.84023" lon="0.46433">
        <ele>2091</ele>
        <time>2014-03-28T11:47:43Z</time>
      </trkpt>
      <trkpt lat="42.84025" lon="0.46436">
        <ele>2089</ele>
        <time>2014-03-28T11:48:01Z</time>
      </trkpt>
      <trkpt lat="42.84028" lon="0.46437">
        <ele>2087</ele>
        <time>2014-03-28T11:48:20Z</time>
      </trkpt>
      <trkpt lat="42.84032" lon="0.4644">
        <ele>2085</ele>
        <time>2014-03-28T11:48:34Z</time>
      </trkpt>
      <trkpt lat="42.84037" lon="0.46445">
        <ele>2083</ele>
        <time>2014-03-28T11:48:46Z</time>
      </trkpt>
      <trkpt lat="42.84042" lon="0.46449">
        <ele>2081</ele>
        <time>2014-03-28T11:49:03Z</time>
      </trkpt>
      <trkpt lat="42.84051" lon="0.46456">
        <ele>2078</ele>
        <time>2014-03-28T11:49:16Z</time>
      </trkpt>
      <trkpt lat="42.84054" lon="0.46458">
        <ele>2077</ele>
        <time>2014-03-28T11:49:19Z</time>
      </trkpt>
      <trkpt lat="42.8406" lon="0.46464">
        <ele>2074</ele>
        <time>2014-03-28T11:49:29Z</time>
      </trkpt>
      <trkpt lat="42.84063" lon="0.46467">
        <ele>2074</ele>
        <time>2014-03-28T11:49:42Z</time>
      </trkpt>
      <trkpt lat="42.84063" lon="0.46466">
        <ele>2074</ele>
        <time>2014-03-28T11:50:00Z</time>
      </trkpt>
      <trkpt lat="42.84062" lon="0.46465">
        <ele>2074</ele>
        <time>2014-03-28T11:50:25Z</time>
      </trkpt>
      <trkpt lat="42.84063" lon="0.46465">
        <ele>2073</ele>
        <time>2014-03-28T11:50:43Z</time>
      </trkpt>
      <trkpt lat="42.8407" lon="0.46469">
        <ele>2072</ele>
        <time>2014-03-28T11:50:57Z</time>
      </trkpt>
      <trkpt lat="42.84072" lon="0.46471">
        <ele>2071</ele>
        <time>2014-03-28T11:51:00Z</time>
      </trkpt>
      <trkpt lat="42.84083" lon="0.46477">
        <ele>2069</ele>
        <time>2014-03-28T11:51:14Z</time>
      </trkpt>
      <trkpt lat="42.84089" lon="0.46483">
        <ele>2068</ele>
        <time>2014-03-28T11:51:26Z</time>
      </trkpt>
      <trkpt lat="42.84098" lon="0.4649">
        <ele>2066</ele>
        <time>2014-03-28T11:51:39Z</time>
      </trkpt>
      <trkpt lat="42.84108" lon="0.46495">
        <ele>2064</ele>
        <time>2014-03-28T11:51:52Z</time>
      </trkpt>
      <trkpt lat="42.84118" lon="0.465">
        <ele>2062</ele>
        <time>2014-03-28T11:52:04Z</time>
      </trkpt>
      <trkpt lat="42.84127" lon="0.46506">
        <ele>2059</ele>
        <time>2014-03-28T11:52:17Z</time>
      </trkpt>
      <trkpt lat="42.84135" lon="0.46514">
        <ele>2057</ele>
        <time>2014-03-28T11:52:30Z</time>
      </trkpt>
      <trkpt lat="42.84137" lon="0.46516">
        <ele>2055</ele>
        <time>2014-03-28T11:52:32Z</time>
      </trkpt>
      <trkpt lat="42.84144" lon="0.46521">
        <ele>2053</ele>
        <time>2014-03-28T11:52:46Z</time>
      </trkpt>
      <trkpt lat="42.84145" lon="0.46523">
        <ele>2053</ele>
        <time>2014-03-28T11:53:06Z</time>
      </trkpt>
      <trkpt lat="42.84153" lon="0.46532">
        <ele>2051</ele>
        <time>2014-03-28T11:53:19Z</time>
      </trkpt>
      <trkpt lat="42.84162" lon="0.46541">
        <ele>2048</ele>
        <time>2014-03-28T11:53:34Z</time>
      </trkpt>
      <trkpt lat="42.8417" lon="0.46547">
        <ele>2047</ele>
        <time>2014-03-28T11:53:46Z</time>
      </trkpt>
      <trkpt lat="42.8418" lon="0.46554">
        <ele>2047</ele>
        <time>2014-03-28T11:53:58Z</time>
      </trkpt>
      <trkpt lat="42.84191" lon="0.46561">
        <ele>2046</ele>
        <time>2014-03-28T11:54:12Z</time>
      </trkpt>
      <trkpt lat="42.84201" lon="0.46565">
        <ele>2046</ele>
        <time>2014-03-28T11:54:25Z</time>
      </trkpt>
      <trkpt lat="42.84207" lon="0.46567">
        <ele>2045</ele>
        <time>2014-03-28T11:54:37Z</time>
      </trkpt>
      <trkpt lat="42.84207" lon="0.46568">
        <ele>2045</ele>
        <time>2014-03-28T11:55:00Z</time>
      </trkpt>
      <trkpt lat="42.84213" lon="0.46574">
        <ele>2043</ele>
        <time>2014-03-28T11:55:12Z</time>
      </trkpt>
      <trkpt lat="42.84222" lon="0.4658">
        <ele>2041</ele>
        <time>2014-03-28T11:55:24Z</time>
      </trkpt>
      <trkpt lat="42.84233" lon="0.46583">
        <ele>2039</ele>
        <time>2014-03-28T11:55:38Z</time>
      </trkpt>
      <trkpt lat="42.8424" lon="0.46586">
        <ele>2036</ele>
        <time>2014-03-28T11:55:50Z</time>
      </trkpt>
      <trkpt lat="42.8425" lon="0.46588">
        <ele>2033</ele>
        <time>2014-03-28T11:56:02Z</time>
      </trkpt>
      <trkpt lat="42.84257" lon="0.4659">
        <ele>2032</ele>
        <time>2014-03-28T11:56:14Z</time>
      </trkpt>
      <trkpt lat="42.84262" lon="0.46593">
        <ele>2031</ele>
        <time>2014-03-28T11:56:37Z</time>
      </trkpt>
      <trkpt lat="42.84271" lon="0.46598">
        <ele>2029</ele>
        <time>2014-03-28T11:56:50Z</time>
      </trkpt>
      <trkpt lat="42.8428" lon="0.46603">
        <ele>2026</ele>
        <time>2014-03-28T11:57:02Z</time>
      </trkpt>
      <trkpt lat="42.8429" lon="0.4661">
        <ele>2024</ele>
        <time>2014-03-28T11:57:16Z</time>
      </trkpt>
      <trkpt lat="42.84298" lon="0.46614">
        <ele>2022</ele>
        <time>2014-03-28T11:57:28Z</time>
      </trkpt>
      <trkpt lat="42.84306" lon="0.46617">
        <ele>2021</ele>
        <time>2014-03-28T11:57:37Z</time>
      </trkpt>
      <trkpt lat="42.84315" lon="0.46621">
        <ele>2020</ele>
        <time>2014-03-28T11:57:49Z</time>
      </trkpt>
      <trkpt lat="42.8432" lon="0.46624">
        <ele>2020</ele>
        <time>2014-03-28T11:57:55Z</time>
      </trkpt>
      <trkpt lat="42.84325" lon="0.46627">
        <ele>2019</ele>
        <time>2014-03-28T11:58:01Z</time>
      </trkpt>
      <trkpt lat="42.84329" lon="0.4663">
        <ele>2019</ele>
        <time>2014-03-28T11:58:06Z</time>
      </trkpt>
      <trkpt lat="42.8434" lon="0.46636">
        <ele>2019</ele>
        <time>2014-03-28T11:58:20Z</time>
      </trkpt>
      <trkpt lat="42.84348" lon="0.46641">
        <ele>2020</ele>
        <time>2014-03-28T11:58:31Z</time>
      </trkpt>
      <trkpt lat="42.84358" lon="0.46646">
        <ele>2021</ele>
        <time>2014-03-28T11:58:45Z</time>
      </trkpt>
      <trkpt lat="42.84366" lon="0.4665">
        <ele>2021</ele>
        <time>2014-03-28T11:58:58Z</time>
      </trkpt>
      <trkpt lat="42.84373" lon="0.46654">
        <ele>2022</ele>
        <time>2014-03-28T11:59:09Z</time>
      </trkpt>
      <trkpt lat="42.84378" lon="0.46657">
        <ele>2023</ele>
        <time>2014-03-28T11:59:21Z</time>
      </trkpt>
      <trkpt lat="42.84388" lon="0.46662">
        <ele>2024</ele>
        <time>2014-03-28T11:59:35Z</time>
      </trkpt>
      <trkpt lat="42.84399" lon="0.46668">
        <ele>2025</ele>
        <time>2014-03-28T11:59:48Z</time>
      </trkpt>
      <trkpt lat="42.84403" lon="0.46668">
        <ele>2026</ele>
        <time>2014-03-28T12:00:01Z</time>
      </trkpt>
      <trkpt lat="42.84402" lon="0.46667">
        <ele>2024</ele>
        <time>2014-03-28T12:00:16Z</time>
      </trkpt>
      <trkpt lat="42.84402" lon="0.46667">
        <ele>2024</ele>
        <time>2014-03-28T12:00:17Z</time>
      </trkpt>
      <trkpt lat="42.84403" lon="0.46669">
        <ele>2024</ele>
        <time>2014-03-28T12:00:39Z</time>
      </trkpt>
      <trkpt lat="42.84401" lon="0.46668">
        <ele>2025</ele>
        <time>2014-03-28T12:01:02Z</time>
      </trkpt>
      <trkpt lat="42.844" lon="0.46666">
        <ele>2025</ele>
        <time>2014-03-28T12:01:16Z</time>
      </trkpt>
      <trkpt lat="42.84398" lon="0.46664">
        <ele>2025</ele>
        <time>2014-03-28T12:01:43Z</time>
      </trkpt>
      <trkpt lat="42.84398" lon="0.46664">
        <ele>2026</ele>
        <time>2014-03-28T12:02:18Z</time>
      </trkpt>
      <trkpt lat="42.844" lon="0.46664">
        <ele>2025</ele>
        <time>2014-03-28T12:02:52Z</time>
      </trkpt>
      <trkpt lat="42.84401" lon="0.46667">
        <ele>2025</ele>
        <time>2014-03-28T12:03:26Z</time>
      </trkpt>
      <trkpt lat="42.84403" lon="0.46666">
        <ele>2025</ele>
        <time>2014-03-28T12:03:46Z</time>
      </trkpt>
      <trkpt lat="42.84405" lon="0.46668">
        <ele>2025</ele>
        <time>2014-03-28T12:04:11Z</time>
      </trkpt>
      <trkpt lat="42.84403" lon="0.4667">
        <ele>2026</ele>
        <time>2014-03-28T12:04:46Z</time>
      </trkpt>
      <trkpt lat="42.84403" lon="0.46668">
        <ele>2026</ele>
        <time>2014-03-28T12:05:05Z</time>
      </trkpt>
      <trkpt lat="42.84402" lon="0.46667">
        <ele>2026</ele>
        <time>2014-03-28T12:05:23Z</time>
      </trkpt>
      <trkpt lat="42.84403" lon="0.46665">
        <ele>2024</ele>
        <time>2014-03-28T12:05:38Z</time>
      </trkpt>
      <trkpt lat="42.84402" lon="0.46667">
        <ele>2025</ele>
        <time>2014-03-28T12:06:27Z</time>
      </trkpt>
      <trkpt lat="42.84403" lon="0.46667">
        <ele>2025</ele>
        <time>2014-03-28T12:07:09Z</time>
      </trkpt>
      <trkpt lat="42.84403" lon="0.46667">
        <ele>2025</ele>
        <time>2014-03-28T12:07:47Z</time>
      </trkpt>
      <trkpt lat="42.84405" lon="0.46668">
        <ele>2026</ele>
        <time>2014-03-28T12:08:37Z</time>
      </trkpt>
      <trkpt lat="42.84405" lon="0.46669">
        <ele>2025</ele>
        <time>2014-03-28T12:09:14Z</time>
      </trkpt>
      <trkpt lat="42.84404" lon="0.46669">
        <ele>2025</ele>
        <time>2014-03-28T12:10:01Z</time>
      </trkpt>
      <trkpt lat="42.84404" lon="0.46668">
        <ele>2023</ele>
        <time>2014-03-28T12:10:44Z</time>
      </trkpt>
      <trkpt lat="42.84404" lon="0.46668">
        <ele>2023</ele>
        <time>2014-03-28T12:11:17Z</time>
      </trkpt>
      <trkpt lat="42.84403" lon="0.4667">
        <ele>2023</ele>
        <time>2014-03-28T12:12:06Z</time>
      </trkpt>
      <trkpt lat="42.84403" lon="0.46669">
        <ele>2025</ele>
        <time>2014-03-28T12:12:52Z</time>
      </trkpt>
      <trkpt lat="42.84403" lon="0.4667">
        <ele>2025</ele>
        <time>2014-03-28T12:13:17Z</time>
      </trkpt>
      <trkpt lat="42.84403" lon="0.4667">
        <ele>2023</ele>
        <time>2014-03-28T12:14:09Z</time>
      </trkpt>
      <trkpt lat="42.84403" lon="0.46671">
        <ele>2023</ele>
        <time>2014-03-28T12:14:38Z</time>
      </trkpt>
      <trkpt lat="42.84402" lon="0.4667">
        <ele>2023</ele>
        <time>2014-03-28T12:15:19Z</time>
      </trkpt>
      <trkpt lat="42.84402" lon="0.4667">
        <ele>2024</ele>
        <time>2014-03-28T12:15:55Z</time>
      </trkpt>
      <trkpt lat="42.84403" lon="0.46671">
        <ele>2024</ele>
        <time>2014-03-28T12:16:46Z</time>
      </trkpt>
      <trkpt lat="42.84403" lon="0.4667">
        <ele>2024</ele>
        <time>2014-03-28T12:17:20Z</time>
      </trkpt>
      <trkpt lat="42.84403" lon="0.46671">
        <ele>2023</ele>
        <time>2014-03-28T12:18:08Z</time>
      </trkpt>
      <trkpt lat="42.84403" lon="0.46671">
        <ele>2023</ele>
        <time>2014-03-28T12:18:50Z</time>
      </trkpt>
      <trkpt lat="42.84403" lon="0.46671">
        <ele>2023</ele>
        <time>2014-03-28T12:19:28Z</time>
      </trkpt>
      <trkpt lat="42.84404" lon="0.46671">
        <ele>2023</ele>
        <time>2014-03-28T12:20:14Z</time>
      </trkpt>
      <trkpt lat="42.84403" lon="0.4667">
        <ele>2022</ele>
        <time>2014-03-28T12:20:41Z</time>
      </trkpt>
      <trkpt lat="42.84403" lon="0.46671">
        <ele>2022</ele>
        <time>2014-03-28T12:21:20Z</time>
      </trkpt>
      <trkpt lat="42.84403" lon="0.46671">
        <ele>2022</ele>
        <time>2014-03-28T12:22:04Z</time>
      </trkpt>
      <trkpt lat="42.84404" lon="0.46671">
        <ele>2023</ele>
        <time>2014-03-28T12:22:46Z</time>
      </trkpt>
      <trkpt lat="42.84403" lon="0.46671">
        <ele>2022</ele>
        <time>2014-03-28T12:23:23Z</time>
      </trkpt>
      <trkpt lat="42.84403" lon="0.46671">
        <ele>2022</ele>
        <time>2014-03-28T12:24:09Z</time>
      </trkpt>
      <trkpt lat="42.84403" lon="0.46671">
        <ele>2022</ele>
        <time>2014-03-28T12:24:50Z</time>
      </trkpt>
      <trkpt lat="42.84403" lon="0.46671">
        <ele>2022</ele>
        <time>2014-03-28T12:25:23Z</time>
      </trkpt>
      <trkpt lat="42.84403" lon="0.46671">
        <ele>2023</ele>
        <time>2014-03-28T12:25:56Z</time>
      </trkpt>
      <trkpt lat="42.84404" lon="0.4667">
        <ele>2023</ele>
        <time>2014-03-28T12:26:45Z</time>
      </trkpt>
      <trkpt lat="42.84403" lon="0.4667">
        <ele>2023</ele>
        <time>2014-03-28T12:27:33Z</time>
      </trkpt>
      <trkpt lat="42.84403" lon="0.46671">
        <ele>2023</ele>
        <time>2014-03-28T12:28:11Z</time>
      </trkpt>
      <trkpt lat="42.84404" lon="0.46671">
        <ele>2023</ele>
        <time>2014-03-28T12:28:43Z</time>
      </trkpt>
      <trkpt lat="42.84403" lon="0.4667">
        <ele>2023</ele>
        <time>2014-03-28T12:29:22Z</time>
      </trkpt>
      <trkpt lat="42.84403" lon="0.46671">
        <ele>2023</ele>
        <time>2014-03-28T12:30:06Z</time>
      </trkpt>
      <trkpt lat="42.84404" lon="0.46671">
        <ele>2023</ele>
        <time>2014-03-28T12:30:42Z</time>
      </trkpt>
      <trkpt lat="42.84404" lon="0.46671">
        <ele>2023</ele>
        <time>2014-03-28T12:31:06Z</time>
      </trkpt>
      <trkpt lat="42.84404" lon="0.46672">
        <ele>2023</ele>
        <time>2014-03-28T12:31:34Z</time>
      </trkpt>
      <trkpt lat="42.84405" lon="0.46672">
        <ele>2024</ele>
        <time>2014-03-28T12:32:05Z</time>
      </trkpt>
      <trkpt lat="42.84405" lon="0.46673">
        <ele>2023</ele>
        <time>2014-03-28T12:32:32Z</time>
      </trkpt>
      <trkpt lat="42.84404" lon="0.46671">
        <ele>2023</ele>
        <time>2014-03-28T12:33:06Z</time>
      </trkpt>
      <trkpt lat="42.84404" lon="0.46672">
        <ele>2022</ele>
        <time>2014-03-28T12:33:45Z</time>
      </trkpt>
      <trkpt lat="42.84405" lon="0.46672">
        <ele>2022</ele>
        <time>2014-03-28T12:34:26Z</time>
      </trkpt>
      <trkpt lat="42.84405" lon="0.46671">
        <ele>2022</ele>
        <time>2014-03-28T12:35:01Z</time>
      </trkpt>
      <trkpt lat="42.84404" lon="0.46672">
        <ele>2023</ele>
        <time>2014-03-28T12:35:37Z</time>
      </trkpt>
      <trkpt lat="42.84404" lon="0.46671">
        <ele>2023</ele>
        <time>2014-03-28T12:36:11Z</time>
      </trkpt>
      <trkpt lat="42.84405" lon="0.46672">
        <ele>2023</ele>
        <time>2014-03-28T12:36:49Z</time>
      </trkpt>
      <trkpt lat="42.84404" lon="0.46672">
        <ele>2023</ele>
        <time>2014-03-28T12:37:18Z</time>
      </trkpt>
      <trkpt lat="42.84404" lon="0.46672">
        <ele>2023</ele>
        <time>2014-03-28T12:37:56Z</time>
      </trkpt>
      <trkpt lat="42.84403" lon="0.46672">
        <ele>2023</ele>
        <time>2014-03-28T12:38:39Z</time>
      </trkpt>
      <trkpt lat="42.84404" lon="0.46671">
        <ele>2023</ele>
        <time>2014-03-28T12:39:14Z</time>
      </trkpt>
      <trkpt lat="42.84404" lon="0.46672">
        <ele>2023</ele>
        <time>2014-03-28T12:39:52Z</time>
      </trkpt>
      <trkpt lat="42.84405" lon="0.46672">
        <ele>2023</ele>
        <time>2014-03-28T12:40:26Z</time>
      </trkpt>
      <trkpt lat="42.84404" lon="0.46672">
        <ele>2024</ele>
        <time>2014-03-28T12:41:00Z</time>
      </trkpt>
      <trkpt lat="42.84404" lon="0.46672">
        <ele>2024</ele>
        <time>2014-03-28T12:41:25Z</time>
      </trkpt>
      <trkpt lat="42.84404" lon="0.46672">
        <ele>2023</ele>
        <time>2014-03-28T12:41:51Z</time>
      </trkpt>
      <trkpt lat="42.84404" lon="0.46671">
        <ele>2024</ele>
        <time>2014-03-28T12:42:22Z</time>
      </trkpt>
      <trkpt lat="42.84404" lon="0.46672">
        <ele>2023</ele>
        <time>2014-03-28T12:42:52Z</time>
      </trkpt>
      <trkpt lat="42.84404" lon="0.46672">
        <ele>2023</ele>
        <time>2014-03-28T12:43:34Z</time>
      </trkpt>
      <trkpt lat="42.84405" lon="0.46672">
        <ele>2023</ele>
        <time>2014-03-28T12:44:10Z</time>
      </trkpt>
      <trkpt lat="42.84404" lon="0.46672">
        <ele>2023</ele>
        <time>2014-03-28T12:44:39Z</time>
      </trkpt>
      <trkpt lat="42.84404" lon="0.46672">
        <ele>2023</ele>
        <time>2014-03-28T12:45:05Z</time>
      </trkpt>
      <trkpt lat="42.84404" lon="0.46671">
        <ele>2023</ele>
        <time>2014-03-28T12:45:37Z</time>
      </trkpt>
      <trkpt lat="42.84404" lon="0.4667">
        <ele>2023</ele>
        <time>2014-03-28T12:46:18Z</time>
      </trkpt>
      <trkpt lat="42.84403" lon="0.4667">
        <ele>2024</ele>
        <time>2014-03-28T12:46:51Z</time>
      </trkpt>
      <trkpt lat="42.84403" lon="0.46671">
        <ele>2023</ele>
        <time>2014-03-28T12:47:22Z</time>
      </trkpt>
      <trkpt lat="42.84404" lon="0.46671">
        <ele>2024</ele>
        <time>2014-03-28T12:47:49Z</time>
      </trkpt>
      <trkpt lat="42.84404" lon="0.46672">
        <ele>2024</ele>
        <time>2014-03-28T12:48:23Z</time>
      </trkpt>
      <trkpt lat="42.84404" lon="0.46671">
        <ele>2024</ele>
        <time>2014-03-28T12:48:57Z</time>
      </trkpt>
      <trkpt lat="42.84404" lon="0.46671">
        <ele>2024</ele>
        <time>2014-03-28T12:49:31Z</time>
      </trkpt>
      <trkpt lat="42.84405" lon="0.46671">
        <ele>2024</ele>
        <time>2014-03-28T12:50:14Z</time>
      </trkpt>
      <trkpt lat="42.84405" lon="0.46671">
        <ele>2024</ele>
        <time>2014-03-28T12:50:31Z</time>
      </trkpt>
      <trkpt lat="42.84404" lon="0.46672">
        <ele>2023</ele>
        <time>2014-03-28T12:51:06Z</time>
      </trkpt>
      <trkpt lat="42.84405" lon="0.46672">
        <ele>2023</ele>
        <time>2014-03-28T12:51:35Z</time>
      </trkpt>
      <trkpt lat="42.84405" lon="0.4667">
        <ele>2023</ele>
        <time>2014-03-28T12:52:07Z</time>
      </trkpt>
      <trkpt lat="42.84404" lon="0.46673">
        <ele>2023</ele>
        <time>2014-03-28T12:52:42Z</time>
      </trkpt>
      <trkpt lat="42.84404" lon="0.46671">
        <ele>2023</ele>
        <time>2014-03-28T12:53:23Z</time>
      </trkpt>
      <trkpt lat="42.84407" lon="0.46672">
        <ele>2024</ele>
        <time>2014-03-28T12:54:00Z</time>
      </trkpt>
      <trkpt lat="42.84406" lon="0.46668">
        <ele>2022</ele>
        <time>2014-03-28T12:54:30Z</time>
      </trkpt>
      <trkpt lat="42.84406" lon="0.46668">
        <ele>2023</ele>
        <time>2014-03-28T12:54:32Z</time>
      </trkpt>
      <trkpt lat="42.84406" lon="0.46669">
        <ele>2022</ele>
        <time>2014-03-28T12:55:05Z</time>
      </trkpt>
      <trkpt lat="42.84407" lon="0.46671">
        <ele>2026</ele>
        <time>2014-03-28T12:55:07Z</time>
      </trkpt>
      <trkpt lat="42.84407" lon="0.46673">
        <ele>2024</ele>
        <time>2014-03-28T12:55:38Z</time>
      </trkpt>
      <trkpt lat="42.84406" lon="0.4667">
        <ele>2023</ele>
        <time>2014-03-28T12:55:53Z</time>
      </trkpt>
      <trkpt lat="42.84406" lon="0.46667">
        <ele>2023</ele>
        <time>2014-03-28T12:56:20Z</time>
      </trkpt>
      <trkpt lat="42.84405" lon="0.46667">
        <ele>2023</ele>
        <time>2014-03-28T12:56:48Z</time>
      </trkpt>
      <trkpt lat="42.84405" lon="0.46666">
        <ele>2024</ele>
        <time>2014-03-28T12:57:13Z</time>
      </trkpt>
      <trkpt lat="42.84405" lon="0.46666">
        <ele>2024</ele>
        <time>2014-03-28T12:57:40Z</time>
      </trkpt>
      <trkpt lat="42.84405" lon="0.46667">
        <ele>2023</ele>
        <time>2014-03-28T12:58:09Z</time>
      </trkpt>
      <trkpt lat="42.84406" lon="0.46666">
        <ele>2024</ele>
        <time>2014-03-28T12:58:39Z</time>
      </trkpt>
      <trkpt lat="42.84405" lon="0.46667">
        <ele>2024</ele>
        <time>2014-03-28T12:59:08Z</time>
      </trkpt>
      <trkpt lat="42.84406" lon="0.46666">
        <ele>2025</ele>
        <time>2014-03-28T12:59:21Z</time>
      </trkpt>
      <trkpt lat="42.84405" lon="0.46668">
        <ele>2025</ele>
        <time>2014-03-28T12:59:38Z</time>
      </trkpt>
      <trkpt lat="42.84405" lon="0.46667">
        <ele>2026</ele>
        <time>2014-03-28T13:00:02Z</time>
      </trkpt>
      <trkpt lat="42.84405" lon="0.46666">
        <ele>2026</ele>
        <time>2014-03-28T13:00:21Z</time>
      </trkpt>
      <trkpt lat="42.84405" lon="0.46667">
        <ele>2025</ele>
        <time>2014-03-28T13:00:37Z</time>
      </trkpt>
      <trkpt lat="42.84404" lon="0.46665">
        <ele>2025</ele>
        <time>2014-03-28T13:00:55Z</time>
      </trkpt>
      <trkpt lat="42.84406" lon="0.46665">
        <ele>2025</ele>
        <time>2014-03-28T13:01:11Z</time>
      </trkpt>
      <trkpt lat="42.84405" lon="0.46666">
        <ele>2027</ele>
        <time>2014-03-28T13:01:20Z</time>
      </trkpt>
      <trkpt lat="42.84403" lon="0.46666">
        <ele>2026</ele>
        <time>2014-03-28T13:01:31Z</time>
      </trkpt>
      <trkpt lat="42.84393" lon="0.46658">
        <ele>2024</ele>
        <time>2014-03-28T13:01:44Z</time>
      </trkpt>
      <trkpt lat="42.84383" lon="0.46649">
        <ele>2023</ele>
        <time>2014-03-28T13:01:55Z</time>
      </trkpt>
      <trkpt lat="42.84378" lon="0.46648">
        <ele>2022</ele>
        <time>2014-03-28T13:02:01Z</time>
      </trkpt>
      <trkpt lat="42.84375" lon="0.46648">
        <ele>2021</ele>
        <time>2014-03-28T13:02:05Z</time>
      </trkpt>
      <trkpt lat="42.84363" lon="0.46643">
        <ele>2020</ele>
        <time>2014-03-28T13:02:19Z</time>
      </trkpt>
      <trkpt lat="42.84359" lon="0.46641">
        <ele>2020</ele>
        <time>2014-03-28T13:02:23Z</time>
      </trkpt>
      <trkpt lat="42.84347" lon="0.46633">
        <ele>2020</ele>
        <time>2014-03-28T13:02:38Z</time>
      </trkpt>
      <trkpt lat="42.84336" lon="0.46626">
        <ele>2019</ele>
        <time>2014-03-28T13:02:51Z</time>
      </trkpt>
      <trkpt lat="42.84336" lon="0.46625">
        <ele>2019</ele>
        <time>2014-03-28T13:02:52Z</time>
      </trkpt>
      <trkpt lat="42.84327" lon="0.46614">
        <ele>2019</ele>
        <time>2014-03-28T13:03:05Z</time>
      </trkpt>
      <trkpt lat="42.84324" lon="0.46612">
        <ele>2019</ele>
        <time>2014-03-28T13:03:08Z</time>
      </trkpt>
      <trkpt lat="42.84317" lon="0.46608">
        <ele>2019</ele>
        <time>2014-03-28T13:03:16Z</time>
      </trkpt>
      <trkpt lat="42.84308" lon="0.46605">
        <ele>2020</ele>
        <time>2014-03-28T13:03:28Z</time>
      </trkpt>
      <trkpt lat="42.84304" lon="0.46606">
        <ele>2021</ele>
        <time>2014-03-28T13:03:40Z</time>
      </trkpt>
      <trkpt lat="42.84299" lon="0.46604">
        <ele>2022</ele>
        <time>2014-03-28T13:03:55Z</time>
      </trkpt>
      <trkpt lat="42.84298" lon="0.46603">
        <ele>2022</ele>
        <time>2014-03-28T13:04:10Z</time>
      </trkpt>
      <trkpt lat="42.843" lon="0.46604">
        <ele>2020</ele>
        <time>2014-03-28T13:04:42Z</time>
      </trkpt>
      <trkpt lat="42.84298" lon="0.46604">
        <ele>2022</ele>
        <time>2014-03-28T13:05:05Z</time>
      </trkpt>
      <trkpt lat="42.84298" lon="0.46601">
        <ele>2022</ele>
        <time>2014-03-28T13:05:24Z</time>
      </trkpt>
      <trkpt lat="42.84298" lon="0.46602">
        <ele>2022</ele>
        <time>2014-03-28T13:05:46Z</time>
      </trkpt>
      <trkpt lat="42.84288" lon="0.46595">
        <ele>2024</ele>
        <time>2014-03-28T13:06:02Z</time>
      </trkpt>
      <trkpt lat="42.84281" lon="0.46595">
        <ele>2025</ele>
        <time>2014-03-28T13:06:15Z</time>
      </trkpt>
      <trkpt lat="42.84275" lon="0.46593">
        <ele>2028</ele>
        <time>2014-03-28T13:06:28Z</time>
      </trkpt>
      <trkpt lat="42.8427" lon="0.4659">
        <ele>2029</ele>
        <time>2014-03-28T13:06:35Z</time>
      </trkpt>
      <trkpt lat="42.84264" lon="0.46585">
        <ele>2030</ele>
        <time>2014-03-28T13:06:49Z</time>
      </trkpt>
      <trkpt lat="42.84255" lon="0.46582">
        <ele>2033</ele>
        <time>2014-03-28T13:07:03Z</time>
      </trkpt>
      <trkpt lat="42.84249" lon="0.46581">
        <ele>2032</ele>
        <time>2014-03-28T13:07:16Z</time>
      </trkpt>
      <trkpt lat="42.84242" lon="0.46582">
        <ele>2034</ele>
        <time>2014-03-28T13:07:30Z</time>
      </trkpt>
      <trkpt lat="42.84234" lon="0.46582">
        <ele>2037</ele>
        <time>2014-03-28T13:07:44Z</time>
      </trkpt>
      <trkpt lat="42.84226" lon="0.46583">
        <ele>2039</ele>
        <time>2014-03-28T13:08:00Z</time>
      </trkpt>
      <trkpt lat="42.84221" lon="0.46584">
        <ele>2041</ele>
        <time>2014-03-28T13:08:15Z</time>
      </trkpt>
      <trkpt lat="42.84214" lon="0.46577">
        <ele>2044</ele>
        <time>2014-03-28T13:08:35Z</time>
      </trkpt>
      <trkpt lat="42.84209" lon="0.46575">
        <ele>2045</ele>
        <time>2014-03-28T13:08:46Z</time>
      </trkpt>
      <trkpt lat="42.842" lon="0.46572">
        <ele>2046</ele>
        <time>2014-03-28T13:09:00Z</time>
      </trkpt>
      <trkpt lat="42.8419" lon="0.4657">
        <ele>2047</ele>
        <time>2014-03-28T13:09:14Z</time>
      </trkpt>
      <trkpt lat="42.84183" lon="0.46567">
        <ele>2047</ele>
        <time>2014-03-28T13:09:26Z</time>
      </trkpt>
      <trkpt lat="42.84172" lon="0.46561">
        <ele>2048</ele>
        <time>2014-03-28T13:09:40Z</time>
      </trkpt>
      <trkpt lat="42.84165" lon="0.46557">
        <ele>2049</ele>
        <time>2014-03-28T13:09:55Z</time>
      </trkpt>
      <trkpt lat="42.84158" lon="0.46552">
        <ele>2052</ele>
        <time>2014-03-28T13:10:09Z</time>
      </trkpt>
      <trkpt lat="42.84151" lon="0.46547">
        <ele>2053</ele>
        <time>2014-03-28T13:10:25Z</time>
      </trkpt>
      <trkpt lat="42.84143" lon="0.4654">
        <ele>2054</ele>
        <time>2014-03-28T13:10:39Z</time>
      </trkpt>
      <trkpt lat="42.84139" lon="0.46536">
        <ele>2056</ele>
        <time>2014-03-28T13:10:52Z</time>
      </trkpt>
      <trkpt lat="42.84133" lon="0.46531">
        <ele>2058</ele>
        <time>2014-03-28T13:11:08Z</time>
      </trkpt>
      <trkpt lat="42.84127" lon="0.46526">
        <ele>2060</ele>
        <time>2014-03-28T13:11:19Z</time>
      </trkpt>
      <trkpt lat="42.84121" lon="0.46523">
        <ele>2061</ele>
        <time>2014-03-28T13:11:31Z</time>
      </trkpt>
      <trkpt lat="42.84118" lon="0.46521">
        <ele>2064</ele>
        <time>2014-03-28T13:11:40Z</time>
      </trkpt>
      <trkpt lat="42.84116" lon="0.4652">
        <ele>2064</ele>
        <time>2014-03-28T13:11:47Z</time>
      </trkpt>
      <trkpt lat="42.84108" lon="0.46513">
        <ele>2066</ele>
        <time>2014-03-28T13:12:02Z</time>
      </trkpt>
      <trkpt lat="42.84102" lon="0.46508">
        <ele>2066</ele>
        <time>2014-03-28T13:12:15Z</time>
      </trkpt>
      <trkpt lat="42.84098" lon="0.46504">
        <ele>2066</ele>
        <time>2014-03-28T13:12:24Z</time>
      </trkpt>
      <trkpt lat="42.84092" lon="0.46497">
        <ele>2068</ele>
        <time>2014-03-28T13:12:39Z</time>
      </trkpt>
      <trkpt lat="42.84088" lon="0.46492">
        <ele>2069</ele>
        <time>2014-03-28T13:12:47Z</time>
      </trkpt>
      <trkpt lat="42.84084" lon="0.46488">
        <ele>2072</ele>
        <time>2014-03-28T13:12:58Z</time>
      </trkpt>
      <trkpt lat="42.84083" lon="0.46487">
        <ele>2070</ele>
        <time>2014-03-28T13:13:01Z</time>
      </trkpt>
      <trkpt lat="42.84082" lon="0.46486">
        <ele>2071</ele>
        <time>2014-03-28T13:13:03Z</time>
      </trkpt>
      <trkpt lat="42.84079" lon="0.46483">
        <ele>2072</ele>
        <time>2014-03-28T13:13:07Z</time>
      </trkpt>
      <trkpt lat="42.84075" lon="0.46477">
        <ele>2072</ele>
        <time>2014-03-28T13:13:19Z</time>
      </trkpt>
      <trkpt lat="42.84067" lon="0.4647">
        <ele>2070</ele>
        <time>2014-03-28T13:13:34Z</time>
      </trkpt>
      <trkpt lat="42.84059" lon="0.46464">
        <ele>2072</ele>
        <time>2014-03-28T13:13:50Z</time>
      </trkpt>
      <trkpt lat="42.84058" lon="0.46463">
        <ele>2076</ele>
        <time>2014-03-28T13:13:54Z</time>
      </trkpt>
      <trkpt lat="42.84057" lon="0.46462">
        <ele>2074</ele>
        <time>2014-03-28T13:13:57Z</time>
      </trkpt>
      <trkpt lat="42.84053" lon="0.46458">
        <ele>2076</ele>
        <time>2014-03-28T13:14:08Z</time>
      </trkpt>
      <trkpt lat="42.84047" lon="0.46454">
        <ele>2076</ele>
        <time>2014-03-28T13:14:24Z</time>
      </trkpt>
      <trkpt lat="42.84043" lon="0.4645">
        <ele>2078</ele>
        <time>2014-03-28T13:14:37Z</time>
      </trkpt>
      <trkpt lat="42.84038" lon="0.46442">
        <ele>2080</ele>
        <time>2014-03-28T13:14:52Z</time>
      </trkpt>
      <trkpt lat="42.84034" lon="0.46438">
        <ele>2082</ele>
        <time>2014-03-28T13:15:06Z</time>
      </trkpt>
      <trkpt lat="42.8403" lon="0.46436">
        <ele>2086</ele>
        <time>2014-03-28T13:15:17Z</time>
      </trkpt>
      <trkpt lat="42.84025" lon="0.46434">
        <ele>2086</ele>
        <time>2014-03-28T13:15:28Z</time>
      </trkpt>
      <trkpt lat="42.84024" lon="0.46433">
        <ele>2086</ele>
        <time>2014-03-28T13:15:42Z</time>
      </trkpt>
      <trkpt lat="42.8402" lon="0.46431">
        <ele>2084</ele>
        <time>2014-03-28T13:15:59Z</time>
      </trkpt>
      <trkpt lat="42.84013" lon="0.46427">
        <ele>2083</ele>
        <time>2014-03-28T13:16:07Z</time>
      </trkpt>
      <trkpt lat="42.84002" lon="0.46422">
        <ele>2082</ele>
        <time>2014-03-28T13:16:21Z</time>
      </trkpt>
      <trkpt lat="42.83991" lon="0.46416">
        <ele>2082</ele>
        <time>2014-03-28T13:16:35Z</time>
      </trkpt>
      <trkpt lat="42.83981" lon="0.46408">
        <ele>2083</ele>
        <time>2014-03-28T13:16:52Z</time>
      </trkpt>
      <trkpt lat="42.83979" lon="0.46407">
        <ele>2082</ele>
        <time>2014-03-28T13:17:12Z</time>
      </trkpt>
      <trkpt lat="42.8397" lon="0.46401">
        <ele>2081</ele>
        <time>2014-03-28T13:17:24Z</time>
      </trkpt>
      <trkpt lat="42.83961" lon="0.46395">
        <ele>2079</ele>
        <time>2014-03-28T13:17:36Z</time>
      </trkpt>
      <trkpt lat="42.83952" lon="0.46392">
        <ele>2077</ele>
        <time>2014-03-28T13:17:47Z</time>
      </trkpt>
      <trkpt lat="42.83948" lon="0.4639">
        <ele>2076</ele>
        <time>2014-03-28T13:17:52Z</time>
      </trkpt>
      <trkpt lat="42.83938" lon="0.46387">
        <ele>2074</ele>
        <time>2014-03-28T13:18:02Z</time>
      </trkpt>
      <trkpt lat="42.83935" lon="0.46386">
        <ele>2074</ele>
        <time>2014-03-28T13:18:05Z</time>
      </trkpt>
      <trkpt lat="42.83922" lon="0.46383">
        <ele>2072</ele>
        <time>2014-03-28T13:18:19Z</time>
      </trkpt>
      <trkpt lat="42.83909" lon="0.46378">
        <ele>2070</ele>
        <time>2014-03-28T13:18:33Z</time>
      </trkpt>
      <trkpt lat="42.83899" lon="0.46372">
        <ele>2067</ele>
        <time>2014-03-28T13:18:46Z</time>
      </trkpt>
      <trkpt lat="42.83889" lon="0.46364">
        <ele>2066</ele>
        <time>2014-03-28T13:18:58Z</time>
      </trkpt>
      <trkpt lat="42.83888" lon="0.46362">
        <ele>2065</ele>
        <time>2014-03-28T13:19:01Z</time>
      </trkpt>
      <trkpt lat="42.83882" lon="0.46358">
        <ele>2065</ele>
        <time>2014-03-28T13:19:08Z</time>
      </trkpt>
      <trkpt lat="42.83879" lon="0.46356">
        <ele>2064</ele>
        <time>2014-03-28T13:19:11Z</time>
      </trkpt>
      <trkpt lat="42.83865" lon="0.46347">
        <ele>2063</ele>
        <time>2014-03-28T13:19:26Z</time>
      </trkpt>
      <trkpt lat="42.83864" lon="0.46346">
        <ele>2062</ele>
        <time>2014-03-28T13:19:27Z</time>
      </trkpt>
      <trkpt lat="42.8385" lon="0.46337">
        <ele>2060</ele>
        <time>2014-03-28T13:19:42Z</time>
      </trkpt>
      <trkpt lat="42.83841" lon="0.46328">
        <ele>2059</ele>
        <time>2014-03-28T13:19:54Z</time>
      </trkpt>
      <trkpt lat="42.83836" lon="0.46324">
        <ele>2059</ele>
        <time>2014-03-28T13:20:00Z</time>
      </trkpt>
      <trkpt lat="42.83834" lon="0.46325">
        <ele>2059</ele>
        <time>2014-03-28T13:20:19Z</time>
      </trkpt>
      <trkpt lat="42.83828" lon="0.4632">
        <ele>2058</ele>
        <time>2014-03-28T13:20:41Z</time>
      </trkpt>
      <trkpt lat="42.83816" lon="0.46309">
        <ele>2057</ele>
        <time>2014-03-28T13:20:55Z</time>
      </trkpt>
      <trkpt lat="42.8381" lon="0.46305">
        <ele>2056</ele>
        <time>2014-03-28T13:21:01Z</time>
      </trkpt>
      <trkpt lat="42.83804" lon="0.463">
        <ele>2056</ele>
        <time>2014-03-28T13:21:08Z</time>
      </trkpt>
      <trkpt lat="42.83797" lon="0.46293">
        <ele>2054</ele>
        <time>2014-03-28T13:21:16Z</time>
      </trkpt>
      <trkpt lat="42.83786" lon="0.4628">
        <ele>2052</ele>
        <time>2014-03-28T13:21:31Z</time>
      </trkpt>
      <trkpt lat="42.83778" lon="0.46267">
        <ele>2050</ele>
        <time>2014-03-28T13:21:45Z</time>
      </trkpt>
      <trkpt lat="42.83772" lon="0.4626">
        <ele>2049</ele>
        <time>2014-03-28T13:21:55Z</time>
      </trkpt>
      <trkpt lat="42.83769" lon="0.46255">
        <ele>2047</ele>
        <time>2014-03-28T13:22:00Z</time>
      </trkpt>
      <trkpt lat="42.83765" lon="0.46252">
        <ele>2048</ele>
        <time>2014-03-28T13:22:04Z</time>
      </trkpt>
      <trkpt lat="42.83759" lon="0.46248">
        <ele>2046</ele>
        <time>2014-03-28T13:22:16Z</time>
      </trkpt>
      <trkpt lat="42.83751" lon="0.46237">
        <ele>2045</ele>
        <time>2014-03-28T13:22:28Z</time>
      </trkpt>
      <trkpt lat="42.83746" lon="0.46233">
        <ele>2043</ele>
        <time>2014-03-28T13:22:34Z</time>
      </trkpt>
      <trkpt lat="42.83739" lon="0.46223">
        <ele>2042</ele>
        <time>2014-03-28T13:22:47Z</time>
      </trkpt>
      <trkpt lat="42.83733" lon="0.46216">
        <ele>2042</ele>
        <time>2014-03-28T13:23:01Z</time>
      </trkpt>
      <trkpt lat="42.83722" lon="0.46207">
        <ele>2041</ele>
        <time>2014-03-28T13:23:14Z</time>
      </trkpt>
      <trkpt lat="42.83711" lon="0.46199">
        <ele>2041</ele>
        <time>2014-03-28T13:23:27Z</time>
      </trkpt>
      <trkpt lat="42.83708" lon="0.46197">
        <ele>2041</ele>
        <time>2014-03-28T13:23:30Z</time>
      </trkpt>
      <trkpt lat="42.83698" lon="0.46184">
        <ele>2038</ele>
        <time>2014-03-28T13:23:45Z</time>
      </trkpt>
      <trkpt lat="42.83688" lon="0.46179">
        <ele>2036</ele>
        <time>2014-03-28T13:23:55Z</time>
      </trkpt>
      <trkpt lat="42.83672" lon="0.46174">
        <ele>2036</ele>
        <time>2014-03-28T13:24:10Z</time>
      </trkpt>
      <trkpt lat="42.83664" lon="0.46171">
        <ele>2037</ele>
        <time>2014-03-28T13:24:19Z</time>
      </trkpt>
      <trkpt lat="42.83652" lon="0.46167">
        <ele>2036</ele>
        <time>2014-03-28T13:24:31Z</time>
      </trkpt>
      <trkpt lat="42.83638" lon="0.46163">
        <ele>2035</ele>
        <time>2014-03-28T13:24:46Z</time>
      </trkpt>
      <trkpt lat="42.83628" lon="0.46158">
        <ele>2032</ele>
        <time>2014-03-28T13:24:58Z</time>
      </trkpt>
      <trkpt lat="42.83625" lon="0.46158">
        <ele>2031</ele>
        <time>2014-03-28T13:25:01Z</time>
      </trkpt>
      <trkpt lat="42.83622" lon="0.46158">
        <ele>2031</ele>
        <time>2014-03-28T13:25:14Z</time>
      </trkpt>
      <trkpt lat="42.83615" lon="0.46153">
        <ele>2029</ele>
        <time>2014-03-28T13:25:22Z</time>
      </trkpt>
      <trkpt lat="42.83612" lon="0.46151">
        <ele>2029</ele>
        <time>2014-03-28T13:25:25Z</time>
      </trkpt>
      <trkpt lat="42.83601" lon="0.4614">
        <ele>2028</ele>
        <time>2014-03-28T13:25:39Z</time>
      </trkpt>
      <trkpt lat="42.83592" lon="0.46129">
        <ele>2028</ele>
        <time>2014-03-28T13:25:52Z</time>
      </trkpt>
      <trkpt lat="42.83591" lon="0.46128">
        <ele>2028</ele>
        <time>2014-03-28T13:25:54Z</time>
      </trkpt>
      <trkpt lat="42.83579" lon="0.46118">
        <ele>2026</ele>
        <time>2014-03-28T13:26:08Z</time>
      </trkpt>
      <trkpt lat="42.83577" lon="0.46116">
        <ele>2026</ele>
        <time>2014-03-28T13:26:11Z</time>
      </trkpt>
      <trkpt lat="42.83575" lon="0.46114">
        <ele>2026</ele>
        <time>2014-03-28T13:26:14Z</time>
      </trkpt>
      <trkpt lat="42.83569" lon="0.46108">
        <ele>2025</ele>
        <time>2014-03-28T13:26:21Z</time>
      </trkpt>
      <trkpt lat="42.83567" lon="0.46107">
        <ele>2025</ele>
        <time>2014-03-28T13:26:23Z</time>
      </trkpt>
      <trkpt lat="42.83563" lon="0.46105">
        <ele>2024</ele>
        <time>2014-03-28T13:26:27Z</time>
      </trkpt>
      <trkpt lat="42.83556" lon="0.461">
        <ele>2023</ele>
        <time>2014-03-28T13:26:35Z</time>
      </trkpt>
      <trkpt lat="42.83547" lon="0.46091">
        <ele>2023</ele>
        <time>2014-03-28T13:26:46Z</time>
      </trkpt>
      <trkpt lat="42.83545" lon="0.4609">
        <ele>2023</ele>
        <time>2014-03-28T13:26:48Z</time>
      </trkpt>
      <trkpt lat="42.8354" lon="0.46087">
        <ele>2022</ele>
        <time>2014-03-28T13:26:53Z</time>
      </trkpt>
      <trkpt lat="42.83528" lon="0.46079">
        <ele>2021</ele>
        <time>2014-03-28T13:27:06Z</time>
      </trkpt>
      <trkpt lat="42.83518" lon="0.46073">
        <ele>2021</ele>
        <time>2014-03-28T13:27:17Z</time>
      </trkpt>
      <trkpt lat="42.8351" lon="0.46068">
        <ele>2020</ele>
        <time>2014-03-28T13:27:26Z</time>
      </trkpt>
      <trkpt lat="42.83497" lon="0.46061">
        <ele>2021</ele>
        <time>2014-03-28T13:27:41Z</time>
      </trkpt>
      <trkpt lat="42.83494" lon="0.46058">
        <ele>2021</ele>
        <time>2014-03-28T13:27:47Z</time>
      </trkpt>
      <trkpt lat="42.83481" lon="0.46054">
        <ele>2022</ele>
        <time>2014-03-28T13:28:02Z</time>
      </trkpt>
      <trkpt lat="42.83466" lon="0.46051">
        <ele>2022</ele>
        <time>2014-03-28T13:28:16Z</time>
      </trkpt>
      <trkpt lat="42.83457" lon="0.4605">
        <ele>2022</ele>
        <time>2014-03-28T13:28:26Z</time>
      </trkpt>
      <trkpt lat="42.83443" lon="0.46052">
        <ele>2020</ele>
        <time>2014-03-28T13:28:41Z</time>
      </trkpt>
      <trkpt lat="42.83429" lon="0.46053">
        <ele>2020</ele>
        <time>2014-03-28T13:28:55Z</time>
      </trkpt>
      <trkpt lat="42.83418" lon="0.46051">
        <ele>2020</ele>
        <time>2014-03-28T13:29:08Z</time>
      </trkpt>
      <trkpt lat="42.83412" lon="0.46051">
        <ele>2020</ele>
        <time>2014-03-28T13:29:15Z</time>
      </trkpt>
      <trkpt lat="42.8341" lon="0.4605">
        <ele>2020</ele>
        <time>2014-03-28T13:29:17Z</time>
      </trkpt>
      <trkpt lat="42.83405" lon="0.46047">
        <ele>2019</ele>
        <time>2014-03-28T13:29:23Z</time>
      </trkpt>
      <trkpt lat="42.83394" lon="0.46041">
        <ele>2019</ele>
        <time>2014-03-28T13:29:37Z</time>
      </trkpt>
      <trkpt lat="42.83383" lon="0.46036">
        <ele>2019</ele>
        <time>2014-03-28T13:29:50Z</time>
      </trkpt>
      <trkpt lat="42.83373" lon="0.46031">
        <ele>2019</ele>
        <time>2014-03-28T13:30:02Z</time>
      </trkpt>
      <trkpt lat="42.83364" lon="0.46026">
        <ele>2019</ele>
        <time>2014-03-28T13:30:15Z</time>
      </trkpt>
      <trkpt lat="42.83361" lon="0.46024">
        <ele>2019</ele>
        <time>2014-03-28T13:30:19Z</time>
      </trkpt>
      <trkpt lat="42.83348" lon="0.46018">
        <ele>2019</ele>
        <time>2014-03-28T13:30:34Z</time>
      </trkpt>
      <trkpt lat="42.83341" lon="0.46014">
        <ele>2019</ele>
        <time>2014-03-28T13:30:42Z</time>
      </trkpt>
      <trkpt lat="42.83328" lon="0.46008">
        <ele>2019</ele>
        <time>2014-03-28T13:30:57Z</time>
      </trkpt>
      <trkpt lat="42.83317" lon="0.46003">
        <ele>2021</ele>
        <time>2014-03-28T13:31:12Z</time>
      </trkpt>
      <trkpt lat="42.83307" lon="0.45998">
        <ele>2023</ele>
        <time>2014-03-28T13:31:27Z</time>
      </trkpt>
      <trkpt lat="42.83299" lon="0.45993">
        <ele>2025</ele>
        <time>2014-03-28T13:31:40Z</time>
      </trkpt>
      <trkpt lat="42.8329" lon="0.45988">
        <ele>2026</ele>
        <time>2014-03-28T13:31:53Z</time>
      </trkpt>
      <trkpt lat="42.83281" lon="0.45983">
        <ele>2027</ele>
        <time>2014-03-28T13:32:07Z</time>
      </trkpt>
      <trkpt lat="42.83273" lon="0.45978">
        <ele>2029</ele>
        <time>2014-03-28T13:32:21Z</time>
      </trkpt>
      <trkpt lat="42.83264" lon="0.45972">
        <ele>2030</ele>
        <time>2014-03-28T13:32:36Z</time>
      </trkpt>
      <trkpt lat="42.83256" lon="0.45968">
        <ele>2032</ele>
        <time>2014-03-28T13:32:49Z</time>
      </trkpt>
      <trkpt lat="42.83249" lon="0.45963">
        <ele>2034</ele>
        <time>2014-03-28T13:33:03Z</time>
      </trkpt>
      <trkpt lat="42.83243" lon="0.45958">
        <ele>2037</ele>
        <time>2014-03-28T13:33:17Z</time>
      </trkpt>
      <trkpt lat="42.83234" lon="0.45953">
        <ele>2040</ele>
        <time>2014-03-28T13:33:30Z</time>
      </trkpt>
      <trkpt lat="42.83227" lon="0.45949">
        <ele>2041</ele>
        <time>2014-03-28T13:33:44Z</time>
      </trkpt>
      <trkpt lat="42.83226" lon="0.45949">
        <ele>2041</ele>
        <time>2014-03-28T13:33:45Z</time>
      </trkpt>
      <trkpt lat="42.83226" lon="0.45949">
        <ele>2042</ele>
        <time>2014-03-28T13:33:57Z</time>
      </trkpt>
      <trkpt lat="42.83223" lon="0.45947">
        <ele>2042</ele>
        <time>2014-03-28T13:34:22Z</time>
      </trkpt>
      <trkpt lat="42.83214" lon="0.45944">
        <ele>2044</ele>
        <time>2014-03-28T13:34:37Z</time>
      </trkpt>
      <trkpt lat="42.83205" lon="0.45943">
        <ele>2046</ele>
        <time>2014-03-28T13:34:51Z</time>
      </trkpt>
      <trkpt lat="42.83196" lon="0.45941">
        <ele>2048</ele>
        <time>2014-03-28T13:35:05Z</time>
      </trkpt>
      <trkpt lat="42.83186" lon="0.4594">
        <ele>2050</ele>
        <time>2014-03-28T13:35:20Z</time>
      </trkpt>
      <trkpt lat="42.83178" lon="0.45938">
        <ele>2051</ele>
        <time>2014-03-28T13:35:35Z</time>
      </trkpt>
      <trkpt lat="42.83177" lon="0.45939">
        <ele>2052</ele>
        <time>2014-03-28T13:35:50Z</time>
      </trkpt>
      <trkpt lat="42.83171" lon="0.45936">
        <ele>2052</ele>
        <time>2014-03-28T13:36:09Z</time>
      </trkpt>
      <trkpt lat="42.83162" lon="0.45934">
        <ele>2054</ele>
        <time>2014-03-28T13:36:24Z</time>
      </trkpt>
      <trkpt lat="42.83153" lon="0.45931">
        <ele>2055</ele>
        <time>2014-03-28T13:36:38Z</time>
      </trkpt>
      <trkpt lat="42.83144" lon="0.45927">
        <ele>2057</ele>
        <time>2014-03-28T13:36:51Z</time>
      </trkpt>
      <trkpt lat="42.83141" lon="0.45927">
        <ele>2059</ele>
        <time>2014-03-28T13:37:07Z</time>
      </trkpt>
      <trkpt lat="42.8314" lon="0.45924">
        <ele>2059</ele>
        <time>2014-03-28T13:37:22Z</time>
      </trkpt>
      <trkpt lat="42.8313" lon="0.45919">
        <ele>2061</ele>
        <time>2014-03-28T13:37:36Z</time>
      </trkpt>
      <trkpt lat="42.83121" lon="0.45915">
        <ele>2063</ele>
        <time>2014-03-28T13:37:49Z</time>
      </trkpt>
      <trkpt lat="42.8311" lon="0.4591">
        <ele>2064</ele>
        <time>2014-03-28T13:38:02Z</time>
      </trkpt>
      <trkpt lat="42.83097" lon="0.45904">
        <ele>2065</ele>
        <time>2014-03-28T13:38:18Z</time>
      </trkpt>
      <trkpt lat="42.8309" lon="0.45902">
        <ele>2065</ele>
        <time>2014-03-28T13:38:26Z</time>
      </trkpt>
      <trkpt lat="42.8308" lon="0.459">
        <ele>2066</ele>
        <time>2014-03-28T13:38:38Z</time>
      </trkpt>
      <trkpt lat="42.83078" lon="0.45899">
        <ele>2066</ele>
        <time>2014-03-28T13:38:40Z</time>
      </trkpt>
      <trkpt lat="42.83066" lon="0.45894">
        <ele>2066</ele>
        <time>2014-03-28T13:38:54Z</time>
      </trkpt>
      <trkpt lat="42.83062" lon="0.45893">
        <ele>2066</ele>
        <time>2014-03-28T13:38:58Z</time>
      </trkpt>
      <trkpt lat="42.8306" lon="0.45891">
        <ele>2066</ele>
        <time>2014-03-28T13:39:00Z</time>
      </trkpt>
      <trkpt lat="42.83058" lon="0.4589">
        <ele>2066</ele>
        <time>2014-03-28T13:39:02Z</time>
      </trkpt>
      <trkpt lat="42.83056" lon="0.45888">
        <ele>2066</ele>
        <time>2014-03-28T13:39:05Z</time>
      </trkpt>
      <trkpt lat="42.83054" lon="0.45887">
        <ele>2066</ele>
        <time>2014-03-28T13:39:07Z</time>
      </trkpt>
      <trkpt lat="42.83041" lon="0.45882">
        <ele>2066</ele>
        <time>2014-03-28T13:39:21Z</time>
      </trkpt>
      <trkpt lat="42.83039" lon="0.45881">
        <ele>2066</ele>
        <time>2014-03-28T13:39:23Z</time>
      </trkpt>
      <trkpt lat="42.83027" lon="0.45875">
        <ele>2067</ele>
        <time>2014-03-28T13:39:37Z</time>
      </trkpt>
      <trkpt lat="42.83024" lon="0.45874">
        <ele>2066</ele>
        <time>2014-03-28T13:39:40Z</time>
      </trkpt>
      <trkpt lat="42.83016" lon="0.45871">
        <ele>2067</ele>
        <time>2014-03-28T13:39:48Z</time>
      </trkpt>
      <trkpt lat="42.83002" lon="0.45869">
        <ele>2067</ele>
        <time>2014-03-28T13:40:04Z</time>
      </trkpt>
      <trkpt lat="42.82991" lon="0.45869">
        <ele>2067</ele>
        <time>2014-03-28T13:40:18Z</time>
      </trkpt>
      <trkpt lat="42.82977" lon="0.45868">
        <ele>2066</ele>
        <time>2014-03-28T13:40:33Z</time>
      </trkpt>
      <trkpt lat="42.82964" lon="0.45864">
        <ele>2065</ele>
        <time>2014-03-28T13:40:47Z</time>
      </trkpt>
      <trkpt lat="42.82955" lon="0.45861">
        <ele>2064</ele>
        <time>2014-03-28T13:40:58Z</time>
      </trkpt>
      <trkpt lat="42.8294" lon="0.45864">
        <ele>2063</ele>
        <time>2014-03-28T13:41:14Z</time>
      </trkpt>
      <trkpt lat="42.82928" lon="0.45862">
        <ele>2062</ele>
        <time>2014-03-28T13:41:27Z</time>
      </trkpt>
      <trkpt lat="42.8292" lon="0.45861">
        <ele>2061</ele>
        <time>2014-03-28T13:41:39Z</time>
      </trkpt>
      <trkpt lat="42.82906" lon="0.4586">
        <ele>2060</ele>
        <time>2014-03-28T13:41:54Z</time>
      </trkpt>
      <trkpt lat="42.82893" lon="0.4586">
        <ele>2058</ele>
        <time>2014-03-28T13:42:08Z</time>
      </trkpt>
      <trkpt lat="42.82888" lon="0.4586">
        <ele>2057</ele>
        <time>2014-03-28T13:42:19Z</time>
      </trkpt>
      <trkpt lat="42.82889" lon="0.45861">
        <ele>2057</ele>
        <time>2014-03-28T13:42:32Z</time>
      </trkpt>
      <trkpt lat="42.82889" lon="0.45864">
        <ele>2057</ele>
        <time>2014-03-28T13:42:46Z</time>
      </trkpt>
      <trkpt lat="42.82889" lon="0.45863">
        <ele>2057</ele>
        <time>2014-03-28T13:43:08Z</time>
      </trkpt>
      <trkpt lat="42.82885" lon="0.45861">
        <ele>2056</ele>
        <time>2014-03-28T13:43:17Z</time>
      </trkpt>
      <trkpt lat="42.82881" lon="0.45862">
        <ele>2055</ele>
        <time>2014-03-28T13:43:22Z</time>
      </trkpt>
      <trkpt lat="42.82873" lon="0.45861">
        <ele>2055</ele>
        <time>2014-03-28T13:43:31Z</time>
      </trkpt>
      <trkpt lat="42.82871" lon="0.45861">
        <ele>2054</ele>
        <time>2014-03-28T13:43:34Z</time>
      </trkpt>
      <trkpt lat="42.8287" lon="0.45861">
        <ele>2054</ele>
        <time>2014-03-28T13:43:49Z</time>
      </trkpt>
      <trkpt lat="42.8287" lon="0.45861">
        <ele>2054</ele>
        <time>2014-03-28T13:44:23Z</time>
      </trkpt>
      <trkpt lat="42.8287" lon="0.45861">
        <ele>2054</ele>
        <time>2014-03-28T13:44:54Z</time>
      </trkpt>
      <trkpt lat="42.82866" lon="0.45862">
        <ele>2054</ele>
        <time>2014-03-28T13:45:06Z</time>
      </trkpt>
      <trkpt lat="42.8286" lon="0.45859">
        <ele>2053</ele>
        <time>2014-03-28T13:45:13Z</time>
      </trkpt>
      <trkpt lat="42.8285" lon="0.45856">
        <ele>2051</ele>
        <time>2014-03-28T13:45:25Z</time>
      </trkpt>
      <trkpt lat="42.82839" lon="0.45856">
        <ele>2048</ele>
        <time>2014-03-28T13:45:37Z</time>
      </trkpt>
      <trkpt lat="42.82828" lon="0.45855">
        <ele>2045</ele>
        <time>2014-03-28T13:45:49Z</time>
      </trkpt>
      <trkpt lat="42.82821" lon="0.45855">
        <ele>2045</ele>
        <time>2014-03-28T13:45:56Z</time>
      </trkpt>
      <trkpt lat="42.82814" lon="0.45855">
        <ele>2042</ele>
        <time>2014-03-28T13:46:04Z</time>
      </trkpt>
      <trkpt lat="42.82803" lon="0.45857">
        <ele>2039</ele>
        <time>2014-03-28T13:46:16Z</time>
      </trkpt>
      <trkpt lat="42.82802" lon="0.45857">
        <ele>2039</ele>
        <time>2014-03-28T13:46:17Z</time>
      </trkpt>
      <trkpt lat="42.8279" lon="0.45856">
        <ele>2035</ele>
        <time>2014-03-28T13:46:29Z</time>
      </trkpt>
      <trkpt lat="42.82789" lon="0.45856">
        <ele>2035</ele>
        <time>2014-03-28T13:46:30Z</time>
      </trkpt>
      <trkpt lat="42.82785" lon="0.45856">
        <ele>2034</ele>
        <time>2014-03-28T13:46:35Z</time>
      </trkpt>
      <trkpt lat="42.82778" lon="0.45856">
        <ele>2032</ele>
        <time>2014-03-28T13:46:43Z</time>
      </trkpt>
      <trkpt lat="42.82767" lon="0.4586">
        <ele>2029</ele>
        <time>2014-03-28T13:46:55Z</time>
      </trkpt>
      <trkpt lat="42.82757" lon="0.4586">
        <ele>2026</ele>
        <time>2014-03-28T13:47:06Z</time>
      </trkpt>
      <trkpt lat="42.82755" lon="0.4586">
        <ele>2025</ele>
        <time>2014-03-28T13:47:09Z</time>
      </trkpt>
      <trkpt lat="42.82751" lon="0.45859">
        <ele>2023</ele>
        <time>2014-03-28T13:47:13Z</time>
      </trkpt>
      <trkpt lat="42.82748" lon="0.45859">
        <ele>2022</ele>
        <time>2014-03-28T13:47:16Z</time>
      </trkpt>
      <trkpt lat="42.82741" lon="0.45859">
        <ele>2019</ele>
        <time>2014-03-28T13:47:24Z</time>
      </trkpt>
      <trkpt lat="42.82733" lon="0.45858">
        <ele>2016</ele>
        <time>2014-03-28T13:47:32Z</time>
      </trkpt>
      <trkpt lat="42.82731" lon="0.45858">
        <ele>2016</ele>
        <time>2014-03-28T13:47:34Z</time>
      </trkpt>
      <trkpt lat="42.82726" lon="0.45859">
        <ele>2014</ele>
        <time>2014-03-28T13:47:39Z</time>
      </trkpt>
      <trkpt lat="42.82713" lon="0.4586">
        <ele>2011</ele>
        <time>2014-03-28T13:47:52Z</time>
      </trkpt>
      <trkpt lat="42.82703" lon="0.45862">
        <ele>2009</ele>
        <time>2014-03-28T13:48:02Z</time>
      </trkpt>
      <trkpt lat="42.82701" lon="0.45863">
        <ele>2009</ele>
        <time>2014-03-28T13:48:04Z</time>
      </trkpt>
      <trkpt lat="42.82695" lon="0.45863">
        <ele>2007</ele>
        <time>2014-03-28T13:48:10Z</time>
      </trkpt>
      <trkpt lat="42.82693" lon="0.45864">
        <ele>2007</ele>
        <time>2014-03-28T13:48:12Z</time>
      </trkpt>
      <trkpt lat="42.82678" lon="0.45866">
        <ele>2006</ele>
        <time>2014-03-28T13:48:26Z</time>
      </trkpt>
      <trkpt lat="42.82668" lon="0.45868">
        <ele>2005</ele>
        <time>2014-03-28T13:48:37Z</time>
      </trkpt>
      <trkpt lat="42.82655" lon="0.45869">
        <ele>2003</ele>
        <time>2014-03-28T13:48:50Z</time>
      </trkpt>
      <trkpt lat="42.82653" lon="0.4587">
        <ele>2003</ele>
        <time>2014-03-28T13:48:52Z</time>
      </trkpt>
      <trkpt lat="42.82639" lon="0.45871">
        <ele>2002</ele>
        <time>2014-03-28T13:49:05Z</time>
      </trkpt>
      <trkpt lat="42.82627" lon="0.45872">
        <ele>2001</ele>
        <time>2014-03-28T13:49:18Z</time>
      </trkpt>
      <trkpt lat="42.82617" lon="0.45873">
        <ele>2001</ele>
        <time>2014-03-28T13:49:28Z</time>
      </trkpt>
      <trkpt lat="42.82615" lon="0.45873">
        <ele>2000</ele>
        <time>2014-03-28T13:49:30Z</time>
      </trkpt>
      <trkpt lat="42.82603" lon="0.45872">
        <ele>1999</ele>
        <time>2014-03-28T13:49:43Z</time>
      </trkpt>
      <trkpt lat="42.82595" lon="0.45873">
        <ele>1998</ele>
        <time>2014-03-28T13:49:51Z</time>
      </trkpt>
      <trkpt lat="42.82583" lon="0.45875">
        <ele>1996</ele>
        <time>2014-03-28T13:50:04Z</time>
      </trkpt>
      <trkpt lat="42.8257" lon="0.45875">
        <ele>1992</ele>
        <time>2014-03-28T13:50:17Z</time>
      </trkpt>
      <trkpt lat="42.82559" lon="0.45875">
        <ele>1990</ele>
        <time>2014-03-28T13:50:29Z</time>
      </trkpt>
      <trkpt lat="42.82548" lon="0.45876">
        <ele>1987</ele>
        <time>2014-03-28T13:50:42Z</time>
      </trkpt>
      <trkpt lat="42.82546" lon="0.45876">
        <ele>1986</ele>
        <time>2014-03-28T13:50:43Z</time>
      </trkpt>
      <trkpt lat="42.82544" lon="0.45877">
        <ele>1985</ele>
        <time>2014-03-28T13:50:45Z</time>
      </trkpt>
      <trkpt lat="42.82542" lon="0.45877">
        <ele>1985</ele>
        <time>2014-03-28T13:50:47Z</time>
      </trkpt>
      <trkpt lat="42.82542" lon="0.45877">
        <ele>1985</ele>
        <time>2014-03-28T13:50:48Z</time>
      </trkpt>
      <trkpt lat="42.82533" lon="0.45877">
        <ele>1982</ele>
        <time>2014-03-28T13:50:57Z</time>
      </trkpt>
      <trkpt lat="42.82529" lon="0.45877">
        <ele>1981</ele>
        <time>2014-03-28T13:51:03Z</time>
      </trkpt>
      <trkpt lat="42.82519" lon="0.45876">
        <ele>1979</ele>
        <time>2014-03-28T13:51:13Z</time>
      </trkpt>
      <trkpt lat="42.82514" lon="0.45875">
        <ele>1978</ele>
        <time>2014-03-28T13:51:17Z</time>
      </trkpt>
      <trkpt lat="42.82512" lon="0.45875">
        <ele>1978</ele>
        <time>2014-03-28T13:51:19Z</time>
      </trkpt>
      <trkpt lat="42.82499" lon="0.45873">
        <ele>1977</ele>
        <time>2014-03-28T13:51:32Z</time>
      </trkpt>
      <trkpt lat="42.82485" lon="0.45871">
        <ele>1977</ele>
        <time>2014-03-28T13:51:48Z</time>
      </trkpt>
      <trkpt lat="42.82476" lon="0.45871">
        <ele>1979</ele>
        <time>2014-03-28T13:52:01Z</time>
      </trkpt>
      <trkpt lat="42.82472" lon="0.4587">
        <ele>1979</ele>
        <time>2014-03-28T13:52:05Z</time>
      </trkpt>
      <trkpt lat="42.82468" lon="0.4587">
        <ele>1979</ele>
        <time>2014-03-28T13:52:10Z</time>
      </trkpt>
      <trkpt lat="42.82455" lon="0.45867">
        <ele>1977</ele>
        <time>2014-03-28T13:52:25Z</time>
      </trkpt>
      <trkpt lat="42.82444" lon="0.45859">
        <ele>1976</ele>
        <time>2014-03-28T13:52:39Z</time>
      </trkpt>
      <trkpt lat="42.82433" lon="0.45853">
        <ele>1974</ele>
        <time>2014-03-28T13:52:52Z</time>
      </trkpt>
      <trkpt lat="42.82424" lon="0.45848">
        <ele>1971</ele>
        <time>2014-03-28T13:53:04Z</time>
      </trkpt>
      <trkpt lat="42.82413" lon="0.45843">
        <ele>1968</ele>
        <time>2014-03-28T13:53:18Z</time>
      </trkpt>
      <trkpt lat="42.82404" lon="0.45839">
        <ele>1965</ele>
        <time>2014-03-28T13:53:31Z</time>
      </trkpt>
      <trkpt lat="42.82401" lon="0.45837">
        <ele>1963</ele>
        <time>2014-03-28T13:53:35Z</time>
      </trkpt>
      <trkpt lat="42.82394" lon="0.45832">
        <ele>1960</ele>
        <time>2014-03-28T13:53:45Z</time>
      </trkpt>
      <trkpt lat="42.8239" lon="0.45831">
        <ele>1958</ele>
        <time>2014-03-28T13:53:49Z</time>
      </trkpt>
      <trkpt lat="42.82387" lon="0.4583">
        <ele>1957</ele>
        <time>2014-03-28T13:53:53Z</time>
      </trkpt>
      <trkpt lat="42.82386" lon="0.45829">
        <ele>1956</ele>
        <time>2014-03-28T13:53:54Z</time>
      </trkpt>
      <trkpt lat="42.82384" lon="0.45829">
        <ele>1955</ele>
        <time>2014-03-28T13:53:56Z</time>
      </trkpt>
      <trkpt lat="42.82382" lon="0.45828">
        <ele>1955</ele>
        <time>2014-03-28T13:53:58Z</time>
      </trkpt>
      <trkpt lat="42.82374" lon="0.45825">
        <ele>1952</ele>
        <time>2014-03-28T13:54:08Z</time>
      </trkpt>
      <trkpt lat="42.82366" lon="0.45822">
        <ele>1948</ele>
        <time>2014-03-28T13:54:18Z</time>
      </trkpt>
      <trkpt lat="42.82364" lon="0.45822">
        <ele>1948</ele>
        <time>2014-03-28T13:54:20Z</time>
      </trkpt>
      <trkpt lat="42.82358" lon="0.4582">
        <ele>1945</ele>
        <time>2014-03-28T13:54:27Z</time>
      </trkpt>
      <trkpt lat="42.82353" lon="0.45817">
        <ele>1943</ele>
        <time>2014-03-28T13:54:33Z</time>
      </trkpt>
      <trkpt lat="42.82345" lon="0.45814">
        <ele>1940</ele>
        <time>2014-03-28T13:54:43Z</time>
      </trkpt>
      <trkpt lat="42.82341" lon="0.45813">
        <ele>1938</ele>
        <time>2014-03-28T13:54:55Z</time>
      </trkpt>
      <trkpt lat="42.82341" lon="0.45814">
        <ele>1939</ele>
        <time>2014-03-28T13:55:15Z</time>
      </trkpt>
      <trkpt lat="42.82342" lon="0.45814">
        <ele>1938</ele>
        <time>2014-03-28T13:55:38Z</time>
      </trkpt>
      <trkpt lat="42.82342" lon="0.45814">
        <ele>1939</ele>
        <time>2014-03-28T13:56:01Z</time>
      </trkpt>
      <trkpt lat="42.82335" lon="0.4581">
        <ele>1936</ele>
        <time>2014-03-28T13:56:19Z</time>
      </trkpt>
      <trkpt lat="42.82332" lon="0.45809">
        <ele>1934</ele>
        <time>2014-03-28T13:56:23Z</time>
      </trkpt>
      <trkpt lat="42.82323" lon="0.45806">
        <ele>1931</ele>
        <time>2014-03-28T13:56:36Z</time>
      </trkpt>
      <trkpt lat="42.82316" lon="0.45804">
        <ele>1928</ele>
        <time>2014-03-28T13:56:44Z</time>
      </trkpt>
      <trkpt lat="42.82308" lon="0.45802">
        <ele>1925</ele>
        <time>2014-03-28T13:56:56Z</time>
      </trkpt>
      <trkpt lat="42.82307" lon="0.45801">
        <ele>1925</ele>
        <time>2014-03-28T13:56:57Z</time>
      </trkpt>
      <trkpt lat="42.82302" lon="0.45802">
        <ele>1922</ele>
        <time>2014-03-28T13:57:10Z</time>
      </trkpt>
      <trkpt lat="42.82302" lon="0.45799">
        <ele>1922</ele>
        <time>2014-03-28T13:57:25Z</time>
      </trkpt>
      <trkpt lat="42.82302" lon="0.45799">
        <ele>1923</ele>
        <time>2014-03-28T13:57:42Z</time>
      </trkpt>
      <trkpt lat="42.82302" lon="0.458">
        <ele>1922</ele>
        <time>2014-03-28T13:58:05Z</time>
      </trkpt>
      <trkpt lat="42.82303" lon="0.458">
        <ele>1923</ele>
        <time>2014-03-28T13:58:32Z</time>
      </trkpt>
      <trkpt lat="42.82303" lon="0.45801">
        <ele>1922</ele>
        <time>2014-03-28T13:59:09Z</time>
      </trkpt>
      <trkpt lat="42.82303" lon="0.458">
        <ele>1922</ele>
        <time>2014-03-28T13:59:40Z</time>
      </trkpt>
      <trkpt lat="42.82303" lon="0.45799">
        <ele>1922</ele>
        <time>2014-03-28T14:00:15Z</time>
      </trkpt>
      <trkpt lat="42.82304" lon="0.45802">
        <ele>1922</ele>
        <time>2014-03-28T14:00:50Z</time>
      </trkpt>
      <trkpt lat="42.82304" lon="0.458">
        <ele>1922</ele>
        <time>2014-03-28T14:01:18Z</time>
      </trkpt>
      <trkpt lat="42.82297" lon="0.45795">
        <ele>1921</ele>
        <time>2014-03-28T14:01:31Z</time>
      </trkpt>
      <trkpt lat="42.82291" lon="0.45795">
        <ele>1917</ele>
        <time>2014-03-28T14:01:39Z</time>
      </trkpt>
      <trkpt lat="42.82285" lon="0.45795">
        <ele>1915</ele>
        <time>2014-03-28T14:01:46Z</time>
      </trkpt>
      <trkpt lat="42.82278" lon="0.45795">
        <ele>1912</ele>
        <time>2014-03-28T14:01:57Z</time>
      </trkpt>
      <trkpt lat="42.82269" lon="0.45797">
        <ele>1908</ele>
        <time>2014-03-28T14:02:09Z</time>
      </trkpt>
      <trkpt lat="42.82262" lon="0.45799">
        <ele>1905</ele>
        <time>2014-03-28T14:02:20Z</time>
      </trkpt>
      <trkpt lat="42.82255" lon="0.45799">
        <ele>1902</ele>
        <time>2014-03-28T14:02:31Z</time>
      </trkpt>
      <trkpt lat="42.8225" lon="0.45797">
        <ele>1899</ele>
        <time>2014-03-28T14:02:43Z</time>
      </trkpt>
      <trkpt lat="42.82246" lon="0.45798">
        <ele>1897</ele>
        <time>2014-03-28T14:02:59Z</time>
      </trkpt>
      <trkpt lat="42.82244" lon="0.45795">
        <ele>1895</ele>
        <time>2014-03-28T14:03:25Z</time>
      </trkpt>
      <trkpt lat="42.82238" lon="0.45791">
        <ele>1892</ele>
        <time>2014-03-28T14:03:35Z</time>
      </trkpt>
      <trkpt lat="42.8223" lon="0.45787">
        <ele>1889</ele>
        <time>2014-03-28T14:03:46Z</time>
      </trkpt>
      <trkpt lat="42.82228" lon="0.45786">
        <ele>1889</ele>
        <time>2014-03-28T14:03:48Z</time>
      </trkpt>
      <trkpt lat="42.82217" lon="0.45782">
        <ele>1886</ele>
        <time>2014-03-28T14:04:01Z</time>
      </trkpt>
      <trkpt lat="42.82211" lon="0.4578">
        <ele>1884</ele>
        <time>2014-03-28T14:04:08Z</time>
      </trkpt>
      <trkpt lat="42.82201" lon="0.45779">
        <ele>1881</ele>
        <time>2014-03-28T14:04:22Z</time>
      </trkpt>
      <trkpt lat="42.82197" lon="0.45777">
        <ele>1880</ele>
        <time>2014-03-28T14:04:27Z</time>
      </trkpt>
      <trkpt lat="42.82191" lon="0.45773">
        <ele>1879</ele>
        <time>2014-03-28T14:04:35Z</time>
      </trkpt>
      <trkpt lat="42.82187" lon="0.45772">
        <ele>1878</ele>
        <time>2014-03-28T14:04:39Z</time>
      </trkpt>
      <trkpt lat="42.82175" lon="0.4577">
        <ele>1876</ele>
        <time>2014-03-28T14:04:52Z</time>
      </trkpt>
      <trkpt lat="42.82168" lon="0.45767">
        <ele>1875</ele>
        <time>2014-03-28T14:05:00Z</time>
      </trkpt>
      <trkpt lat="42.82165" lon="0.45767">
        <ele>1875</ele>
        <time>2014-03-28T14:05:03Z</time>
      </trkpt>
      <trkpt lat="42.82161" lon="0.45766">
        <ele>1874</ele>
        <time>2014-03-28T14:05:07Z</time>
      </trkpt>
      <trkpt lat="42.8215" lon="0.45763">
        <ele>1873</ele>
        <time>2014-03-28T14:05:20Z</time>
      </trkpt>
      <trkpt lat="42.82148" lon="0.45763">
        <ele>1873</ele>
        <time>2014-03-28T14:05:31Z</time>
      </trkpt>
      <trkpt lat="42.82146" lon="0.45761">
        <ele>1872</ele>
        <time>2014-03-28T14:06:01Z</time>
      </trkpt>
      <trkpt lat="42.82136" lon="0.45758">
        <ele>1871</ele>
        <time>2014-03-28T14:06:14Z</time>
      </trkpt>
      <trkpt lat="42.82133" lon="0.45757">
        <ele>1872</ele>
        <time>2014-03-28T14:06:17Z</time>
      </trkpt>
      <trkpt lat="42.82123" lon="0.45752">
        <ele>1870</ele>
        <time>2014-03-28T14:06:30Z</time>
      </trkpt>
      <trkpt lat="42.82121" lon="0.45752">
        <ele>1870</ele>
        <time>2014-03-28T14:06:32Z</time>
      </trkpt>
      <trkpt lat="42.82115" lon="0.4575">
        <ele>1869</ele>
        <time>2014-03-28T14:06:39Z</time>
      </trkpt>
      <trkpt lat="42.82107" lon="0.45748">
        <ele>1870</ele>
        <time>2014-03-28T14:06:47Z</time>
      </trkpt>
      <trkpt lat="42.82104" lon="0.45747">
        <ele>1871</ele>
        <time>2014-03-28T14:06:51Z</time>
      </trkpt>
      <trkpt lat="42.8209" lon="0.45744">
        <ele>1872</ele>
        <time>2014-03-28T14:07:04Z</time>
      </trkpt>
      <trkpt lat="42.82087" lon="0.45743">
        <ele>1872</ele>
        <time>2014-03-28T14:07:07Z</time>
      </trkpt>
      <trkpt lat="42.82085" lon="0.45744">
        <ele>1871</ele>
        <time>2014-03-28T14:07:25Z</time>
      </trkpt>
      <trkpt lat="42.82085" lon="0.45745">
        <ele>1872</ele>
        <time>2014-03-28T14:07:58Z</time>
      </trkpt>
      <trkpt lat="42.82085" lon="0.45746">
        <ele>1872</ele>
        <time>2014-03-28T14:08:17Z</time>
      </trkpt>
      <trkpt lat="42.82084" lon="0.45745">
        <ele>1873</ele>
        <time>2014-03-28T14:08:53Z</time>
      </trkpt>
      <trkpt lat="42.82084" lon="0.45743">
        <ele>1874</ele>
        <time>2014-03-28T14:09:19Z</time>
      </trkpt>
      <trkpt lat="42.82084" lon="0.45744">
        <ele>1873</ele>
        <time>2014-03-28T14:09:51Z</time>
      </trkpt>
      <trkpt lat="42.82074" lon="0.45741">
        <ele>1873</ele>
        <time>2014-03-28T14:10:10Z</time>
      </trkpt>
      <trkpt lat="42.82064" lon="0.45738">
        <ele>1871</ele>
        <time>2014-03-28T14:10:21Z</time>
      </trkpt>
      <trkpt lat="42.82054" lon="0.45735">
        <ele>1871</ele>
        <time>2014-03-28T14:10:31Z</time>
      </trkpt>
      <trkpt lat="42.82052" lon="0.45734">
        <ele>1871</ele>
        <time>2014-03-28T14:10:33Z</time>
      </trkpt>
      <trkpt lat="42.82041" lon="0.4573">
        <ele>1872</ele>
        <time>2014-03-28T14:10:47Z</time>
      </trkpt>
      <trkpt lat="42.82034" lon="0.45727">
        <ele>1871</ele>
        <time>2014-03-28T14:10:59Z</time>
      </trkpt>
      <trkpt lat="42.82028" lon="0.45725">
        <ele>1870</ele>
        <time>2014-03-28T14:11:10Z</time>
      </trkpt>
      <trkpt lat="42.82017" lon="0.45722">
        <ele>1867</ele>
        <time>2014-03-28T14:11:23Z</time>
      </trkpt>
      <trkpt lat="42.82015" lon="0.45722">
        <ele>1866</ele>
        <time>2014-03-28T14:11:25Z</time>
      </trkpt>
      <trkpt lat="42.82013" lon="0.4572">
        <ele>1865</ele>
        <time>2014-03-28T14:11:28Z</time>
      </trkpt>
      <trkpt lat="42.8201" lon="0.45719">
        <ele>1865</ele>
        <time>2014-03-28T14:11:31Z</time>
      </trkpt>
      <trkpt lat="42.81999" lon="0.45713">
        <ele>1862</ele>
        <time>2014-03-28T14:11:46Z</time>
      </trkpt>
      <trkpt lat="42.81992" lon="0.45711">
        <ele>1860</ele>
        <time>2014-03-28T14:12:00Z</time>
      </trkpt>
      <trkpt lat="42.81985" lon="0.45709">
        <ele>1858</ele>
        <time>2014-03-28T14:12:19Z</time>
      </trkpt>
      <trkpt lat="42.81974" lon="0.45703">
        <ele>1856</ele>
        <time>2014-03-28T14:12:32Z</time>
      </trkpt>
      <trkpt lat="42.8197" lon="0.45701">
        <ele>1855</ele>
        <time>2014-03-28T14:12:39Z</time>
      </trkpt>
      <trkpt lat="42.81965" lon="0.457">
        <ele>1855</ele>
        <time>2014-03-28T14:12:44Z</time>
      </trkpt>
      <trkpt lat="42.81964" lon="0.45699">
        <ele>1855</ele>
        <time>2014-03-28T14:12:46Z</time>
      </trkpt>
      <trkpt lat="42.81953" lon="0.45695">
        <ele>1854</ele>
        <time>2014-03-28T14:12:58Z</time>
      </trkpt>
      <trkpt lat="42.81942" lon="0.45693">
        <ele>1852</ele>
        <time>2014-03-28T14:13:10Z</time>
      </trkpt>
      <trkpt lat="42.81935" lon="0.4569">
        <ele>1851</ele>
        <time>2014-03-28T14:13:18Z</time>
      </trkpt>
      <trkpt lat="42.8193" lon="0.45686">
        <ele>1849</ele>
        <time>2014-03-28T14:13:24Z</time>
      </trkpt>
      <trkpt lat="42.8192" lon="0.45675">
        <ele>1849</ele>
        <time>2014-03-28T14:13:37Z</time>
      </trkpt>
      <trkpt lat="42.8191" lon="0.45665">
        <ele>1848</ele>
        <time>2014-03-28T14:13:50Z</time>
      </trkpt>
      <trkpt lat="42.81906" lon="0.4566">
        <ele>1848</ele>
        <time>2014-03-28T14:13:56Z</time>
      </trkpt>
      <trkpt lat="42.81904" lon="0.45657">
        <ele>1848</ele>
        <time>2014-03-28T14:13:59Z</time>
      </trkpt>
      <trkpt lat="42.81893" lon="0.45646">
        <ele>1848</ele>
        <time>2014-03-28T14:14:13Z</time>
      </trkpt>
      <trkpt lat="42.81884" lon="0.45636">
        <ele>1848</ele>
        <time>2014-03-28T14:14:27Z</time>
      </trkpt>
      <trkpt lat="42.81876" lon="0.45624">
        <ele>1848</ele>
        <time>2014-03-28T14:14:42Z</time>
      </trkpt>
      <trkpt lat="42.81873" lon="0.45619">
        <ele>1849</ele>
        <time>2014-03-28T14:14:58Z</time>
      </trkpt>
      <trkpt lat="42.81872" lon="0.4562">
        <ele>1849</ele>
        <time>2014-03-28T14:15:11Z</time>
      </trkpt>
      <trkpt lat="42.81873" lon="0.45618">
        <ele>1848</ele>
        <time>2014-03-28T14:15:32Z</time>
      </trkpt>
      <trkpt lat="42.81872" lon="0.45619">
        <ele>1848</ele>
        <time>2014-03-28T14:15:51Z</time>
      </trkpt>
      <trkpt lat="42.81872" lon="0.4562">
        <ele>1848</ele>
        <time>2014-03-28T14:16:34Z</time>
      </trkpt>
      <trkpt lat="42.81872" lon="0.45617">
        <ele>1848</ele>
        <time>2014-03-28T14:17:06Z</time>
      </trkpt>
      <trkpt lat="42.81872" lon="0.45618">
        <ele>1848</ele>
        <time>2014-03-28T14:17:47Z</time>
      </trkpt>
      <trkpt lat="42.81873" lon="0.45617">
        <ele>1848</ele>
        <time>2014-03-28T14:18:21Z</time>
      </trkpt>
      <trkpt lat="42.81872" lon="0.45617">
        <ele>1848</ele>
        <time>2014-03-28T14:18:59Z</time>
      </trkpt>
      <trkpt lat="42.81873" lon="0.45617">
        <ele>1849</ele>
        <time>2014-03-28T14:19:47Z</time>
      </trkpt>
      <trkpt lat="42.81873" lon="0.45618">
        <ele>1849</ele>
        <time>2014-03-28T14:20:22Z</time>
      </trkpt>
      <trkpt lat="42.81873" lon="0.4562">
        <ele>1850</ele>
        <time>2014-03-28T14:20:42Z</time>
      </trkpt>
      <trkpt lat="42.81873" lon="0.45621">
        <ele>1850</ele>
        <time>2014-03-28T14:21:05Z</time>
      </trkpt>
      <trkpt lat="42.81872" lon="0.4562">
        <ele>1849</ele>
        <time>2014-03-28T14:21:23Z</time>
      </trkpt>
      <trkpt lat="42.81873" lon="0.4562">
        <ele>1849</ele>
        <time>2014-03-28T14:21:47Z</time>
      </trkpt>
      <trkpt lat="42.8187" lon="0.45619">
        <ele>1850</ele>
        <time>2014-03-28T14:21:59Z</time>
      </trkpt>
      <trkpt lat="42.81861" lon="0.45614">
        <ele>1851</ele>
        <time>2014-03-28T14:22:14Z</time>
      </trkpt>
      <trkpt lat="42.81851" lon="0.45607">
        <ele>1853</ele>
        <time>2014-03-28T14:22:32Z</time>
      </trkpt>
      <trkpt lat="42.81841" lon="0.45601">
        <ele>1854</ele>
        <time>2014-03-28T14:22:47Z</time>
      </trkpt>
      <trkpt lat="42.81829" lon="0.45594">
        <ele>1856</ele>
        <time>2014-03-28T14:23:07Z</time>
      </trkpt>
      <trkpt lat="42.81822" lon="0.4559">
        <ele>1857</ele>
        <time>2014-03-28T14:23:21Z</time>
      </trkpt>
      <trkpt lat="42.81812" lon="0.45585">
        <ele>1859</ele>
        <time>2014-03-28T14:23:37Z</time>
      </trkpt>
      <trkpt lat="42.81806" lon="0.45583">
        <ele>1860</ele>
        <time>2014-03-28T14:23:52Z</time>
      </trkpt>
      <trkpt lat="42.81807" lon="0.45583">
        <ele>1861</ele>
        <time>2014-03-28T14:24:06Z</time>
      </trkpt>
      <trkpt lat="42.81805" lon="0.45579">
        <ele>1860</ele>
        <time>2014-03-28T14:24:15Z</time>
      </trkpt>
      <trkpt lat="42.818" lon="0.45574">
        <ele>1862</ele>
        <time>2014-03-28T14:24:28Z</time>
      </trkpt>
      <trkpt lat="42.81794" lon="0.45569">
        <ele>1865</ele>
        <time>2014-03-28T14:24:47Z</time>
      </trkpt>
      <trkpt lat="42.81787" lon="0.45563">
        <ele>1867</ele>
        <time>2014-03-28T14:25:03Z</time>
      </trkpt>
      <trkpt lat="42.8178" lon="0.45559">
        <ele>1870</ele>
        <time>2014-03-28T14:25:17Z</time>
      </trkpt>
      <trkpt lat="42.8178" lon="0.45556">
        <ele>1873</ele>
        <time>2014-03-28T14:25:32Z</time>
      </trkpt>
      <trkpt lat="42.81777" lon="0.45552">
        <ele>1875</ele>
        <time>2014-03-28T14:25:46Z</time>
      </trkpt>
      <trkpt lat="42.81775" lon="0.4555">
        <ele>1877</ele>
        <time>2014-03-28T14:25:57Z</time>
      </trkpt>
      <trkpt lat="42.81775" lon="0.45549">
        <ele>1877</ele>
        <time>2014-03-28T14:26:16Z</time>
      </trkpt>
      <trkpt lat="42.81769" lon="0.45546">
        <ele>1879</ele>
        <time>2014-03-28T14:26:32Z</time>
      </trkpt>
      <trkpt lat="42.81765" lon="0.45541">
        <ele>1881</ele>
        <time>2014-03-28T14:26:43Z</time>
      </trkpt>
      <trkpt lat="42.8176" lon="0.45541">
        <ele>1884</ele>
        <time>2014-03-28T14:26:58Z</time>
      </trkpt>
      <trkpt lat="42.81754" lon="0.45545">
        <ele>1885</ele>
        <time>2014-03-28T14:27:12Z</time>
      </trkpt>
      <trkpt lat="42.81753" lon="0.45544">
        <ele>1886</ele>
        <time>2014-03-28T14:27:27Z</time>
      </trkpt>
      <trkpt lat="42.81754" lon="0.45546">
        <ele>1886</ele>
        <time>2014-03-28T14:27:42Z</time>
      </trkpt>
      <trkpt lat="42.81753" lon="0.45546">
        <ele>1886</ele>
        <time>2014-03-28T14:27:57Z</time>
      </trkpt>
      <trkpt lat="42.81752" lon="0.45547">
        <ele>1887</ele>
        <time>2014-03-28T14:28:27Z</time>
      </trkpt>
      <trkpt lat="42.81746" lon="0.45545">
        <ele>1888</ele>
        <time>2014-03-28T14:28:38Z</time>
      </trkpt>
      <trkpt lat="42.81741" lon="0.45546">
        <ele>1890</ele>
        <time>2014-03-28T14:28:51Z</time>
      </trkpt>
      <trkpt lat="42.81734" lon="0.45548">
        <ele>1892</ele>
        <time>2014-03-28T14:29:05Z</time>
      </trkpt>
      <trkpt lat="42.81733" lon="0.45551">
        <ele>1892</ele>
        <time>2014-03-28T14:29:30Z</time>
      </trkpt>
      <trkpt lat="42.81728" lon="0.45548">
        <ele>1893</ele>
        <time>2014-03-28T14:29:47Z</time>
      </trkpt>
      <trkpt lat="42.81719" lon="0.45542">
        <ele>1895</ele>
        <time>2014-03-28T14:30:00Z</time>
      </trkpt>
      <trkpt lat="42.81714" lon="0.45538">
        <ele>1897</ele>
        <time>2014-03-28T14:30:13Z</time>
      </trkpt>
      <trkpt lat="42.8171" lon="0.45534">
        <ele>1899</ele>
        <time>2014-03-28T14:30:24Z</time>
      </trkpt>
      <trkpt lat="42.81713" lon="0.4554">
        <ele>1899</ele>
        <time>2014-03-28T14:30:48Z</time>
      </trkpt>
      <trkpt lat="42.8171" lon="0.45539">
        <ele>1899</ele>
        <time>2014-03-28T14:31:21Z</time>
      </trkpt>
      <trkpt lat="42.81712" lon="0.45537">
        <ele>1900</ele>
        <time>2014-03-28T14:31:45Z</time>
      </trkpt>
      <trkpt lat="42.81708" lon="0.45533">
        <ele>1903</ele>
        <time>2014-03-28T14:31:59Z</time>
      </trkpt>
      <trkpt lat="42.81705" lon="0.4553">
        <ele>1905</ele>
        <time>2014-03-28T14:32:13Z</time>
      </trkpt>
      <trkpt lat="42.81703" lon="0.45527">
        <ele>1907</ele>
        <time>2014-03-28T14:32:27Z</time>
      </trkpt>
      <trkpt lat="42.81698" lon="0.45523">
        <ele>1909</ele>
        <time>2014-03-28T14:32:40Z</time>
      </trkpt>
      <trkpt lat="42.81694" lon="0.45522">
        <ele>1911</ele>
        <time>2014-03-28T14:32:55Z</time>
      </trkpt>
      <trkpt lat="42.81692" lon="0.45523">
        <ele>1913</ele>
        <time>2014-03-28T14:33:00Z</time>
      </trkpt>
      <trkpt lat="42.81694" lon="0.45525">
        <ele>1912</ele>
        <time>2014-03-28T14:33:21Z</time>
      </trkpt>
      <trkpt lat="42.81693" lon="0.45525">
        <ele>1912</ele>
        <time>2014-03-28T14:33:45Z</time>
      </trkpt>
      <trkpt lat="42.81696" lon="0.45528">
        <ele>1913</ele>
        <time>2014-03-28T14:34:18Z</time>
      </trkpt>
      <trkpt lat="42.81691" lon="0.4553">
        <ele>1913</ele>
        <time>2014-03-28T14:34:36Z</time>
      </trkpt>
      <trkpt lat="42.81688" lon="0.45532">
        <ele>1913</ele>
        <time>2014-03-28T14:34:47Z</time>
      </trkpt>
      <trkpt lat="42.81689" lon="0.45533">
        <ele>1913</ele>
        <time>2014-03-28T14:35:26Z</time>
      </trkpt>
      <trkpt lat="42.81683" lon="0.45536">
        <ele>1913</ele>
        <time>2014-03-28T14:35:37Z</time>
      </trkpt>
      <trkpt lat="42.81672" lon="0.45542">
        <ele>1911</ele>
        <time>2014-03-28T14:35:52Z</time>
      </trkpt>
      <trkpt lat="42.81664" lon="0.45549">
        <ele>1908</ele>
        <time>2014-03-28T14:36:06Z</time>
      </trkpt>
      <trkpt lat="42.81663" lon="0.45549">
        <ele>1908</ele>
        <time>2014-03-28T14:36:19Z</time>
      </trkpt>
      <trkpt lat="42.81661" lon="0.45552">
        <ele>1907</ele>
        <time>2014-03-28T14:36:35Z</time>
      </trkpt>
      <trkpt lat="42.81651" lon="0.45555">
        <ele>1904</ele>
        <time>2014-03-28T14:36:48Z</time>
      </trkpt>
      <trkpt lat="42.81642" lon="0.45556">
        <ele>1902</ele>
        <time>2014-03-28T14:36:59Z</time>
      </trkpt>
      <trkpt lat="42.81641" lon="0.45554">
        <ele>1902</ele>
        <time>2014-03-28T14:37:14Z</time>
      </trkpt>
      <trkpt lat="42.81641" lon="0.45555">
        <ele>1902</ele>
        <time>2014-03-28T14:37:32Z</time>
      </trkpt>
      <trkpt lat="42.8164" lon="0.45556">
        <ele>1902</ele>
        <time>2014-03-28T14:37:52Z</time>
      </trkpt>
      <trkpt lat="42.81637" lon="0.45557">
        <ele>1901</ele>
        <time>2014-03-28T14:37:55Z</time>
      </trkpt>
      <trkpt lat="42.81633" lon="0.45558">
        <ele>1900</ele>
        <time>2014-03-28T14:38:00Z</time>
      </trkpt>
      <trkpt lat="42.81623" lon="0.45564">
        <ele>1898</ele>
        <time>2014-03-28T14:38:14Z</time>
      </trkpt>
      <trkpt lat="42.8162" lon="0.45568">
        <ele>1898</ele>
        <time>2014-03-28T14:38:31Z</time>
      </trkpt>
      <trkpt lat="42.81619" lon="0.45569">
        <ele>1898</ele>
        <time>2014-03-28T14:39:02Z</time>
      </trkpt>
      <trkpt lat="42.81619" lon="0.45569">
        <ele>1898</ele>
        <time>2014-03-28T14:39:38Z</time>
      </trkpt>
      <trkpt lat="42.81619" lon="0.45569">
        <ele>1897</ele>
        <time>2014-03-28T14:40:14Z</time>
      </trkpt>
      <trkpt lat="42.8162" lon="0.45569">
        <ele>1898</ele>
        <time>2014-03-28T14:40:37Z</time>
      </trkpt>
      <trkpt lat="42.81618" lon="0.4557">
        <ele>1897</ele>
        <time>2014-03-28T14:40:47Z</time>
      </trkpt>
      <trkpt lat="42.81606" lon="0.45574">
        <ele>1895</ele>
        <time>2014-03-28T14:41:01Z</time>
      </trkpt>
      <trkpt lat="42.81605" lon="0.45574">
        <ele>1894</ele>
        <time>2014-03-28T14:41:02Z</time>
      </trkpt>
      <trkpt lat="42.81603" lon="0.45575">
        <ele>1895</ele>
        <time>2014-03-28T14:41:04Z</time>
      </trkpt>
      <trkpt lat="42.81595" lon="0.45575">
        <ele>1893</ele>
        <time>2014-03-28T14:41:12Z</time>
      </trkpt>
      <trkpt lat="42.81592" lon="0.45576">
        <ele>1892</ele>
        <time>2014-03-28T14:41:15Z</time>
      </trkpt>
      <trkpt lat="42.81589" lon="0.45578">
        <ele>1892</ele>
        <time>2014-03-28T14:41:18Z</time>
      </trkpt>
      <trkpt lat="42.81575" lon="0.45576">
        <ele>1891</ele>
        <time>2014-03-28T14:41:32Z</time>
      </trkpt>
      <trkpt lat="42.81572" lon="0.45576">
        <ele>1890</ele>
        <time>2014-03-28T14:41:35Z</time>
      </trkpt>
      <trkpt lat="42.81558" lon="0.45573">
        <ele>1889</ele>
        <time>2014-03-28T14:41:48Z</time>
      </trkpt>
      <trkpt lat="42.81557" lon="0.45574">
        <ele>1889</ele>
        <time>2014-03-28T14:41:49Z</time>
      </trkpt>
      <trkpt lat="42.81555" lon="0.45574">
        <ele>1889</ele>
        <time>2014-03-28T14:41:51Z</time>
      </trkpt>
      <trkpt lat="42.81552" lon="0.45573">
        <ele>1889</ele>
        <time>2014-03-28T14:41:54Z</time>
      </trkpt>
      <trkpt lat="42.81545" lon="0.45571">
        <ele>1888</ele>
        <time>2014-03-28T14:42:01Z</time>
      </trkpt>
      <trkpt lat="42.8153" lon="0.4557">
        <ele>1887</ele>
        <time>2014-03-28T14:42:16Z</time>
      </trkpt>
      <trkpt lat="42.81527" lon="0.4557">
        <ele>1886</ele>
        <time>2014-03-28T14:42:19Z</time>
      </trkpt>
      <trkpt lat="42.81517" lon="0.45571">
        <ele>1884</ele>
        <time>2014-03-28T14:42:29Z</time>
      </trkpt>
      <trkpt lat="42.81503" lon="0.45568">
        <ele>1880</ele>
        <time>2014-03-28T14:42:44Z</time>
      </trkpt>
      <trkpt lat="42.81494" lon="0.45568">
        <ele>1878</ele>
        <time>2014-03-28T14:42:54Z</time>
      </trkpt>
      <trkpt lat="42.81483" lon="0.45567">
        <ele>1875</ele>
        <time>2014-03-28T14:43:06Z</time>
      </trkpt>
      <trkpt lat="42.81473" lon="0.45567">
        <ele>1871</ele>
        <time>2014-03-28T14:43:15Z</time>
      </trkpt>
      <trkpt lat="42.81458" lon="0.45565">
        <ele>1868</ele>
        <time>2014-03-28T14:43:28Z</time>
      </trkpt>
      <trkpt lat="42.81451" lon="0.45565">
        <ele>1867</ele>
        <time>2014-03-28T14:43:35Z</time>
      </trkpt>
      <trkpt lat="42.81444" lon="0.45563">
        <ele>1866</ele>
        <time>2014-03-28T14:43:42Z</time>
      </trkpt>
      <trkpt lat="42.81431" lon="0.45562">
        <ele>1865</ele>
        <time>2014-03-28T14:43:54Z</time>
      </trkpt>
      <trkpt lat="42.81424" lon="0.45561">
        <ele>1864</ele>
        <time>2014-03-28T14:44:01Z</time>
      </trkpt>
      <trkpt lat="42.81407" lon="0.4556">
        <ele>1863</ele>
        <time>2014-03-28T14:44:17Z</time>
      </trkpt>
      <trkpt lat="42.81392" lon="0.45556">
        <ele>1862</ele>
        <time>2014-03-28T14:44:32Z</time>
      </trkpt>
      <trkpt lat="42.81383" lon="0.45555">
        <ele>1862</ele>
        <time>2014-03-28T14:44:45Z</time>
      </trkpt>
      <trkpt lat="42.81381" lon="0.45555">
        <ele>1863</ele>
        <time>2014-03-28T14:44:57Z</time>
      </trkpt>
      <trkpt lat="42.81382" lon="0.45556">
        <ele>1864</ele>
        <time>2014-03-28T14:45:01Z</time>
      </trkpt>
      <trkpt lat="42.81382" lon="0.45557">
        <ele>1862</ele>
        <time>2014-03-28T14:45:15Z</time>
      </trkpt>
      <trkpt lat="42.81379" lon="0.45558">
        <ele>1862</ele>
        <time>2014-03-28T14:45:21Z</time>
      </trkpt>
      <trkpt lat="42.81373" lon="0.45557">
        <ele>1861</ele>
        <time>2014-03-28T14:45:29Z</time>
      </trkpt>
      <trkpt lat="42.81366" lon="0.45556">
        <ele>1858</ele>
        <time>2014-03-28T14:45:36Z</time>
      </trkpt>
      <trkpt lat="42.81357" lon="0.4556">
        <ele>1855</ele>
        <time>2014-03-28T14:45:48Z</time>
      </trkpt>
      <trkpt lat="42.81352" lon="0.45561">
        <ele>1854</ele>
        <time>2014-03-28T14:45:54Z</time>
      </trkpt>
      <trkpt lat="42.81344" lon="0.45565">
        <ele>1851</ele>
        <time>2014-03-28T14:46:07Z</time>
      </trkpt>
      <trkpt lat="42.81338" lon="0.45567">
        <ele>1847</ele>
        <time>2014-03-28T14:46:18Z</time>
      </trkpt>
      <trkpt lat="42.81333" lon="0.45567">
        <ele>1845</ele>
        <time>2014-03-28T14:46:24Z</time>
      </trkpt>
      <trkpt lat="42.81329" lon="0.45566">
        <ele>1842</ele>
        <time>2014-03-28T14:46:32Z</time>
      </trkpt>
      <trkpt lat="42.81327" lon="0.45565">
        <ele>1841</ele>
        <time>2014-03-28T14:46:34Z</time>
      </trkpt>
      <trkpt lat="42.81323" lon="0.45565">
        <ele>1840</ele>
        <time>2014-03-28T14:46:39Z</time>
      </trkpt>
      <trkpt lat="42.81309" lon="0.45568">
        <ele>1837</ele>
        <time>2014-03-28T14:46:52Z</time>
      </trkpt>
      <trkpt lat="42.81297" lon="0.45572">
        <ele>1835</ele>
        <time>2014-03-28T14:47:07Z</time>
      </trkpt>
      <trkpt lat="42.81294" lon="0.45573">
        <ele>1834</ele>
        <time>2014-03-28T14:47:10Z</time>
      </trkpt>
      <trkpt lat="42.81284" lon="0.45575">
        <ele>1832</ele>
        <time>2014-03-28T14:47:22Z</time>
      </trkpt>
      <trkpt lat="42.81282" lon="0.45575">
        <ele>1832</ele>
        <time>2014-03-28T14:47:24Z</time>
      </trkpt>
      <trkpt lat="42.81277" lon="0.45577">
        <ele>1830</ele>
        <time>2014-03-28T14:47:29Z</time>
      </trkpt>
      <trkpt lat="42.81272" lon="0.45579">
        <ele>1829</ele>
        <time>2014-03-28T14:47:35Z</time>
      </trkpt>
      <trkpt lat="42.8126" lon="0.45581">
        <ele>1826</ele>
        <time>2014-03-28T14:47:49Z</time>
      </trkpt>
      <trkpt lat="42.81258" lon="0.45582">
        <ele>1826</ele>
        <time>2014-03-28T14:47:51Z</time>
      </trkpt>
      <trkpt lat="42.81256" lon="0.45583">
        <ele>1825</ele>
        <time>2014-03-28T14:47:53Z</time>
      </trkpt>
      <trkpt lat="42.81248" lon="0.45583">
        <ele>1823</ele>
        <time>2014-03-28T14:48:01Z</time>
      </trkpt>
      <trkpt lat="42.81245" lon="0.45584">
        <ele>1822</ele>
        <time>2014-03-28T14:48:04Z</time>
      </trkpt>
      <trkpt lat="42.81233" lon="0.45587">
        <ele>1819</ele>
        <time>2014-03-28T14:48:17Z</time>
      </trkpt>
      <trkpt lat="42.81222" lon="0.4559">
        <ele>1816</ele>
        <time>2014-03-28T14:48:28Z</time>
      </trkpt>
      <trkpt lat="42.81221" lon="0.4559">
        <ele>1816</ele>
        <time>2014-03-28T14:48:29Z</time>
      </trkpt>
      <trkpt lat="42.81219" lon="0.45592">
        <ele>1815</ele>
        <time>2014-03-28T14:48:31Z</time>
      </trkpt>
      <trkpt lat="42.81216" lon="0.45593">
        <ele>1814</ele>
        <time>2014-03-28T14:48:34Z</time>
      </trkpt>
      <trkpt lat="42.81207" lon="0.45595">
        <ele>1811</ele>
        <time>2014-03-28T14:48:43Z</time>
      </trkpt>
      <trkpt lat="42.81192" lon="0.45598">
        <ele>1808</ele>
        <time>2014-03-28T14:48:57Z</time>
      </trkpt>
      <trkpt lat="42.81189" lon="0.45598">
        <ele>1808</ele>
        <time>2014-03-28T14:48:59Z</time>
      </trkpt>
      <trkpt lat="42.81185" lon="0.45598">
        <ele>1808</ele>
        <time>2014-03-28T14:49:02Z</time>
      </trkpt>
      <trkpt lat="42.81177" lon="0.456">
        <ele>1808</ele>
        <time>2014-03-28T14:49:10Z</time>
      </trkpt>
      <trkpt lat="42.81174" lon="0.456">
        <ele>1808</ele>
        <time>2014-03-28T14:49:13Z</time>
      </trkpt>
      <trkpt lat="42.81162" lon="0.45604">
        <ele>1808</ele>
        <time>2014-03-28T14:49:27Z</time>
      </trkpt>
      <trkpt lat="42.81149" lon="0.45606">
        <ele>1809</ele>
        <time>2014-03-28T14:49:42Z</time>
      </trkpt>
      <trkpt lat="42.81145" lon="0.45606">
        <ele>1809</ele>
        <time>2014-03-28T14:49:58Z</time>
      </trkpt>
      <trkpt lat="42.81145" lon="0.45607">
        <ele>1810</ele>
        <time>2014-03-28T14:50:26Z</time>
      </trkpt>
      <trkpt lat="42.81144" lon="0.45605">
        <ele>1809</ele>
        <time>2014-03-28T14:50:42Z</time>
      </trkpt>
      <trkpt lat="42.81137" lon="0.45606">
        <ele>1810</ele>
        <time>2014-03-28T14:50:51Z</time>
      </trkpt>
      <trkpt lat="42.81123" lon="0.45604">
        <ele>1812</ele>
        <time>2014-03-28T14:51:06Z</time>
      </trkpt>
      <trkpt lat="42.81111" lon="0.456">
        <ele>1813</ele>
        <time>2014-03-28T14:51:20Z</time>
      </trkpt>
      <trkpt lat="42.81112" lon="0.45602">
        <ele>1815</ele>
        <time>2014-03-28T14:51:33Z</time>
      </trkpt>
      <trkpt lat="42.8111" lon="0.45601">
        <ele>1814</ele>
        <time>2014-03-28T14:51:48Z</time>
      </trkpt>
      <trkpt lat="42.81115" lon="0.45605">
        <ele>1814</ele>
        <time>2014-03-28T14:52:13Z</time>
      </trkpt>
      <trkpt lat="42.81105" lon="0.45599">
        <ele>1816</ele>
        <time>2014-03-28T14:52:29Z</time>
      </trkpt>
      <trkpt lat="42.81097" lon="0.45593">
        <ele>1818</ele>
        <time>2014-03-28T14:52:42Z</time>
      </trkpt>
      <trkpt lat="42.81086" lon="0.45588">
        <ele>1820</ele>
        <time>2014-03-28T14:52:56Z</time>
      </trkpt>
      <trkpt lat="42.81086" lon="0.45591">
        <ele>1822</ele>
        <time>2014-03-28T14:53:10Z</time>
      </trkpt>
      <trkpt lat="42.81082" lon="0.45588">
        <ele>1824</ele>
        <time>2014-03-28T14:53:25Z</time>
      </trkpt>
      <trkpt lat="42.81077" lon="0.45588">
        <ele>1826</ele>
        <time>2014-03-28T14:53:40Z</time>
      </trkpt>
      <trkpt lat="42.81062" lon="0.45576">
        <ele>1825</ele>
        <time>2014-03-28T14:54:06Z</time>
      </trkpt>
      <trkpt lat="42.81061" lon="0.45574">
        <ele>1825</ele>
        <time>2014-03-28T14:54:29Z</time>
      </trkpt>
      <trkpt lat="42.81057" lon="0.45562">
        <ele>1825</ele>
        <time>2014-03-28T14:54:57Z</time>
      </trkpt>
      <trkpt lat="42.81067" lon="0.45583">
        <ele>1826</ele>
        <time>2014-03-28T14:55:18Z</time>
      </trkpt>
      <trkpt lat="42.8106" lon="0.45584">
        <ele>1829</ele>
        <time>2014-03-28T14:55:33Z</time>
      </trkpt>
      <trkpt lat="42.81059" lon="0.45587">
        <ele>1831</ele>
        <time>2014-03-28T14:55:45Z</time>
      </trkpt>
      <trkpt lat="42.81053" lon="0.45587">
        <ele>1833</ele>
        <time>2014-03-28T14:55:57Z</time>
      </trkpt>
      <trkpt lat="42.81055" lon="0.45596">
        <ele>1836</ele>
        <time>2014-03-28T14:56:11Z</time>
      </trkpt>
      <trkpt lat="42.81053" lon="0.45598">
        <ele>1838</ele>
        <time>2014-03-28T14:56:24Z</time>
      </trkpt>
      <trkpt lat="42.81047" lon="0.45594">
        <ele>1839</ele>
        <time>2014-03-28T14:56:41Z</time>
      </trkpt>
      <trkpt lat="42.81045" lon="0.45597">
        <ele>1842</ele>
        <time>2014-03-28T14:56:56Z</time>
      </trkpt>
      <trkpt lat="42.81042" lon="0.45605">
        <ele>1844</ele>
        <time>2014-03-28T14:57:10Z</time>
      </trkpt>
      <trkpt lat="42.81035" lon="0.45607">
        <ele>1846</ele>
        <time>2014-03-28T14:57:25Z</time>
      </trkpt>
      <trkpt lat="42.81027" lon="0.45609">
        <ele>1848</ele>
        <time>2014-03-28T14:57:39Z</time>
      </trkpt>
      <trkpt lat="42.81019" lon="0.45609">
        <ele>1851</ele>
        <time>2014-03-28T14:57:53Z</time>
      </trkpt>
      <trkpt lat="42.81008" lon="0.45615">
        <ele>1851</ele>
        <time>2014-03-28T14:58:09Z</time>
      </trkpt>
      <trkpt lat="42.81" lon="0.45621">
        <ele>1851</ele>
        <time>2014-03-28T14:58:21Z</time>
      </trkpt>
      <trkpt lat="42.80998" lon="0.45623">
        <ele>1851</ele>
        <time>2014-03-28T14:58:36Z</time>
      </trkpt>
      <trkpt lat="42.80999" lon="0.45624">
        <ele>1850</ele>
        <time>2014-03-28T14:58:58Z</time>
      </trkpt>
      <trkpt lat="42.8099" lon="0.45629">
        <ele>1848</ele>
        <time>2014-03-28T14:59:13Z</time>
      </trkpt>
      <trkpt lat="42.8098" lon="0.45635">
        <ele>1845</ele>
        <time>2014-03-28T14:59:27Z</time>
      </trkpt>
      <trkpt lat="42.80979" lon="0.45636">
        <ele>1845</ele>
        <time>2014-03-28T14:59:28Z</time>
      </trkpt>
      <trkpt lat="42.80974" lon="0.4564">
        <ele>1842</ele>
        <time>2014-03-28T14:59:35Z</time>
      </trkpt>
      <trkpt lat="42.80967" lon="0.45648">
        <ele>1839</ele>
        <time>2014-03-28T14:59:48Z</time>
      </trkpt>
      <trkpt lat="42.80961" lon="0.45656">
        <ele>1837</ele>
        <time>2014-03-28T14:59:59Z</time>
      </trkpt>
      <trkpt lat="42.80953" lon="0.45662">
        <ele>1833</ele>
        <time>2014-03-28T15:00:10Z</time>
      </trkpt>
      <trkpt lat="42.80943" lon="0.4567">
        <ele>1830</ele>
        <time>2014-03-28T15:00:23Z</time>
      </trkpt>
      <trkpt lat="42.80935" lon="0.45675">
        <ele>1827</ele>
        <time>2014-03-28T15:00:33Z</time>
      </trkpt>
      <trkpt lat="42.80923" lon="0.45681">
        <ele>1824</ele>
        <time>2014-03-28T15:00:48Z</time>
      </trkpt>
      <trkpt lat="42.8092" lon="0.45684">
        <ele>1823</ele>
        <time>2014-03-28T15:01:07Z</time>
      </trkpt>
      <trkpt lat="42.80918" lon="0.45686">
        <ele>1821</ele>
        <time>2014-03-28T15:01:34Z</time>
      </trkpt>
      <trkpt lat="42.80911" lon="0.45689">
        <ele>1819</ele>
        <time>2014-03-28T15:01:44Z</time>
      </trkpt>
      <trkpt lat="42.80906" lon="0.45692">
        <ele>1816</ele>
        <time>2014-03-28T15:01:54Z</time>
      </trkpt>
      <trkpt lat="42.80903" lon="0.45693">
        <ele>1815</ele>
        <time>2014-03-28T15:02:08Z</time>
      </trkpt>
      <trkpt lat="42.80902" lon="0.45693">
        <ele>1814</ele>
        <time>2014-03-28T15:02:34Z</time>
      </trkpt>
      <trkpt lat="42.809" lon="0.45695">
        <ele>1814</ele>
        <time>2014-03-28T15:03:03Z</time>
      </trkpt>
      <trkpt lat="42.80895" lon="0.45697">
        <ele>1811</ele>
        <time>2014-03-28T15:03:13Z</time>
      </trkpt>
      <trkpt lat="42.8089" lon="0.457">
        <ele>1807</ele>
        <time>2014-03-28T15:03:22Z</time>
      </trkpt>
      <trkpt lat="42.80886" lon="0.45704">
        <ele>1805</ele>
        <time>2014-03-28T15:03:35Z</time>
      </trkpt>
      <trkpt lat="42.8088" lon="0.45706">
        <ele>1803</ele>
        <time>2014-03-28T15:03:48Z</time>
      </trkpt>
      <trkpt lat="42.80875" lon="0.45711">
        <ele>1800</ele>
        <time>2014-03-28T15:03:59Z</time>
      </trkpt>
      <trkpt lat="42.8087" lon="0.45714">
        <ele>1797</ele>
        <time>2014-03-28T15:04:10Z</time>
      </trkpt>
      <trkpt lat="42.80865" lon="0.45718">
        <ele>1796</ele>
        <time>2014-03-28T15:04:22Z</time>
      </trkpt>
      <trkpt lat="42.80856" lon="0.45727">
        <ele>1793</ele>
        <time>2014-03-28T15:04:35Z</time>
      </trkpt>
      <trkpt lat="42.80848" lon="0.45736">
        <ele>1789</ele>
        <time>2014-03-28T15:04:47Z</time>
      </trkpt>
      <trkpt lat="42.8084" lon="0.45743">
        <ele>1787</ele>
        <time>2014-03-28T15:04:57Z</time>
      </trkpt>
      <trkpt lat="42.80836" lon="0.45749">
        <ele>1785</ele>
        <time>2014-03-28T15:05:04Z</time>
      </trkpt>
      <trkpt lat="42.80831" lon="0.45752">
        <ele>1782</ele>
        <time>2014-03-28T15:05:10Z</time>
      </trkpt>
      <trkpt lat="42.80824" lon="0.45756">
        <ele>1781</ele>
        <time>2014-03-28T15:05:17Z</time>
      </trkpt>
      <trkpt lat="42.80815" lon="0.45769">
        <ele>1779</ele>
        <time>2014-03-28T15:05:30Z</time>
      </trkpt>
      <trkpt lat="42.8081" lon="0.45778">
        <ele>1777</ele>
        <time>2014-03-28T15:05:39Z</time>
      </trkpt>
      <trkpt lat="42.80806" lon="0.45784">
        <ele>1777</ele>
        <time>2014-03-28T15:05:50Z</time>
      </trkpt>
      <trkpt lat="42.80801" lon="0.45783">
        <ele>1777</ele>
        <time>2014-03-28T15:06:02Z</time>
      </trkpt>
      <trkpt lat="42.80789" lon="0.45779">
        <ele>1777</ele>
        <time>2014-03-28T15:06:14Z</time>
      </trkpt>
      <trkpt lat="42.80778" lon="0.45779">
        <ele>1778</ele>
        <time>2014-03-28T15:06:28Z</time>
      </trkpt>
      <trkpt lat="42.80771" lon="0.45782">
        <ele>1779</ele>
        <time>2014-03-28T15:06:41Z</time>
      </trkpt>
      <trkpt lat="42.8077" lon="0.45782">
        <ele>1778</ele>
        <time>2014-03-28T15:07:03Z</time>
      </trkpt>
      <trkpt lat="42.80771" lon="0.4578">
        <ele>1779</ele>
        <time>2014-03-28T15:07:34Z</time>
      </trkpt>
      <trkpt lat="42.80772" lon="0.45781">
        <ele>1778</ele>
        <time>2014-03-28T15:08:11Z</time>
      </trkpt>
      <trkpt lat="42.8077" lon="0.45781">
        <ele>1778</ele>
        <time>2014-03-28T15:08:28Z</time>
      </trkpt>
      <trkpt lat="42.80771" lon="0.45781">
        <ele>1778</ele>
        <time>2014-03-28T15:08:51Z</time>
      </trkpt>
      <trkpt lat="42.80768" lon="0.45779">
        <ele>1778</ele>
        <time>2014-03-28T15:09:06Z</time>
      </trkpt>
      <trkpt lat="42.80768" lon="0.45781">
        <ele>1779</ele>
        <time>2014-03-28T15:09:26Z</time>
      </trkpt>
      <trkpt lat="42.80764" lon="0.45781">
        <ele>1780</ele>
        <time>2014-03-28T15:09:38Z</time>
      </trkpt>
      <trkpt lat="42.80759" lon="0.45779">
        <ele>1780</ele>
        <time>2014-03-28T15:09:51Z</time>
      </trkpt>
      <trkpt lat="42.80753" lon="0.45776">
        <ele>1783</ele>
        <time>2014-03-28T15:10:06Z</time>
      </trkpt>
      <trkpt lat="42.80746" lon="0.45772">
        <ele>1785</ele>
        <time>2014-03-28T15:10:20Z</time>
      </trkpt>
      <trkpt lat="42.80743" lon="0.4577">
        <ele>1787</ele>
        <time>2014-03-28T15:10:35Z</time>
      </trkpt>
      <trkpt lat="42.80737" lon="0.45771">
        <ele>1790</ele>
        <time>2014-03-28T15:10:48Z</time>
      </trkpt>
      <trkpt lat="42.80734" lon="0.45777">
        <ele>1792</ele>
        <time>2014-03-28T15:11:01Z</time>
      </trkpt>
      <trkpt lat="42.80733" lon="0.45778">
        <ele>1792</ele>
        <time>2014-03-28T15:11:18Z</time>
      </trkpt>
      <trkpt lat="42.80735" lon="0.45781">
        <ele>1793</ele>
        <time>2014-03-28T15:11:38Z</time>
      </trkpt>
      <trkpt lat="42.80734" lon="0.45793">
        <ele>1794</ele>
        <time>2014-03-28T15:11:51Z</time>
      </trkpt>
      <trkpt lat="42.80729" lon="0.45798">
        <ele>1796</ele>
        <time>2014-03-28T15:12:07Z</time>
      </trkpt>
      <trkpt lat="42.80725" lon="0.45794">
        <ele>1799</ele>
        <time>2014-03-28T15:12:22Z</time>
      </trkpt>
      <trkpt lat="42.80718" lon="0.45797">
        <ele>1801</ele>
        <time>2014-03-28T15:12:33Z</time>
      </trkpt>
      <trkpt lat="42.80717" lon="0.45802">
        <ele>1803</ele>
        <time>2014-03-28T15:12:48Z</time>
      </trkpt>
      <trkpt lat="42.80713" lon="0.45808">
        <ele>1805</ele>
        <time>2014-03-28T15:13:02Z</time>
      </trkpt>
      <trkpt lat="42.8071" lon="0.45818">
        <ele>1808</ele>
        <time>2014-03-28T15:13:16Z</time>
      </trkpt>
      <trkpt lat="42.80709" lon="0.4582">
        <ele>1808</ele>
        <time>2014-03-28T15:13:29Z</time>
      </trkpt>
      <trkpt lat="42.80707" lon="0.45824">
        <ele>1809</ele>
        <time>2014-03-28T15:13:45Z</time>
      </trkpt>
      <trkpt lat="42.80702" lon="0.45836">
        <ele>1808</ele>
        <time>2014-03-28T15:13:59Z</time>
      </trkpt>
      <trkpt lat="42.80701" lon="0.45839">
        <ele>1808</ele>
        <time>2014-03-28T15:14:01Z</time>
      </trkpt>
      <trkpt lat="42.80696" lon="0.45846">
        <ele>1808</ele>
        <time>2014-03-28T15:14:09Z</time>
      </trkpt>
      <trkpt lat="42.80686" lon="0.45857">
        <ele>1807</ele>
        <time>2014-03-28T15:14:23Z</time>
      </trkpt>
      <trkpt lat="42.80684" lon="0.45859">
        <ele>1807</ele>
        <time>2014-03-28T15:14:26Z</time>
      </trkpt>
      <trkpt lat="42.80677" lon="0.4587">
        <ele>1806</ele>
        <time>2014-03-28T15:14:37Z</time>
      </trkpt>
      <trkpt lat="42.80665" lon="0.45884">
        <ele>1804</ele>
        <time>2014-03-28T15:14:53Z</time>
      </trkpt>
      <trkpt lat="42.80657" lon="0.45898">
        <ele>1801</ele>
        <time>2014-03-28T15:15:08Z</time>
      </trkpt>
      <trkpt lat="42.80655" lon="0.45901">
        <ele>1801</ele>
        <time>2014-03-28T15:15:10Z</time>
      </trkpt>
      <trkpt lat="42.8064" lon="0.45914">
        <ele>1800</ele>
        <time>2014-03-28T15:15:27Z</time>
      </trkpt>
      <trkpt lat="42.80637" lon="0.45915">
        <ele>1799</ele>
        <time>2014-03-28T15:15:30Z</time>
      </trkpt>
      <trkpt lat="42.80633" lon="0.45916">
        <ele>1800</ele>
        <time>2014-03-28T15:15:35Z</time>
      </trkpt>
      <trkpt lat="42.80626" lon="0.45917">
        <ele>1800</ele>
        <time>2014-03-28T15:15:44Z</time>
      </trkpt>
      <trkpt lat="42.80615" lon="0.45919">
        <ele>1800</ele>
        <time>2014-03-28T15:15:57Z</time>
      </trkpt>
      <trkpt lat="42.80607" lon="0.45921">
        <ele>1799</ele>
        <time>2014-03-28T15:16:06Z</time>
      </trkpt>
      <trkpt lat="42.80594" lon="0.45924">
        <ele>1798</ele>
        <time>2014-03-28T15:16:21Z</time>
      </trkpt>
      <trkpt lat="42.80586" lon="0.45923">
        <ele>1794</ele>
        <time>2014-03-28T15:16:38Z</time>
      </trkpt>
      <trkpt lat="42.80584" lon="0.45922">
        <ele>1794</ele>
        <time>2014-03-28T15:16:51Z</time>
      </trkpt>
      <trkpt lat="42.8058" lon="0.4592">
        <ele>1793</ele>
        <time>2014-03-28T15:17:07Z</time>
      </trkpt>
      <trkpt lat="42.80574" lon="0.45924">
        <ele>1790</ele>
        <time>2014-03-28T15:17:20Z</time>
      </trkpt>
      <trkpt lat="42.80573" lon="0.45924">
        <ele>1789</ele>
        <time>2014-03-28T15:17:22Z</time>
      </trkpt>
      <trkpt lat="42.80566" lon="0.45926">
        <ele>1786</ele>
        <time>2014-03-28T15:17:31Z</time>
      </trkpt>
      <trkpt lat="42.80564" lon="0.45927">
        <ele>1784</ele>
        <time>2014-03-28T15:17:34Z</time>
      </trkpt>
      <trkpt lat="42.8056" lon="0.45927">
        <ele>1782</ele>
        <time>2014-03-28T15:17:38Z</time>
      </trkpt>
      <trkpt lat="42.80554" lon="0.45927">
        <ele>1780</ele>
        <time>2014-03-28T15:17:44Z</time>
      </trkpt>
      <trkpt lat="42.80551" lon="0.45927">
        <ele>1780</ele>
        <time>2014-03-28T15:17:48Z</time>
      </trkpt>
      <trkpt lat="42.80539" lon="0.45924">
        <ele>1775</ele>
        <time>2014-03-28T15:18:01Z</time>
      </trkpt>
      <trkpt lat="42.80537" lon="0.45923">
        <ele>1775</ele>
        <time>2014-03-28T15:18:03Z</time>
      </trkpt>
      <trkpt lat="42.80526" lon="0.4592">
        <ele>1771</ele>
        <time>2014-03-28T15:18:14Z</time>
      </trkpt>
      <trkpt lat="42.8052" lon="0.45917">
        <ele>1769</ele>
        <time>2014-03-28T15:18:21Z</time>
      </trkpt>
      <trkpt lat="42.80517" lon="0.45915">
        <ele>1769</ele>
        <time>2014-03-28T15:18:24Z</time>
      </trkpt>
      <trkpt lat="42.80508" lon="0.4591">
        <ele>1767</ele>
        <time>2014-03-28T15:18:34Z</time>
      </trkpt>
      <trkpt lat="42.805" lon="0.45904">
        <ele>1764</ele>
        <time>2014-03-28T15:18:43Z</time>
      </trkpt>
      <trkpt lat="42.80497" lon="0.45902">
        <ele>1764</ele>
        <time>2014-03-28T15:18:46Z</time>
      </trkpt>
      <trkpt lat="42.80486" lon="0.45893">
        <ele>1761</ele>
        <time>2014-03-28T15:19:00Z</time>
      </trkpt>
      <trkpt lat="42.80489" lon="0.45894">
        <ele>1761</ele>
        <time>2014-03-28T15:19:29Z</time>
      </trkpt>
      <trkpt lat="42.8049" lon="0.45894">
        <ele>1762</ele>
        <time>2014-03-28T15:19:55Z</time>
      </trkpt>
      <trkpt lat="42.80489" lon="0.45895">
        <ele>1762</ele>
        <time>2014-03-28T15:20:14Z</time>
      </trkpt>
      <trkpt lat="42.80489" lon="0.45895">
        <ele>1762</ele>
        <time>2014-03-28T15:20:44Z</time>
      </trkpt>
      <trkpt lat="42.80488" lon="0.45892">
        <ele>1762</ele>
        <time>2014-03-28T15:21:17Z</time>
      </trkpt>
      <trkpt lat="42.80489" lon="0.45894">
        <ele>1763</ele>
        <time>2014-03-28T15:21:48Z</time>
      </trkpt>
      <trkpt lat="42.80485" lon="0.45885">
        <ele>1761</ele>
        <time>2014-03-28T15:22:01Z</time>
      </trkpt>
      <trkpt lat="42.8048" lon="0.45872">
        <ele>1759</ele>
        <time>2014-03-28T15:22:15Z</time>
      </trkpt>
      <trkpt lat="42.80474" lon="0.4586">
        <ele>1756</ele>
        <time>2014-03-28T15:22:27Z</time>
      </trkpt>
      <trkpt lat="42.8047" lon="0.45851">
        <ele>1755</ele>
        <time>2014-03-28T15:22:39Z</time>
      </trkpt>
      <trkpt lat="42.80469" lon="0.45852">
        <ele>1755</ele>
        <time>2014-03-28T15:22:50Z</time>
      </trkpt>
      <trkpt lat="42.80463" lon="0.45844">
        <ele>1754</ele>
        <time>2014-03-28T15:23:02Z</time>
      </trkpt>
      <trkpt lat="42.80465" lon="0.4584">
        <ele>1753</ele>
        <time>2014-03-28T15:23:18Z</time>
      </trkpt>
      <trkpt lat="42.80465" lon="0.45828">
        <ele>1750</ele>
        <time>2014-03-28T15:23:31Z</time>
      </trkpt>
      <trkpt lat="42.80465" lon="0.45815">
        <ele>1748</ele>
        <time>2014-03-28T15:23:43Z</time>
      </trkpt>
      <trkpt lat="42.80464" lon="0.458">
        <ele>1745</ele>
        <time>2014-03-28T15:23:57Z</time>
      </trkpt>
      <trkpt lat="42.80465" lon="0.45795">
        <ele>1744</ele>
        <time>2014-03-28T15:24:02Z</time>
      </trkpt>
      <trkpt lat="42.80466" lon="0.45781">
        <ele>1741</ele>
        <time>2014-03-28T15:24:15Z</time>
      </trkpt>
      <trkpt lat="42.80467" lon="0.45777">
        <ele>1741</ele>
        <time>2014-03-28T15:24:18Z</time>
      </trkpt>
      <trkpt lat="42.8047" lon="0.45758">
        <ele>1737</ele>
        <time>2014-03-28T15:24:34Z</time>
      </trkpt>
      <trkpt lat="42.80473" lon="0.45742">
        <ele>1735</ele>
        <time>2014-03-28T15:24:47Z</time>
      </trkpt>
      <trkpt lat="42.80474" lon="0.45725">
        <ele>1732</ele>
        <time>2014-03-28T15:24:59Z</time>
      </trkpt>
      <trkpt lat="42.80478" lon="0.45715">
        <ele>1730</ele>
        <time>2014-03-28T15:25:09Z</time>
      </trkpt>
      <trkpt lat="42.80484" lon="0.45704">
        <ele>1728</ele>
        <time>2014-03-28T15:25:19Z</time>
      </trkpt>
      <trkpt lat="42.80485" lon="0.45696">
        <ele>1726</ele>
        <time>2014-03-28T15:25:32Z</time>
      </trkpt>
      <trkpt lat="42.80475" lon="0.45686">
        <ele>1724</ele>
        <time>2014-03-28T15:25:45Z</time>
      </trkpt>
      <trkpt lat="42.80468" lon="0.45679">
        <ele>1723</ele>
        <time>2014-03-28T15:25:56Z</time>
      </trkpt>
      <trkpt lat="42.80462" lon="0.45674">
        <ele>1721</ele>
        <time>2014-03-28T15:26:09Z</time>
      </trkpt>
      <trkpt lat="42.8046" lon="0.45674">
        <ele>1721</ele>
        <time>2014-03-28T15:26:21Z</time>
      </trkpt>
      <trkpt lat="42.80454" lon="0.45681">
        <ele>1720</ele>
        <time>2014-03-28T15:26:35Z</time>
      </trkpt>
      <trkpt lat="42.80447" lon="0.45685">
        <ele>1720</ele>
        <time>2014-03-28T15:26:43Z</time>
      </trkpt>
      <trkpt lat="42.80435" lon="0.45699">
        <ele>1718</ele>
        <time>2014-03-28T15:26:57Z</time>
      </trkpt>
      <trkpt lat="42.80424" lon="0.4571">
        <ele>1716</ele>
        <time>2014-03-28T15:27:10Z</time>
      </trkpt>
      <trkpt lat="42.8042" lon="0.45717">
        <ele>1715</ele>
        <time>2014-03-28T15:27:17Z</time>
      </trkpt>
      <trkpt lat="42.80412" lon="0.45728">
        <ele>1714</ele>
        <time>2014-03-28T15:27:27Z</time>
      </trkpt>
      <trkpt lat="42.80406" lon="0.45733">
        <ele>1713</ele>
        <time>2014-03-28T15:27:33Z</time>
      </trkpt>
      <trkpt lat="42.80403" lon="0.45743">
        <ele>1712</ele>
        <time>2014-03-28T15:27:40Z</time>
      </trkpt>
      <trkpt lat="42.80402" lon="0.4575">
        <ele>1712</ele>
        <time>2014-03-28T15:27:53Z</time>
      </trkpt>
      <trkpt lat="42.80401" lon="0.45751">
        <ele>1711</ele>
        <time>2014-03-28T15:28:07Z</time>
      </trkpt>
      <trkpt lat="42.804" lon="0.4575">
        <ele>1711</ele>
        <time>2014-03-28T15:28:24Z</time>
      </trkpt>
      <trkpt lat="42.80401" lon="0.4575">
        <ele>1711</ele>
        <time>2014-03-28T15:28:45Z</time>
      </trkpt>
      <trkpt lat="42.80399" lon="0.4575">
        <ele>1711</ele>
        <time>2014-03-28T15:29:11Z</time>
      </trkpt>
      <trkpt lat="42.804" lon="0.4575">
        <ele>1711</ele>
        <time>2014-03-28T15:29:29Z</time>
      </trkpt>
      <trkpt lat="42.804" lon="0.45751">
        <ele>1711</ele>
        <time>2014-03-28T15:29:55Z</time>
      </trkpt>
      <trkpt lat="42.804" lon="0.45751">
        <ele>1711</ele>
        <time>2014-03-28T15:30:16Z</time>
      </trkpt>
      <trkpt lat="42.80399" lon="0.4575">
        <ele>1712</ele>
        <time>2014-03-28T15:30:30Z</time>
      </trkpt>
      <trkpt lat="42.80399" lon="0.45762">
        <ele>1710</ele>
        <time>2014-03-28T15:30:43Z</time>
      </trkpt>
      <trkpt lat="42.804" lon="0.4577">
        <ele>1709</ele>
        <time>2014-03-28T15:30:59Z</time>
      </trkpt>
      <trkpt lat="42.80401" lon="0.45773">
        <ele>1709</ele>
        <time>2014-03-28T15:31:24Z</time>
      </trkpt>
      <trkpt lat="42.80401" lon="0.45772">
        <ele>1709</ele>
        <time>2014-03-28T15:31:57Z</time>
      </trkpt>
      <trkpt lat="42.80403" lon="0.45771">
        <ele>1709</ele>
        <time>2014-03-28T15:32:23Z</time>
      </trkpt>
      <trkpt lat="42.80401" lon="0.45777">
        <ele>1708</ele>
        <time>2014-03-28T15:32:34Z</time>
      </trkpt>
      <trkpt lat="42.80399" lon="0.45794">
        <ele>1706</ele>
        <time>2014-03-28T15:32:47Z</time>
      </trkpt>
      <trkpt lat="42.80397" lon="0.45814">
        <ele>1704</ele>
        <time>2014-03-28T15:33:02Z</time>
      </trkpt>
      <trkpt lat="42.80397" lon="0.45815">
        <ele>1705</ele>
        <time>2014-03-28T15:33:03Z</time>
      </trkpt>
      <trkpt lat="42.80399" lon="0.45834">
        <ele>1702</ele>
        <time>2014-03-28T15:33:18Z</time>
      </trkpt>
      <trkpt lat="42.80399" lon="0.45839">
        <ele>1701</ele>
        <time>2014-03-28T15:33:21Z</time>
      </trkpt>
      <trkpt lat="42.80398" lon="0.45869">
        <ele>1699</ele>
        <time>2014-03-28T15:33:39Z</time>
      </trkpt>
      <trkpt lat="42.80396" lon="0.45889">
        <ele>1697</ele>
        <time>2014-03-28T15:33:52Z</time>
      </trkpt>
      <trkpt lat="42.80396" lon="0.45896">
        <ele>1696</ele>
        <time>2014-03-28T15:33:56Z</time>
      </trkpt>
      <trkpt lat="42.80392" lon="0.45914">
        <ele>1695</ele>
        <time>2014-03-28T15:34:09Z</time>
      </trkpt>
      <trkpt lat="42.80392" lon="0.45916">
        <ele>1695</ele>
        <time>2014-03-28T15:34:10Z</time>
      </trkpt>
      <trkpt lat="42.8039" lon="0.45941">
        <ele>1693</ele>
        <time>2014-03-28T15:34:25Z</time>
      </trkpt>
      <trkpt lat="42.80389" lon="0.45952">
        <ele>1692</ele>
        <time>2014-03-28T15:34:32Z</time>
      </trkpt>
      <trkpt lat="42.80388" lon="0.45964">
        <ele>1690</ele>
        <time>2014-03-28T15:34:40Z</time>
      </trkpt>
      <trkpt lat="42.80387" lon="0.45969">
        <ele>1690</ele>
        <time>2014-03-28T15:34:44Z</time>
      </trkpt>
      <trkpt lat="42.80386" lon="0.45974">
        <ele>1689</ele>
        <time>2014-03-28T15:34:48Z</time>
      </trkpt>
      <trkpt lat="42.80387" lon="0.45978">
        <ele>1689</ele>
        <time>2014-03-28T15:34:50Z</time>
      </trkpt>
      <trkpt lat="42.80386" lon="0.45999">
        <ele>1687</ele>
        <time>2014-03-28T15:35:05Z</time>
      </trkpt>
      <trkpt lat="42.80385" lon="0.46">
        <ele>1687</ele>
        <time>2014-03-28T15:35:06Z</time>
      </trkpt>
      <trkpt lat="42.80384" lon="0.46008">
        <ele>1686</ele>
        <time>2014-03-28T15:35:13Z</time>
      </trkpt>
      <trkpt lat="42.80384" lon="0.46013">
        <ele>1685</ele>
        <time>2014-03-28T15:35:16Z</time>
      </trkpt>
      <trkpt lat="42.80383" lon="0.4603">
        <ele>1684</ele>
        <time>2014-03-28T15:35:28Z</time>
      </trkpt>
      <trkpt lat="42.80383" lon="0.46035">
        <ele>1683</ele>
        <time>2014-03-28T15:35:33Z</time>
      </trkpt>
      <trkpt lat="42.80383" lon="0.46045">
        <ele>1682</ele>
        <time>2014-03-28T15:35:39Z</time>
      </trkpt>
      <trkpt lat="42.8038" lon="0.46064">
        <ele>1680</ele>
        <time>2014-03-28T15:35:53Z</time>
      </trkpt>
      <trkpt lat="42.80379" lon="0.46082">
        <ele>1678</ele>
        <time>2014-03-28T15:36:06Z</time>
      </trkpt>
      <trkpt lat="42.80376" lon="0.46089">
        <ele>1677</ele>
        <time>2014-03-28T15:36:12Z</time>
      </trkpt>
      <trkpt lat="42.80375" lon="0.46095">
        <ele>1676</ele>
        <time>2014-03-28T15:36:16Z</time>
      </trkpt>
      <trkpt lat="42.80374" lon="0.46103">
        <ele>1675</ele>
        <time>2014-03-28T15:36:21Z</time>
      </trkpt>
      <trkpt lat="42.80373" lon="0.4611">
        <ele>1674</ele>
        <time>2014-03-28T15:36:26Z</time>
      </trkpt>
      <trkpt lat="42.8037" lon="0.46125">
        <ele>1672</ele>
        <time>2014-03-28T15:36:37Z</time>
      </trkpt>
      <trkpt lat="42.80369" lon="0.46129">
        <ele>1672</ele>
        <time>2014-03-28T15:36:40Z</time>
      </trkpt>
      <trkpt lat="42.80366" lon="0.46153">
        <ele>1668</ele>
        <time>2014-03-28T15:36:55Z</time>
      </trkpt>
      <trkpt lat="42.80364" lon="0.46167">
        <ele>1667</ele>
        <time>2014-03-28T15:37:07Z</time>
      </trkpt>
      <trkpt lat="42.80363" lon="0.46173">
        <ele>1667</ele>
        <time>2014-03-28T15:37:11Z</time>
      </trkpt>
      <trkpt lat="42.80363" lon="0.46188">
        <ele>1665</ele>
        <time>2014-03-28T15:37:21Z</time>
      </trkpt>
      <trkpt lat="42.80362" lon="0.46208">
        <ele>1664</ele>
        <time>2014-03-28T15:37:35Z</time>
      </trkpt>
      <trkpt lat="42.80362" lon="0.4621">
        <ele>1662</ele>
        <time>2014-03-28T15:37:46Z</time>
      </trkpt>
      <trkpt lat="42.8036" lon="0.46204">
        <ele>1661</ele>
        <time>2014-03-28T15:37:51Z</time>
      </trkpt>
      <trkpt lat="42.80354" lon="0.46208">
        <ele>1660</ele>
        <time>2014-03-28T15:38:01Z</time>
      </trkpt>
      <trkpt lat="42.80355" lon="0.46211">
        <ele>1659</ele>
        <time>2014-03-28T15:38:04Z</time>
      </trkpt>
      <trkpt lat="42.80355" lon="0.46211">
        <ele>1659</ele>
        <time>2014-03-28T15:38:06Z</time>
      </trkpt>
      <trkpt lat="42.80354" lon="0.46207">
        <ele>1657</ele>
        <time>2014-03-28T15:38:11Z</time>
      </trkpt>
      <trkpt lat="42.80351" lon="0.46202">
        <ele>1656</ele>
        <time>2014-03-28T15:38:19Z</time>
      </trkpt>
      <trkpt lat="42.80349" lon="0.46184">
        <ele>1655</ele>
        <time>2014-03-28T15:38:30Z</time>
      </trkpt>
      <trkpt lat="42.80349" lon="0.46179">
        <ele>1654</ele>
        <time>2014-03-28T15:38:33Z</time>
      </trkpt>
      <trkpt lat="42.80348" lon="0.46164">
        <ele>1654</ele>
        <time>2014-03-28T15:38:42Z</time>
      </trkpt>
      <trkpt lat="42.80347" lon="0.46156">
        <ele>1653</ele>
        <time>2014-03-28T15:38:46Z</time>
      </trkpt>
      <trkpt lat="42.80347" lon="0.46153">
        <ele>1653</ele>
        <time>2014-03-28T15:38:48Z</time>
      </trkpt>
      <trkpt lat="42.80347" lon="0.4615">
        <ele>1652</ele>
        <time>2014-03-28T15:38:50Z</time>
      </trkpt>
      <trkpt lat="42.80343" lon="0.46131">
        <ele>1650</ele>
        <time>2014-03-28T15:39:03Z</time>
      </trkpt>
      <trkpt lat="42.8034" lon="0.46114">
        <ele>1648</ele>
        <time>2014-03-28T15:39:15Z</time>
      </trkpt>
      <trkpt lat="42.8034" lon="0.46113">
        <ele>1648</ele>
        <time>2014-03-28T15:39:16Z</time>
      </trkpt>
      <trkpt lat="42.80332" lon="0.46092">
        <ele>1646</ele>
        <time>2014-03-28T15:39:31Z</time>
      </trkpt>
      <trkpt lat="42.80332" lon="0.4609">
        <ele>1646</ele>
        <time>2014-03-28T15:39:32Z</time>
      </trkpt>
      <trkpt lat="42.80329" lon="0.46069">
        <ele>1644</ele>
        <time>2014-03-28T15:39:44Z</time>
      </trkpt>
      <trkpt lat="42.80327" lon="0.46053">
        <ele>1643</ele>
        <time>2014-03-28T15:39:57Z</time>
      </trkpt>
      <trkpt lat="42.80325" lon="0.46031">
        <ele>1641</ele>
        <time>2014-03-28T15:40:10Z</time>
      </trkpt>
      <trkpt lat="42.8032" lon="0.46019">
        <ele>1640</ele>
        <time>2014-03-28T15:40:21Z</time>
      </trkpt>
      <trkpt lat="42.80317" lon="0.46012">
        <ele>1638</ele>
        <time>2014-03-28T15:40:27Z</time>
      </trkpt>
      <trkpt lat="42.80318" lon="0.45998">
        <ele>1637</ele>
        <time>2014-03-28T15:40:40Z</time>
      </trkpt>
      <trkpt lat="42.80315" lon="0.45994">
        <ele>1636</ele>
        <time>2014-03-28T15:40:44Z</time>
      </trkpt>
      <trkpt lat="42.80306" lon="0.45978">
        <ele>1633</ele>
        <time>2014-03-28T15:40:56Z</time>
      </trkpt>
      <trkpt lat="42.80304" lon="0.45972">
        <ele>1633</ele>
        <time>2014-03-28T15:41:01Z</time>
      </trkpt>
      <trkpt lat="42.80306" lon="0.45961">
        <ele>1632</ele>
        <time>2014-03-28T15:41:08Z</time>
      </trkpt>
      <trkpt lat="42.80308" lon="0.45954">
        <ele>1631</ele>
        <time>2014-03-28T15:41:12Z</time>
      </trkpt>
      <trkpt lat="42.80301" lon="0.4593">
        <ele>1630</ele>
        <time>2014-03-28T15:41:26Z</time>
      </trkpt>
      <trkpt lat="42.803" lon="0.45926">
        <ele>1630</ele>
        <time>2014-03-28T15:41:28Z</time>
      </trkpt>
      <trkpt lat="42.80297" lon="0.45907">
        <ele>1628</ele>
        <time>2014-03-28T15:41:35Z</time>
      </trkpt>
      <trkpt lat="42.80292" lon="0.45884">
        <ele>1625</ele>
        <time>2014-03-28T15:41:50Z</time>
      </trkpt>
      <trkpt lat="42.80285" lon="0.45858">
        <ele>1623</ele>
        <time>2014-03-28T15:42:04Z</time>
      </trkpt>
      <trkpt lat="42.80284" lon="0.45851">
        <ele>1621</ele>
        <time>2014-03-28T15:42:13Z</time>
      </trkpt>
      <trkpt lat="42.80286" lon="0.45848">
        <ele>1621</ele>
        <time>2014-03-28T15:42:16Z</time>
      </trkpt>
      <trkpt lat="42.80287" lon="0.45837">
        <ele>1620</ele>
        <time>2014-03-28T15:42:24Z</time>
      </trkpt>
      <trkpt lat="42.80283" lon="0.45829">
        <ele>1619</ele>
        <time>2014-03-28T15:42:28Z</time>
      </trkpt>
      <trkpt lat="42.80281" lon="0.45819">
        <ele>1619</ele>
        <time>2014-03-28T15:42:30Z</time>
      </trkpt>
      <trkpt lat="42.80281" lon="0.4582">
        <ele>1619</ele>
        <time>2014-03-28T15:42:37Z</time>
      </trkpt>
      <trkpt lat="42.80281" lon="0.45828">
        <ele>1618</ele>
        <time>2014-03-28T15:42:43Z</time>
      </trkpt>
      <trkpt lat="42.80279" lon="0.45841">
        <ele>1616</ele>
        <time>2014-03-28T15:42:57Z</time>
      </trkpt>
      <trkpt lat="42.80279" lon="0.45852">
        <ele>1614</ele>
        <time>2014-03-28T15:43:09Z</time>
      </trkpt>
      <trkpt lat="42.80278" lon="0.45864">
        <ele>1612</ele>
        <time>2014-03-28T15:43:18Z</time>
      </trkpt>
      <trkpt lat="42.80282" lon="0.45879">
        <ele>1611</ele>
        <time>2014-03-28T15:43:26Z</time>
      </trkpt>
      <trkpt lat="42.80275" lon="0.459">
        <ele>1609</ele>
        <time>2014-03-28T15:43:41Z</time>
      </trkpt>
      <trkpt lat="42.80274" lon="0.45912">
        <ele>1607</ele>
        <time>2014-03-28T15:43:49Z</time>
      </trkpt>
      <trkpt lat="42.80274" lon="0.45925">
        <ele>1606</ele>
        <time>2014-03-28T15:43:58Z</time>
      </trkpt>
      <trkpt lat="42.80273" lon="0.45935">
        <ele>1604</ele>
        <time>2014-03-28T15:44:07Z</time>
      </trkpt>
      <trkpt lat="42.80273" lon="0.45936">
        <ele>1605</ele>
        <time>2014-03-28T15:44:08Z</time>
      </trkpt>
      <trkpt lat="42.80267" lon="0.45946">
        <ele>1604</ele>
        <time>2014-03-28T15:44:14Z</time>
      </trkpt>
      <trkpt lat="42.80264" lon="0.45957">
        <ele>1602</ele>
        <time>2014-03-28T15:44:21Z</time>
      </trkpt>
      <trkpt lat="42.80265" lon="0.45974">
        <ele>1600</ele>
        <time>2014-03-28T15:44:36Z</time>
      </trkpt>
      <trkpt lat="42.80268" lon="0.45982">
        <ele>1598</ele>
        <time>2014-03-28T15:44:42Z</time>
      </trkpt>
      <trkpt lat="42.80267" lon="0.45985">
        <ele>1598</ele>
        <time>2014-03-28T15:44:44Z</time>
      </trkpt>
      <trkpt lat="42.80267" lon="0.45991">
        <ele>1598</ele>
        <time>2014-03-28T15:44:48Z</time>
      </trkpt>
      <trkpt lat="42.80264" lon="0.46006">
        <ele>1597</ele>
        <time>2014-03-28T15:44:59Z</time>
      </trkpt>
      <trkpt lat="42.80264" lon="0.46011">
        <ele>1596</ele>
        <time>2014-03-28T15:45:03Z</time>
      </trkpt>
      <trkpt lat="42.80278" lon="0.46044">
        <ele>1595</ele>
        <time>2014-03-28T15:45:07Z</time>
      </trkpt>
      <trkpt lat="42.80275" lon="0.46056">
        <ele>1594</ele>
        <time>2014-03-28T15:45:13Z</time>
      </trkpt>
      <trkpt lat="42.8027" lon="0.46071">
        <ele>1594</ele>
        <time>2014-03-28T15:45:26Z</time>
      </trkpt>
      <trkpt lat="42.80268" lon="0.46079">
        <ele>1593</ele>
        <time>2014-03-28T15:45:39Z</time>
      </trkpt>
      <trkpt lat="42.80268" lon="0.46081">
        <ele>1593</ele>
        <time>2014-03-28T15:45:41Z</time>
      </trkpt>
      <trkpt lat="42.80267" lon="0.46095">
        <ele>1592</ele>
        <time>2014-03-28T15:45:51Z</time>
      </trkpt>
      <trkpt lat="42.80265" lon="0.461">
        <ele>1591</ele>
        <time>2014-03-28T15:45:55Z</time>
      </trkpt>
      <trkpt lat="42.80266" lon="0.46118">
        <ele>1589</ele>
        <time>2014-03-28T15:46:07Z</time>
      </trkpt>
      <trkpt lat="42.80266" lon="0.46124">
        <ele>1589</ele>
        <time>2014-03-28T15:46:10Z</time>
      </trkpt>
      <trkpt lat="42.80265" lon="0.46138">
        <ele>1587</ele>
        <time>2014-03-28T15:46:23Z</time>
      </trkpt>
      <trkpt lat="42.80259" lon="0.46152">
        <ele>1584</ele>
        <time>2014-03-28T15:46:36Z</time>
      </trkpt>
      <trkpt lat="42.80252" lon="0.46162">
        <ele>1583</ele>
        <time>2014-03-28T15:46:47Z</time>
      </trkpt>
      <trkpt lat="42.80248" lon="0.46177">
        <ele>1582</ele>
        <time>2014-03-28T15:47:01Z</time>
      </trkpt>
      <trkpt lat="42.80242" lon="0.46191">
        <ele>1580</ele>
        <time>2014-03-28T15:47:14Z</time>
      </trkpt>
      <trkpt lat="42.80232" lon="0.46211">
        <ele>1578</ele>
        <time>2014-03-28T15:47:27Z</time>
      </trkpt>
      <trkpt lat="42.80234" lon="0.46207">
        <ele>1578</ele>
        <time>2014-03-28T15:47:40Z</time>
      </trkpt>
      <trkpt lat="42.80233" lon="0.46201">
        <ele>1578</ele>
        <time>2014-03-28T15:47:53Z</time>
      </trkpt>
      <trkpt lat="42.80235" lon="0.46197">
        <ele>1578</ele>
        <time>2014-03-28T15:48:08Z</time>
      </trkpt>
      <trkpt lat="42.80236" lon="0.46192">
        <ele>1577</ele>
        <time>2014-03-28T15:48:14Z</time>
      </trkpt>
      <trkpt lat="42.80233" lon="0.46188">
        <ele>1577</ele>
        <time>2014-03-28T15:48:41Z</time>
      </trkpt>
      <trkpt lat="42.80234" lon="0.46183">
        <ele>1577</ele>
        <time>2014-03-28T15:49:12Z</time>
      </trkpt>
      <trkpt lat="42.80238" lon="0.46185">
        <ele>1577</ele>
        <time>2014-03-28T15:49:33Z</time>
      </trkpt>
      <trkpt lat="42.80239" lon="0.46184">
        <ele>1577</ele>
        <time>2014-03-28T15:50:05Z</time>
      </trkpt>
      <trkpt lat="42.8024" lon="0.46185">
        <ele>1577</ele>
        <time>2014-03-28T15:50:36Z</time>
      </trkpt>
      <trkpt lat="42.80233" lon="0.46189">
        <ele>1578</ele>
        <time>2014-03-28T15:51:02Z</time>
      </trkpt>
      <trkpt lat="42.80229" lon="0.4619">
        <ele>1577</ele>
        <time>2014-03-28T15:51:23Z</time>
      </trkpt>
      <trkpt lat="42.80233" lon="0.46185">
        <ele>1577</ele>
        <time>2014-03-28T15:51:46Z</time>
      </trkpt>
      <trkpt lat="42.80233" lon="0.46187">
        <ele>1578</ele>
        <time>2014-03-28T15:52:11Z</time>
      </trkpt>
    </trkseg>
  </trk>
</gpx>